[[[{"header":{"parameterUnit":"kt","parameterCategory":2,"dx":1,"dy":1,"la1":29.587661999999998,"la2":31.0,"lo1":-88.76705300000003,"lo2":-86.6583820000003,"nx":115,"ny":88,"refTime":"2022-09-26T18:00:00:Z","depth":0,"parameterNumber":1,"parameterNumberName":"U-component_of_WINDS"},"data":[22.3316,22.4608,22.6144,22.7706,22.923,23.0612,23.147,23.1867,23.2993,23.3134,23.3428,23.6257,23.7806,23.7537,23.3991,23.4708,23.8254,23.8382,23.8523,23.8945,24.0494,24.0916,24.1044,24.1044,24.1044,24.1044,24.1044,24.1044,24.1044,24.1044,24.1044,24.1044,24.1044,24.1044,24.1044,24.1198,24.1761,24.2593,24.3578,24.4564,24.6521,24.6944,24.7212,24.8352,24.9365,24.9801,25.0364,25.0364,25.0364,24.9655,24.7988,24.6544,24.5225,24.3956,24.3642,24.4427,24.5671,24.7189,24.869,25.0072,25.1317,25.159,25.2,25.2615,25.3317,25.4798,25.4592,25.4804,25.5571,25.5504,25.5762,25.5888,25.5911,25.6759,25.7713,25.7803,25.7821,25.7677,25.755,25.7441,25.7197,25.6905,25.6318,25.5551,25.4903,25.395,25.2362,25.1744,25.197,25.1578,25.1164,25.1243,25.1283,25.1066,25.1066,25.1066,25.1066,25.1066,25.1066,25.1066,25.1066,25.1066,25.1066,25.1066,25.146,25.1723,25.2381,25.3321,25.3959,25.4616,25.4991,25.5385,25.5912,25.6438,25.7378,22.274,22.3022,22.4595,22.6157,22.7693,22.9242,23.0638,23.1598,23.1867,23.257,23.371,23.4273,23.4554,23.5681,23.6257,23.7678,23.8382,23.81,23.9508,24.0212,24.0635,24.0762,24.0903,24.1044,24.1044,24.1044,24.1044,24.1044,24.1044,24.1044,24.1044,24.1044,24.1044,24.1044,24.1044,24.1057,24.1198,24.1761,24.2465,24.3438,24.3719,24.4001,24.5677,24.7225,24.8352,24.9069,24.9942,25.0364,25.035,24.9346,24.8162,24.6693,24.521,24.3682,24.328,24.3471,24.4716,24.6097,24.7462,24.8947,25.0278,25.125,25.159,25.1835,25.1986,25.2241,25.1894,25.2218,25.3333,25.391,25.4311,25.4546,25.4395,25.4678,25.5521,25.6115,25.6115,25.6078,25.5986,25.5911,25.5911,25.5948,25.526,25.4395,25.3807,25.3291,25.2558,25.1794,25.1164,25.1105,25.1066,25.1066,25.1066,25.1066,25.1066,25.1066,25.1066,25.1066,25.1066,25.1066,25.1066,25.1066,25.1066,25.1066,25.1066,25.1329,25.1855,25.2401,25.2927,25.3584,25.3959,25.4465,25.4991,25.5537,25.6721,22.2587,22.274,22.4173,22.5734,22.7271,22.8973,23.0343,23.1598,23.1751,23.2161,23.2724,23.2852,23.3274,23.4554,23.4414,23.4836,23.5962,23.6961,23.796,23.8804,23.8945,24.0072,24.0762,24.1044,24.0903,24.1057,24.1057,24.1044,24.1044,24.1044,24.1044,24.1044,24.1044,24.1044,24.1044,24.1044,24.1044,24.1044,24.162,24.2043,24.203,24.3156,24.4705,24.624,24.7661,24.8942,24.9801,25.0364,25.0018,24.8936,24.8808,24.7448,24.5592,24.3745,24.2742,24.2925,24.3881,24.5262,24.6354,24.7723,24.9229,24.9676,25.0153,25.0049,25.0251,25.0176,24.9807,24.8965,25.0059,25.1899,25.2305,25.2813,25.2754,25.3232,25.4054,25.4489,25.4489,25.4376,25.4206,25.4187,25.4244,25.4225,25.3673,25.2941,25.3038,25.2554,25.2009,25.1145,25.1105,25.1066,25.1066,25.1066,25.1066,25.1066,25.1066,25.1066,25.1066,25.1066,25.1066,25.1066,25.1066,25.1066,25.1066,25.1066,25.1066,25.1066,25.1197,25.1592,25.2138,25.2795,25.3301,25.3544,25.3959,25.4505,25.49,22.2587,22.2728,22.3879,22.5171,22.672,22.841,22.9793,23.1188,23.1457,23.1739,23.1751,23.1892,23.2583,23.3838,23.3415,23.3991,23.4849,23.5988,23.5553,23.6692,23.755,23.8536,23.9522,23.9931,24.0353,24.0507,24.0916,24.1044,24.1044,24.1044,24.1044,24.1044,24.1044,24.1044,24.1044,24.1044,24.1044,24.1044,24.1326,24.1339,24.1326,24.2452,24.3578,24.5127,24.6662,24.8097,24.91,24.9707,24.9191,24.8579,24.9374,24.8335,24.6604,24.4358,24.3062,24.2886,24.3624,24.4443,24.5535,24.7107,24.7992,24.8387,24.9287,24.8659,24.8224,24.8206,24.7702,24.6636,24.688,24.8888,25.0307,25.0669,25.1051,25.1998,25.2941,25.2941,25.2941,25.269,25.2399,25.2438,25.2535,25.2282,25.1833,25.1676,25.1911,25.1735,25.1243,25.1066,25.1066,25.1066,25.1066,25.1066,25.1066,25.1066,25.1066,25.1066,25.1066,25.1066,25.1066,25.1066,25.1066,25.1066,25.1066,25.1066,25.1066,25.1066,25.1197,25.1197,25.146,25.2118,25.2644,25.2907,25.319,25.3058,25.3058,22.2587,22.2587,22.2728,22.3738,22.5171,22.6848,22.8397,22.9793,23.1175,23.1751,23.1751,23.1751,23.2443,23.3415,23.3402,23.4132,23.4708,23.5003,23.5284,23.6437,23.6565,23.6846,23.7691,23.8113,23.8958,23.9508,24.0072,24.0776,24.0916,24.1044,24.1044,24.1044,24.1044,24.1044,24.1044,24.1044,24.1044,24.1044,24.1044,24.1044,24.1044,24.1339,24.1902,24.3733,24.5127,24.6789,24.7964,24.8392,24.8536,24.8075,24.7726,24.705,24.6018,24.4762,24.3603,24.3304,24.2974,24.3608,24.4852,24.6234,24.6905,24.7946,24.9763,24.835,24.6674,24.5826,24.578,24.4823,24.5211,24.6933,24.8519,24.9162,24.998,25.0939,25.1667,25.195,25.1931,25.1833,25.1617,25.1656,25.1735,25.1656,25.1224,25.1263,25.1558,25.1342,25.1066,25.1066,25.1066,25.1066,25.1066,25.1066,25.1066,25.1066,25.1066,25.1066,25.1066,25.1066,25.1066,25.1066,25.1066,25.1066,25.1066,25.1066,25.1066,25.1066,25.1066,25.1066,25.1329,25.1723,25.1986,25.2118,25.1986,25.1723,25.1855,22.2587,22.2587,22.2587,22.2869,22.3867,22.6144,22.7553,22.8551,23.0766,23.1751,23.1751,23.1751,23.2007,23.2724,23.2724,23.3006,23.3735,23.3876,23.4286,23.4721,23.499,23.5425,23.6142,23.7128,23.7678,23.8664,23.9368,24.0226,24.0916,24.1044,24.1044,24.1044,24.1044,24.1044,24.1044,24.1044,24.1044,24.1044,24.1044,24.1044,24.1044,24.1044,24.2043,24.3169,24.386,24.5817,24.7693,24.8118,24.7826,24.7162,24.7988,24.6783,24.4139,24.4529,24.3919,24.2934,24.2564,24.3062,24.376,24.5142,24.5681,24.6335,24.7471,24.6572,24.509,24.4093,24.3881,24.3858,24.44,24.5147,24.6575,24.789,24.8942,24.9843,25.052,25.1066,25.1066,25.1066,25.1066,25.1066,25.1066,25.1066,25.1066,25.1066,25.1066,25.1066,25.1066,25.1066,25.1066,25.1066,25.1066,25.1066,25.1066,25.1066,25.1066,25.1066,25.1066,25.1066,25.1066,25.1066,25.1066,25.1066,25.1066,25.1066,25.1066,25.1066,25.1066,25.1066,25.1066,25.1197,25.146,25.1592,25.146,25.1066,25.146,22.2587,22.2587,22.301,22.3175,22.3585,22.5594,22.7143,22.8257,23.0484,23.1751,23.1751,23.1751,23.1739,23.1751,23.1751,23.1739,23.1751,23.1879,23.2583,23.2993,23.3428,23.4145,23.4708,23.5425,23.627,23.7256,23.8241,23.9368,24.0212,24.1044,24.1044,24.1044,24.1044,24.1044,24.1044,24.1044,24.1044,24.1044,24.1044,24.1044,24.1044,24.1044,24.162,24.2465,24.3156,24.4282,24.6176,24.6914,24.6675,24.6118,24.6722,24.6499,24.3078,24.3524,24.4139,24.3062,24.2677,24.2652,24.2805,24.4033,24.4775,24.4743,24.4738,24.3847,24.3884,24.326,24.29,24.3068,24.3476,24.4358,24.5522,24.6969,24.8284,24.9336,25.052,25.0934,25.1066,25.1066,25.1066,25.1066,25.1066,25.1066,25.1066,25.1066,25.1066,25.1066,25.1066,25.1066,25.1066,25.1066,25.1066,25.1066,25.1066,25.1066,25.1066,25.1066,25.1066,25.1066,25.1066,25.1066,25.1066,25.1066,25.1066,25.1066,25.1066,25.1066,25.1066,25.1066,25.1066,25.1197,25.1197,25.1197,25.1066,25.1066,25.1329,22.2587,22.274,22.4173,22.4749,22.4749,22.5171,22.6861,22.9524,23.1035,23.1739,23.1751,23.1751,23.1751,23.1751,23.1751,23.1751,23.1751,23.1751,23.1879,23.202,23.2302,23.2161,23.2737,23.3582,23.4414,23.5399,23.6666,23.81,23.8958,23.9931,24.0776,24.0916,24.1044,24.1044,24.1044,24.1044,24.1044,24.1044,24.1044,24.1044,24.1044,24.1031,24.1092,24.1394,24.2318,24.337,24.413,24.5123,24.5172,24.4824,24.4502,24.4366,24.397,24.327,24.3682,24.3666,24.303,24.2693,24.2789,24.3744,24.3979,24.3217,24.1928,24.2709,24.2942,24.2224,24.2146,24.2256,24.278,24.3569,24.449,24.5936,24.7383,24.8698,25.0013,25.0671,25.0934,25.1066,25.1066,25.1066,25.1066,25.1066,25.1066,25.1066,25.1066,25.1066,25.1066,25.1066,25.1066,25.1066,25.1066,25.1066,25.1066,25.1066,25.1066,25.1066,25.1066,25.1066,25.1066,25.1066,25.1066,25.1066,25.1066,25.1066,25.1066,25.1066,25.1066,25.1066,25.1066,25.1066,25.1066,25.1066,25.1066,25.1066,25.1066,22.2587,22.2587,22.3163,22.3891,22.503,22.6016,22.8257,23.0766,23.1457,23.1751,23.1751,23.1751,23.1751,23.1751,23.1751,23.1751,23.1751,23.1751,23.1751,23.1751,23.1751,23.1751,23.1739,23.2302,23.3134,23.4119,23.5399,23.6961,23.8382,23.9227,23.9931,24.0635,24.1044,24.0863,24.0823,24.0964,24.0991,24.1044,24.1044,24.1044,24.1044,24.0884,24.0684,24.0528,24.099,24.1962,24.2498,24.3177,24.3809,24.3062,24.2744,24.2527,24.1884,24.1608,24.2066,24.2741,24.2725,24.2645,24.2516,24.3335,24.3179,24.2326,24.0189,24.0546,24.2132,24.1303,24.128,24.1709,24.2385,24.278,24.3306,24.449,24.5936,24.7383,24.883,25.0257,25.0671,25.1066,25.1066,25.1066,25.1066,25.1066,25.1066,25.1066,25.1066,25.1066,25.1066,25.1066,25.1066,25.1066,25.1066,25.1066,25.1066,25.1066,25.1066,25.1066,25.1066,25.1066,25.1066,25.1066,25.1066,25.1066,25.1066,25.1066,25.1066,25.1066,25.1066,25.1066,25.1066,25.1066,25.1066,25.1066,25.1066,25.1066,25.1066,22.2587,22.2587,22.3163,22.3891,22.503,22.6579,22.8679,23.0766,23.1457,23.1751,23.1751,23.1751,23.1751,23.1751,23.1751,23.1751,23.1751,23.1751,23.1751,23.1751,23.1751,23.1751,23.1751,23.1879,23.2289,23.3134,23.3978,23.554,23.7242,23.7691,23.8818,23.979,24.0058,24.0013,23.9874,24.0355,24.0791,24.0977,24.1031,24.1031,24.1004,24.0617,24.013,23.95,23.9569,24.0072,24.0773,24.2056,24.2228,24.1396,24.206,24.1316,23.9995,23.9762,24.0396,24.1488,24.1882,24.2002,24.2516,24.2484,24.2354,24.125,23.9884,23.9336,24.0654,23.9989,24.0546,24.1183,24.1991,24.2385,24.2648,24.3832,24.5147,24.6594,24.8041,24.9468,25.052,25.0783,25.1066,25.1066,25.1066,25.1066,25.1066,25.1066,25.1066,25.1066,25.1066,25.1066,25.1066,25.1066,25.1066,25.1066,25.1066,25.1066,25.1066,25.1066,25.1066,25.1066,25.1066,25.1066,25.1066,25.1066,25.1066,25.1066,25.1066,25.1066,25.1066,25.1066,25.1066,25.1066,25.1066,25.1066,25.1066,25.1066,25.1066,22.2447,22.2728,22.4173,22.4761,22.503,22.6579,22.8128,22.9793,23.1188,23.1751,23.1751,23.1751,23.1751,23.1751,23.1751,23.1751,23.1751,23.1751,23.1751,23.1751,23.1751,23.1751,23.1751,23.1751,23.1879,23.2161,23.3006,23.3838,23.4541,23.5694,23.7128,23.8254,23.8316,23.7906,23.718,23.8356,23.9786,24.0817,24.0884,24.0951,24.0791,23.9936,23.9416,23.8764,23.8371,23.8286,23.9124,24.0285,24.0253,23.96,24.0226,23.9755,23.8375,23.8196,23.8847,24.0244,24.0517,24.1183,24.2259,24.2396,24.1747,24.0647,23.8923,23.826,23.8265,23.8332,23.8722,24.0657,24.1446,24.1991,24.2911,24.3681,24.5016,24.6331,24.7758,24.9073,25.0125,25.0783,25.1066,25.1066,25.1066,25.1066,25.1066,25.1066,25.1066,25.1066,25.1066,25.1066,25.1066,25.1066,25.1066,25.1066,25.1066,25.1066,25.1066,25.1066,25.1066,25.1066,25.1066,25.1066,25.1066,25.1066,25.1066,25.1066,25.1066,25.1066,25.1066,25.1066,25.1066,25.1066,25.1066,25.1066,25.1066,25.1066,25.1066,22.1602,22.2587,22.301,22.3879,22.503,22.6579,22.8128,22.9665,23.1047,23.1739,23.1751,23.1751,23.1751,23.1751,23.1751,23.1751,23.1751,23.1751,23.1751,23.1751,23.1751,23.1751,23.1751,23.1751,23.1751,23.1726,23.2289,23.3134,23.3838,23.4414,23.5553,23.6129,23.6038,23.5674,23.5294,23.6183,23.7592,23.9317,23.9953,24.0157,24.0844,23.9899,23.8945,23.7931,23.7445,23.7228,23.7346,23.8072,23.806,23.7724,23.7378,23.7254,23.6957,23.68,23.7466,23.8574,23.9682,24.0533,24.0926,24.1071,24.0827,24.0022,23.8262,23.756,23.7614,23.726,23.7857,23.9605,24.0525,24.1314,24.2517,24.2911,24.3964,24.5542,24.6838,24.8284,24.9336,25.0388,25.0651,25.1066,25.1066,25.1066,25.1066,25.1066,25.1066,25.1066,25.1066,25.1066,25.1066,25.1066,25.1066,25.1066,25.1066,25.1066,25.1066,25.1066,25.1066,25.1066,25.1066,25.1066,25.1066,25.1066,25.1066,25.1066,25.1066,25.1066,25.1066,25.1066,25.1066,25.1066,25.1066,25.1066,25.1066,25.1066,25.1066,22.1179,22.2587,22.2587,22.315,22.4185,22.5722,22.7283,22.8679,23.0203,23.1188,23.1751,23.1751,23.1751,23.1751,23.1751,23.1751,23.1751,23.1739,23.1751,23.1751,23.1739,23.1751,23.1751,23.1751,23.1739,23.1739,23.1739,23.2443,23.3134,23.3146,23.3863,23.4004,23.371,23.3244,23.3242,23.3801,23.5501,23.7075,23.819,23.9051,23.985,23.9126,23.8144,23.7185,23.6807,23.5656,23.5854,23.6309,23.6087,23.5899,23.5734,23.547,23.517,23.5104,23.586,23.7209,23.7907,23.9152,24.0107,24.0573,24.0164,23.9289,23.7594,23.6097,23.6022,23.627,23.7218,23.829,23.9454,24.0506,24.1577,24.2103,24.2911,24.4358,24.5805,24.7232,24.8416,24.9468,25.0125,25.0934,25.1066,25.1066,25.1066,25.1066,25.1066,25.1066,25.1066,25.1066,25.1066,25.1066,25.1066,25.1066,25.1066,25.1066,25.1066,25.1066,25.1066,25.1066,25.1066,25.1066,25.1066,25.1066,25.1066,25.1066,25.1066,25.1066,25.1066,25.1066,25.1066,25.1066,25.1066,25.1066,25.1066,25.1066,25.1066,22.1039,22.2447,22.2447,22.2434,22.274,22.4173,22.5734,22.713,22.8973,23.0356,23.1316,23.1598,23.1751,23.1751,23.1751,23.1751,23.1739,23.1662,23.1636,23.1662,23.1675,23.1585,23.1623,23.1585,23.1559,23.1713,23.1418,23.1508,23.1841,23.2161,23.1879,23.1687,23.1878,23.118,23.1071,23.1465,23.3007,23.3734,23.5442,23.6811,23.755,23.7432,23.6798,23.6355,23.4994,23.4248,23.5252,23.5465,23.5314,23.5329,23.5239,23.4905,23.4182,23.4132,23.4511,23.5739,23.6422,23.765,23.8879,23.9272,23.9225,23.8215,23.6871,23.5614,23.4772,23.5276,23.581,23.6467,23.8158,23.9454,24.0657,24.1446,24.2498,24.3832,24.4884,24.6049,24.7101,24.8284,24.9731,25.0671,25.1066,25.1066,25.1066,25.1066,25.1066,25.1066,25.1066,25.1066,25.1066,25.1066,25.1066,25.1066,25.1066,25.1066,25.1066,25.1066,25.1066,25.1066,25.1066,25.1066,25.1066,25.1066,25.1066,25.1066,25.1066,25.1066,25.1066,25.1066,25.1066,25.1066,25.1066,25.1066,25.1066,25.1066,25.1066,21.9361,22.0769,22.0757,22.1461,22.2728,22.4326,22.5171,22.5875,22.8257,22.9793,23.0356,23.1188,23.1751,23.1751,23.1751,23.1739,23.1675,23.0733,23.0915,23.1058,23.0967,23.0954,23.134,23.0811,23.085,23.1726,23.0889,23.0811,23.1392,23.1675,23.1636,23.1713,23.0876,22.99,22.9271,22.946,22.9551,22.9939,23.1658,23.33,23.4505,23.4477,23.4426,23.419,23.3931,23.3847,23.414,23.4111,23.4111,23.4142,23.4188,23.4096,23.3816,23.3707,23.398,23.4374,23.5193,23.6149,23.6831,23.7498,23.7482,23.7367,23.6839,23.5205,23.3996,23.4028,23.4663,23.581,23.6975,23.829,23.9736,24.0506,24.1709,24.2911,24.3964,24.4884,24.5805,24.7495,24.8942,24.9731,25.0388,25.0671,25.1066,25.1066,25.1066,25.1066,25.1066,25.1066,25.1066,25.1066,25.1066,25.0783,25.0783,25.0783,25.0914,25.0934,25.1066,25.1066,25.1066,25.1066,25.1066,25.1066,25.1066,25.1066,25.1066,25.1066,25.1066,25.1066,25.1066,25.1066,25.1066,25.1066,25.1066,25.1066,25.1066,21.7824,21.9373,21.9924,22.0769,22.1743,22.3304,22.4173,22.5324,22.7553,22.8961,22.9793,23.1047,23.1751,23.1751,23.1751,23.1751,23.1367,23.051,23.0589,23.134,23.068,23.0602,23.1084,23.0602,23.018,23.0615,23.0379,23.026,23.0141,23.0497,23.0902,23.0772,23.022,22.927,22.8549,22.8004,22.7035,22.7026,22.8163,23.0268,23.1687,23.226,23.2386,23.2312,23.18,23.1646,23.1706,23.1781,23.1917,23.2721,23.2736,23.3009,23.3555,23.3571,23.3571,23.3692,23.3949,23.4359,23.4905,23.5724,23.586,23.5951,23.5432,23.442,23.3258,23.2976,23.3479,23.4907,23.5565,23.6993,23.8834,23.9868,24.092,24.1972,24.3024,24.3964,24.5128,24.6687,24.787,24.8791,24.9731,25.0388,25.0934,25.1066,25.1066,25.1066,25.1066,25.1066,25.1066,25.1066,25.0914,25.0651,25.052,25.0388,25.0257,25.0276,25.0145,25.0802,25.0802,25.0934,25.1066,25.1066,25.1066,25.1066,25.1066,25.1066,25.1066,25.1066,25.1066,25.1066,25.1066,25.1066,25.1066,25.1066,25.1066,21.6276,21.7824,21.9373,22.0065,22.0488,22.2024,22.3457,22.4749,22.6285,22.7847,22.8679,23.0484,23.1329,23.147,23.1457,23.1751,23.134,23.0379,23.0167,23.1029,23.0154,23.0154,23.1032,23.0352,23.0154,23.0061,22.9822,22.9094,22.8644,22.9311,22.9741,22.9648,22.9379,22.8972,22.7673,22.6784,22.5806,22.5165,22.6093,22.7907,22.9728,23.0302,23.0503,23.0252,22.996,22.9581,22.9718,22.9854,23.0127,23.1204,23.1219,23.1902,23.2857,23.3146,23.3146,23.2736,23.2175,23.1765,23.2994,23.407,23.4618,23.3295,23.3403,23.2736,23.1904,23.1552,23.1869,23.3363,23.4513,23.581,23.7125,23.8966,24.0544,24.1577,24.2366,24.3287,24.4076,24.5391,24.6687,24.7627,24.8416,24.9356,25.052,25.0802,25.1066,25.1066,25.1066,25.1066,25.1066,25.1066,25.0934,25.0388,25.0125,24.9336,24.9073,24.883,24.9224,25.0388,25.052,25.0671,25.0934,25.1066,25.1066,25.1066,25.1066,25.1066,25.1066,25.1066,25.1066,25.1066,25.1066,25.1066,25.1066,25.1066,25.1066,21.4598,21.6135,21.7672,21.908,22.0347,22.1883,22.2728,22.3316,22.4736,22.5747,22.6157,22.8679,22.9934,23.0203,23.1035,23.1547,23.1546,22.9486,22.9473,23.0008,22.927,22.923,23.0008,23.0035,22.9848,22.9607,22.9067,22.7938,22.7349,22.8036,22.8479,22.8396,22.756,22.6952,22.6695,22.5879,22.5188,22.4819,22.5077,22.5259,22.6226,22.7136,22.7834,22.7866,22.8808,22.9035,22.8762,22.8762,22.9157,22.9445,22.9718,22.987,22.9991,23.0143,23.0143,23.0006,22.9854,22.9718,23.0522,23.1598,23.1993,23.0816,23.148,23.1098,23.0323,23.0099,23.0045,23.0557,23.1733,23.3329,23.5152,23.6993,23.8966,24.0525,24.1709,24.2648,24.3175,24.4076,24.5391,24.6331,24.6989,24.8041,24.9205,24.975,25.0539,25.0671,25.0914,25.0914,25.0671,25.0671,25.0671,25.0145,24.9205,24.8284,24.7627,24.7383,24.8041,24.9205,24.9599,24.9994,25.052,25.1066,25.0934,25.0934,25.0934,25.1066,25.1066,25.1066,25.1066,25.1066,25.1066,25.1066,25.1066,25.1066,25.1066,21.3765,21.4598,21.6135,21.7672,21.922,22.0769,22.1883,22.2728,22.4185,22.4902,22.5594,22.7283,22.882,22.9244,22.9334,22.9153,22.9621,22.9028,22.9473,22.9527,22.8876,22.8835,22.9888,22.9311,22.9203,22.8822,22.798,22.6981,22.6566,22.7123,22.7293,22.7179,22.681,22.6423,22.6148,22.5292,22.4772,22.4668,22.4789,22.4804,22.4971,22.5532,22.5941,22.6078,22.6594,22.6988,22.6988,22.6988,22.7398,22.7974,22.811,22.8505,22.8489,22.8216,22.7413,22.8095,22.8247,22.8383,22.9308,22.9809,23.0041,22.9375,22.9272,22.902,22.8704,22.8801,22.9161,22.9151,22.976,23.1488,23.3442,23.5002,23.7369,23.9586,24.0769,24.1577,24.2385,24.3024,24.4207,24.541,24.5936,24.6725,24.789,24.8961,24.9882,25.0388,25.0783,25.052,24.9994,25.0145,25.0276,24.9356,24.7909,24.6989,24.618,24.5936,24.6331,24.7627,24.8416,24.9205,24.9862,25.0671,25.0802,25.052,25.0934,25.1066,25.1066,25.1066,25.1066,25.1066,25.1066,25.1066,25.1066,25.1066,25.1066,21.333,21.333,21.4868,21.6276,21.7672,21.9502,22.1039,22.2306,22.3751,22.4467,22.4608,22.6157,22.7565,22.7939,22.6409,22.6389,22.7697,22.8298,22.8902,22.8767,22.8996,22.8712,22.9459,22.9053,22.8616,22.7994,22.7462,22.6624,22.6192,22.6293,22.6437,22.6163,22.6003,22.5989,22.5806,22.5292,22.4653,22.4653,22.4653,22.4653,22.4653,22.4941,22.4941,22.4941,22.5077,22.5199,22.4926,22.4941,22.5365,22.6472,22.6609,22.7276,22.7398,22.6018,22.576,22.6321,22.6609,22.7018,22.7822,22.8474,22.8723,22.83,22.7622,22.6948,22.6813,22.7314,22.7319,22.7261,22.8164,22.976,23.2427,23.3592,23.5791,23.8271,23.9999,24.0901,24.1991,24.2648,24.3175,24.4227,24.4753,24.541,24.6462,24.7646,24.8304,24.883,24.9093,24.8961,24.8698,24.8961,24.9112,24.8041,24.6725,24.5805,24.4865,24.4865,24.4884,24.618,24.7101,24.789,24.881,25.0013,25.0408,24.9994,24.9994,25.0651,25.0934,25.1066,25.1066,25.1066,25.1066,25.1066,25.1066,25.1066,25.1066,21.333,21.333,21.4868,21.5712,21.6416,21.8939,22.0206,22.0769,22.2177,22.2881,22.3175,22.4608,22.5453,22.5813,22.6279,22.6295,22.6246,22.6636,22.6834,22.7193,22.8259,22.8802,22.8557,22.8761,22.8819,22.8244,22.7757,22.6652,22.5756,22.5879,22.5908,22.5144,22.4995,22.5158,22.504,22.4698,22.4653,22.4653,22.4653,22.4653,22.4653,22.4653,22.4653,22.4653,22.4653,22.4653,22.4653,22.4789,22.4789,22.5092,22.5077,22.5199,22.5199,22.4789,22.4941,22.5062,22.5365,22.5638,22.6033,22.6655,22.6881,22.561,22.5372,22.4942,22.409,22.4495,22.4957,22.5402,22.6173,22.7112,22.8313,23.1075,23.41,23.658,23.8947,24.0788,24.1991,24.2385,24.2385,24.2911,24.355,24.4227,24.5279,24.6199,24.6725,24.7252,24.7271,24.7271,24.7271,24.7271,24.7271,24.6462,24.5805,24.5016,24.4227,24.4095,24.3832,24.4602,24.5259,24.6199,24.712,24.8041,24.8679,24.8659,24.9185,24.9994,25.052,25.052,25.0802,25.1066,25.1066,25.0934,25.0934,25.1066,25.1066,21.2497,21.3342,21.4035,21.4727,21.5712,21.712,21.8247,21.922,22.0616,22.132,22.1614,22.3034,22.4173,22.4865,22.4175,22.5045,22.5797,22.5259,22.4563,22.5311,22.6807,22.7529,22.7215,22.76,22.7354,22.6452,22.6878,22.6781,22.5879,22.5601,22.5351,22.4683,22.4683,22.4653,22.4653,22.4653,22.4653,22.4653,22.4653,22.4653,22.4653,22.4653,22.4653,22.4653,22.4653,22.4653,22.4653,22.4653,22.4653,22.4789,22.4804,22.5077,22.5638,22.5214,22.5214,22.5487,22.5365,22.4789,22.4789,22.532,22.5489,22.4851,22.49,22.4112,22.3412,22.3725,22.4149,22.4218,22.5271,22.6831,22.8295,23.0304,23.1864,23.4213,23.6693,23.8966,24.0657,24.1314,24.1314,24.1577,24.2517,24.3306,24.3964,24.4865,24.5542,24.5805,24.5805,24.6219,24.6219,24.6087,24.5805,24.5279,24.4753,24.4358,24.3701,24.3306,24.3043,24.3438,24.4076,24.5016,24.5561,24.6199,24.6838,24.7495,24.8153,24.8942,24.9599,24.9862,24.9994,25.0257,25.0408,25.0651,25.0783,25.1066,25.1066,21.1359,21.2779,21.2767,21.3612,21.5008,21.5431,21.6264,21.7543,21.908,21.9772,21.9912,22.1039,22.2189,22.315,22.1382,22.1936,22.4202,22.2994,22.2842,22.3501,22.5308,22.5644,22.5094,22.5551,22.514,22.4975,22.5488,22.596,22.5974,22.5424,22.4981,22.4742,22.4653,22.4653,22.4653,22.4653,22.4653,22.4653,22.4653,22.4653,22.4653,22.4653,22.4653,22.4653,22.4653,22.4653,22.4653,22.4653,22.4653,22.4653,22.4789,22.5214,22.5911,22.5653,22.5926,22.6336,22.5775,22.535,22.5199,22.5062,22.4774,22.4687,22.4161,22.3592,22.2893,22.3377,22.3096,22.3728,22.4911,22.6735,22.8313,22.805,22.976,23.224,23.4494,23.6354,23.7895,23.8797,23.921,23.9605,24.0788,24.1991,24.1991,24.3287,24.4076,24.4339,24.4753,24.5147,24.5147,24.5016,24.4358,24.3438,24.3306,24.3438,24.3043,24.278,24.2648,24.2911,24.3438,24.4095,24.4095,24.4621,24.5128,24.5917,24.6838,24.7646,24.8304,24.8567,24.8698,24.9224,24.9619,24.9862,25.0125,25.0934,25.1066,20.9646,21.123,21.123,21.2063,21.3471,21.4879,21.5302,21.5994,21.712,21.7812,21.7953,21.8247,21.8798,21.8657,21.8837,21.8739,21.9622,21.9609,22.0804,22.2349,22.4011,22.3709,22.2085,22.3045,22.3687,22.3964,22.4358,22.4622,22.4847,22.5663,22.5508,22.4906,22.4653,22.4653,22.4653,22.4653,22.4653,22.4653,22.4653,22.4653,22.4653,22.4653,22.4653,22.4653,22.4653,22.4653,22.4653,22.4653,22.4653,22.4653,22.4653,22.4926,22.5199,22.6336,22.6897,22.717,22.717,22.6745,22.6609,22.5487,22.4804,22.4429,22.2691,22.1425,22.2199,22.1411,22.1139,22.2561,22.3202,22.4894,22.6866,22.8558,22.9347,23.0136,23.2408,23.3216,23.3329,23.4889,23.6449,23.658,23.8947,24.0112,24.0788,24.1577,24.2648,24.2629,24.2892,24.3306,24.3569,24.3701,24.3175,24.2385,24.2517,24.2648,24.2517,24.2385,24.2385,24.2385,24.3024,24.3175,24.3175,24.3306,24.3701,24.4339,24.5391,24.6331,24.6989,24.712,24.7139,24.7534,24.8041,24.8547,24.9205,24.9882,25.0539,20.8086,20.9505,20.9505,20.9928,21.0632,21.1195,21.1465,21.1899,21.3178,21.3894,21.4316,21.5583,21.6557,21.6698,21.7543,21.7969,21.819,21.8153,21.8184,21.8807,22.0524,22.0077,21.8926,22.0329,22.1434,22.1743,22.2569,22.312,22.3492,22.382,22.4367,22.4606,22.4653,22.4653,22.4653,22.4653,22.4653,22.4653,22.4653,22.4653,22.4653,22.4653,22.4653,22.4653,22.4653,22.4653,22.4653,22.4653,22.4653,22.4653,22.4789,22.5472,22.6988,22.7291,22.7837,22.9597,22.8793,22.7837,22.717,22.6487,22.5638,22.4717,22.4009,22.3141,22.2609,22.2031,22.0786,22.1894,22.2561,22.3465,22.4762,22.606,22.7243,22.8164,22.9234,22.9646,22.9252,23.2408,23.3987,23.4626,23.6467,23.8834,23.7895,23.9097,24.015,24.092,24.1051,24.1596,24.1991,24.2385,24.2385,24.2385,24.2517,24.2517,24.2385,24.2385,24.2385,24.2385,24.278,24.2648,24.2648,24.2648,24.2911,24.3306,24.4095,24.4884,24.5259,24.5654,24.5824,24.6087,24.6199,24.6838,24.7778,24.8567,24.9336,20.5665,20.7241,20.7382,20.7804,20.8508,20.8638,20.8649,20.879,20.9939,21.0514,21.0784,21.2744,21.36,21.3882,21.4856,21.5982,21.6357,21.651,21.587,21.5675,21.68,21.6105,21.5685,21.788,21.9405,21.9423,22.0678,22.1516,22.1738,22.1875,22.2665,22.4107,22.3985,22.4258,22.4653,22.4653,22.4653,22.4653,22.4653,22.4653,22.4653,22.4653,22.4653,22.4653,22.4653,22.4653,22.4653,22.4653,22.4653,22.4653,22.4653,22.5881,22.7398,22.7291,22.7852,22.9339,22.8914,22.7974,22.717,22.6912,22.6199,22.4957,22.4578,22.4464,22.3356,22.2796,22.2006,22.1839,22.1869,22.2544,22.307,22.371,22.4876,22.6191,22.5946,22.5551,22.6209,22.9234,23.1769,23.1225,23.4381,23.596,23.6223,23.7012,23.8459,23.8947,23.9473,23.9999,24.0544,24.107,24.1446,24.1709,24.2122,24.2254,24.2385,24.2385,24.2385,24.2385,24.2385,24.2385,24.2385,24.2385,24.2385,24.2385,24.3438,24.3701,24.3944,24.4207,24.4621,24.4904,24.5147,24.5522,24.6462,24.712,24.7758,20.1866,20.4037,20.4166,20.5772,20.8014,20.812,20.8014,20.8414,20.8508,20.8531,20.8672,20.9224,20.9212,20.9072,20.9905,21.1324,21.3049,21.3471,21.4489,21.5531,21.4531,21.3828,21.4166,21.6651,21.7895,21.8232,21.9271,21.9935,22.0329,22.0417,22.1119,22.2347,22.262,22.3166,22.397,22.4516,22.438,22.4243,22.4531,22.4516,22.4516,22.4668,22.4653,22.4653,22.4653,22.4653,22.4653,22.438,22.438,22.4653,22.438,22.4501,22.5214,22.6321,22.7033,22.7716,22.7443,22.7306,22.7185,22.7048,22.6351,22.4927,22.5021,22.4912,22.4533,22.3126,22.222,22.2517,22.1886,22.1737,22.2412,22.2132,22.264,22.4332,22.3298,22.2132,22.1737,22.5157,22.7279,22.8331,23.1206,23.395,23.3724,23.5828,23.6749,23.6993,23.7538,23.8177,23.8834,23.9736,24.0262,24.0788,24.1446,24.1577,24.1709,24.1859,24.2385,24.2385,24.2385,24.2385,24.2385,24.2385,24.2385,24.2385,24.2648,24.2648,24.2648,24.2911,24.3306,24.3306,24.3701,24.447,24.5016,24.541,24.5936,20.0919,20.1769,20.19,20.2596,20.3412,20.3268,20.3899,20.4923,20.4413,20.4887,20.6172,20.6815,20.7101,20.7382,20.8215,20.9212,21.0198,21.035,21.0913,21.1547,21.007,21.0644,21.2518,21.3727,21.4974,21.6906,21.7848,21.8317,21.8735,21.9492,22.022,22.0934,22.1104,22.1377,22.1787,22.1923,22.1908,22.206,22.2742,22.3288,22.3424,22.4243,22.4653,22.4653,22.4653,22.4653,22.4516,22.2864,22.1908,22.1908,22.1908,22.2878,22.4653,22.6048,22.7443,22.811,22.8247,22.7837,22.717,22.6912,22.6336,22.526,22.5713,22.5978,22.5095,22.5345,22.3992,22.3227,22.2395,22.2395,22.2675,22.1755,22.1737,22.3579,22.1983,22.1343,22.2132,22.3579,22.4236,22.4631,22.7112,22.9102,23.0041,23.1751,23.3311,23.5547,23.5715,23.5715,23.7801,23.844,23.8703,23.9229,24.015,24.0788,24.1051,24.1577,24.2254,24.2122,24.1991,24.1728,24.1991,24.1991,24.2254,24.2254,24.2385,24.2385,24.2385,24.2385,24.2254,24.1446,24.1427,24.1972,24.2254,24.2911,24.4227,19.9562,19.9862,19.9852,20.0146,20.0508,20.0222,20.0983,20.2045,20.1509,20.1998,20.3215,20.3938,20.4397,20.5023,20.5845,20.6971,20.7652,20.6819,20.696,20.7701,20.7145,20.823,21.02,21.0798,21.2514,21.5294,21.6225,21.6691,21.7046,21.7462,21.8686,21.9759,21.9656,21.9929,22.0854,22.0461,22.0271,22.0407,22.1241,22.1635,22.1787,22.2727,22.3288,22.3288,22.3288,22.3015,22.2469,22.0695,21.933,21.8784,21.8784,22.0012,22.2196,22.4137,22.5365,22.6306,22.67,22.6594,22.579,22.6351,22.6336,22.5412,22.614,22.6068,22.4668,22.5142,22.4723,22.3393,22.2544,22.2544,22.2675,22.1606,22.1325,22.2132,22.1474,22.1343,22.2544,22.2658,22.2018,22.2,22.4105,22.5701,22.6227,22.7393,22.9347,23.1601,23.1864,23.2427,23.4776,23.5828,23.6749,23.7012,23.8571,23.9624,24.0018,24.0413,24.0544,24.0413,24.0281,24.015,24.1051,24.1446,24.1859,24.2122,24.2254,24.2385,24.2385,24.2254,24.2122,24.1577,24.1314,24.0657,23.9755,24.0676,24.2254,19.7478,19.8265,19.8324,19.9105,20.025,20.0167,20.0419,20.0644,20.0518,20.0558,20.0779,20.0477,20.1248,20.1624,20.2143,20.3485,20.5045,20.3333,20.3451,20.5833,20.6035,20.6834,20.8582,20.9047,21.068,21.3135,21.4041,21.4709,21.5067,21.4722,21.5982,21.8708,21.8037,21.8599,22.1697,22.0112,21.9861,21.9998,21.9998,22.0271,22.0271,22.0544,22.068,22.0544,22.0134,21.9315,21.795,21.7829,21.7024,21.5961,21.5824,21.6492,21.8101,21.9739,22.0544,22.0953,22.1938,22.2469,22.2757,22.4971,22.5653,22.4684,22.598,22.5669,22.3432,22.3261,22.3384,22.2665,22.1737,22.1343,22.2412,22.1606,22.0931,22.0782,22.0931,22.1325,22.2263,22.1737,22.1343,22.2412,22.2807,22.2938,22.3333,22.4368,22.5516,22.6454,22.7129,22.8313,23.0286,23.254,23.3742,23.44,23.6223,23.8045,23.8703,23.9097,23.8834,23.859,23.859,23.8703,23.9342,23.9097,23.9379,24.0281,24.0413,24.1202,24.107,24.2254,24.1972,24.1577,24.184,24.1465,24.0281,23.9511,24.0807,19.7379,19.7545,19.7525,19.7952,19.8329,19.8057,19.8656,19.9845,19.9282,19.9814,20.0728,20.0618,20.0547,20.0812,20.0662,20.1227,20.1758,20.0801,20.1232,20.304,20.317,20.4437,20.6621,20.7178,20.8256,21.0188,21.0789,21.1763,21.3015,21.455,21.5084,21.5053,21.4751,21.5159,21.5942,21.5831,21.6191,21.7297,21.8087,21.8647,21.8769,21.9725,22.0271,21.9739,21.6205,21.3885,21.3475,21.3475,21.3216,21.2807,21.2821,21.3353,21.4962,21.7268,21.8633,21.8784,21.9998,22.0968,22.1104,22.1787,22.2211,22.1864,22.39,22.4234,22.1704,22.3217,22.3244,22.187,22.1062,22.0931,22.1325,22.1062,22.0799,22.0782,22.0782,22.108,22.1474,22.108,22.108,22.1474,22.1606,22.2018,22.2658,22.2526,22.3166,22.499,22.4517,22.542,22.7506,22.976,23.1206,23.2427,23.4626,23.5941,23.6467,23.5941,23.5434,23.6223,23.6467,23.673,23.6975,23.6223,23.6241,23.7388,23.8308,23.921,24.0262,24.1577,24.1577,24.092,24.092,24.0676,23.9624,23.8703,23.9097,19.7246,19.7246,19.7246,19.7246,19.7217,19.7094,19.7694,19.8727,19.8188,19.8595,19.9489,19.9385,19.9451,19.971,19.9169,19.9117,19.9631,19.9066,19.9631,20.0867,20.0864,20.2054,20.4426,20.4578,20.5738,20.7717,20.8054,20.9053,21.0978,21.2344,21.2824,21.2323,21.2455,21.2978,21.3525,21.3693,21.4076,21.4714,21.5616,21.5922,21.5566,21.6464,21.7455,21.7768,21.4325,21.195,21.1003,21.0975,21.0357,20.8862,20.938,20.9776,21.0458,21.3052,21.484,21.5508,21.6995,21.7814,21.7814,21.836,21.8784,21.9466,22.1241,22.1212,21.9833,22.0594,22.1128,21.9713,21.9238,21.8598,21.8186,21.8318,21.8695,21.9221,21.9782,22.0159,22.0668,22.0782,22.0782,22.0782,22.0782,22.108,22.1737,22.1457,22.172,22.3692,22.3596,22.3859,22.5551,22.698,22.8164,22.9515,23.1338,23.3048,23.3442,23.2803,23.254,23.3461,23.4231,23.4494,23.5415,23.5057,23.5434,23.6862,23.7538,23.8327,23.8834,24.0018,24.0018,23.9605,23.9492,23.8966,23.7764,23.9079,23.8816,19.7246,19.7246,19.7246,19.7246,19.7246,19.7227,19.7379,19.7522,19.735,19.7143,19.6968,19.6918,19.7377,19.8175,19.7366,19.7559,19.8564,19.778,19.8216,19.9532,19.936,19.9997,20.1491,20.1632,20.3158,20.5708,20.6096,20.7215,20.8962,20.8486,20.893,21.113,21.1624,21.2432,21.3116,21.364,21.3687,21.2907,21.3168,21.2718,21.1722,21.1379,21.2334,21.3872,21.3797,21.2239,21.0399,21.0141,20.8381,20.4507,20.5914,20.6023,20.489,20.7293,20.9506,21.091,21.2369,21.316,21.331,21.4294,21.5673,21.7024,21.7405,21.7076,21.6068,21.6391,21.6626,21.6226,21.5692,21.4538,21.2828,21.3452,21.4504,21.5705,21.73,21.873,22.0142,22.0142,22.0668,22.0799,22.0782,22.0931,22.0931,22.0782,22.1457,22.2395,22.2807,22.2956,22.3465,22.4499,22.5534,22.6191,22.7112,22.7919,22.9234,22.976,22.976,23.0417,23.1601,23.1864,23.3329,23.4531,23.5565,23.6354,23.596,23.6223,23.7538,23.8064,23.8177,23.844,23.844,23.844,23.8027,23.9454,23.906,19.7246,19.7246,19.7246,19.7246,19.7246,19.7246,19.7246,19.7246,19.7246,19.7188,19.708,19.707,19.7276,19.7432,19.6958,19.6309,19.565,19.4983,19.54,19.6521,19.6556,19.7743,19.9975,20.108,20.2054,20.2888,20.4014,20.5416,20.7108,20.8899,20.9419,20.8555,20.952,20.9811,20.9463,21.056,21.1086,21.1265,21.3159,21.3427,21.2153,20.9909,20.8821,20.9221,20.8327,20.7125,20.5665,20.5599,20.4688,20.2937,20.3892,20.3958,20.2937,20.429,20.5466,20.6364,20.7715,20.852,20.852,20.8943,20.9776,21.1305,21.252,21.2925,21.3043,21.384,21.4125,21.2975,20.9405,20.8125,20.8618,20.9391,20.9769,21.0295,21.2565,21.4521,21.6082,21.8186,21.9387,22.0668,22.0405,22.0782,22.0799,22.0799,22.0931,22.1474,22.1474,22.1737,22.2807,22.4105,22.5402,22.6586,22.7901,22.8445,22.7919,22.7919,22.8576,22.8971,22.8839,22.8971,22.8989,22.8313,22.869,23.2522,23.1864,23.2259,23.4363,23.5941,23.6599,23.7651,23.8045,23.7914,23.7632,23.7238,23.6975,19.6371,19.638,19.7104,19.7246,19.7246,19.7246,19.7246,19.7246,19.7246,19.7246,19.7246,19.6666,19.6675,19.737,19.6981,19.6435,19.5531,19.5103,19.5348,19.5821,19.5756,19.6715,19.8579,19.9663,20.0248,20.082,20.1643,20.2618,20.3744,20.5856,20.6696,20.6011,20.7367,20.7736,20.7287,20.8622,20.9219,20.9194,21.1307,21.1736,21.0456,20.8814,20.796,20.7821,20.7123,20.5919,20.4709,20.4811,20.404,20.2216,20.3034,20.2824,20.1099,20.1792,20.2019,20.1831,20.2542,20.3211,20.3894,20.4439,20.5422,20.7074,20.8029,20.8576,20.8663,20.9196,20.9069,20.779,20.4641,20.3328,20.5525,20.5456,20.5955,20.7681,20.8734,21.0427,21.2251,21.36,21.5047,21.702,21.7792,21.8432,21.9633,22.0422,22.1062,22.1623,22.1737,22.2132,22.2807,22.3692,22.4631,22.542,22.6717,22.7243,22.6586,22.6323,22.6717,22.7375,22.7375,22.7243,22.7524,22.6849,22.7094,22.8295,22.9347,23.0662,23.1977,23.2898,23.3574,23.3968,23.4757,23.5678,23.6073,23.5941,23.4757,19.4791,19.4934,19.6095,19.6951,19.6818,19.6808,19.6808,19.6818,19.6808,19.6818,19.6523,19.5372,19.5514,19.6808,19.6941,19.6799,19.6617,19.6558,19.6491,19.6391,19.6037,19.6457,19.7453,19.7651,19.8295,19.924,19.9434,19.9694,19.9975,20.108,20.2173,20.3733,20.5129,20.5777,20.5929,20.7313,20.7695,20.6901,20.7964,20.8012,20.6813,20.7636,20.8215,20.8368,20.8204,20.7179,20.474,20.5825,20.4704,20.1565,20.2188,20.1724,19.9193,19.9305,19.8853,19.7382,19.7369,19.7902,19.9267,20.0645,20.1887,20.3525,20.3525,20.3716,20.426,20.2821,20.1768,20.1602,20.0795,20.0459,20.1971,20.1325,20.2116,20.4984,20.5298,20.6071,20.8306,20.8191,20.8734,21.1512,21.3057,21.4898,21.73,21.8844,22.0422,22.1641,22.2018,22.2412,22.2938,22.3202,22.3333,22.3184,22.3824,22.4595,22.4595,22.4727,22.4744,22.5007,22.5928,22.6472,22.6849,22.7769,22.9084,22.7901,22.8803,22.9084,22.9479,22.961,22.9873,23.0925,23.1601,23.2408,23.4494,23.502,23.3705,19.3212,19.3212,19.3488,19.364,19.364,19.364,19.363,19.364,19.3649,19.364,19.364,19.3345,19.3345,19.3792,19.4943,19.4791,19.3925,19.4827,19.5192,19.4886,19.4777,19.5348,19.6347,19.7245,19.775,19.8187,19.9012,19.9401,19.9412,19.9694,20.0657,20.2054,20.2477,20.2618,20.2606,20.4155,20.5061,20.5143,20.4,20.3698,20.453,20.4875,20.5563,20.6537,20.5552,20.388,20.1471,20.1437,20.0281,19.7671,19.7724,19.7358,19.5866,19.5879,19.5387,19.432,19.4217,19.4366,19.4763,19.5036,19.5881,19.7408,19.7506,19.8602,20.0312,19.6865,19.44,19.5359,19.4791,19.4851,19.6311,19.6159,19.6411,19.7616,19.9364,20.1468,20.3177,20.5019,20.6876,20.8339,20.8997,21.0443,21.3091,21.4898,21.674,21.9141,22.0571,22.1737,22.2675,22.2938,22.2412,22.1737,22.1606,22.1851,22.172,22.1851,22.2377,22.3333,22.3842,22.4368,22.5271,22.5779,22.6042,22.6323,22.698,22.7506,22.7769,22.8576,22.9216,22.9216,22.9628,23.0286,23.1206,23.1338,23.0549,19.1509,19.1652,19.2346,19.2631,19.2631,19.2631,19.2631,19.2336,18.8931,18.8503,19.0348,19.0491,19.1357,19.2641,19.3497,19.3354,19.2631,19.3497,19.4228,19.4603,19.4593,19.523,19.624,19.6988,19.7176,19.6946,19.7382,19.7602,19.757,19.808,19.8827,19.9509,20.0224,20.0657,20.0657,20.1502,20.2067,20.2248,20.1213,20.0646,20.0776,20.1491,20.1914,20.2032,20.2066,20.0904,19.9084,19.9496,19.886,19.6993,19.6545,19.6248,19.6081,19.4126,19.3031,19.2892,19.1767,19.1487,19.2182,19.2182,19.3151,19.5361,19.5595,19.5718,19.6017,19.3003,19.1945,19.3224,19.2346,19.2335,19.3798,19.3661,19.3685,19.4588,19.6105,19.7523,19.8443,20.0416,20.2289,20.3719,20.5561,20.7665,20.9934,21.1479,21.304,21.4355,21.5968,21.7958,22.0571,21.9896,21.9107,21.9765,22.0422,22.0668,22.0799,22.0782,22.1194,22.1737,22.2,22.2246,22.2903,22.3166,22.3412,22.3955,22.4631,22.542,22.6191,22.698,22.7375,22.7638,22.7901,22.8445,22.8708,22.9084,22.8953,18.8959,18.9092,19.05,19.1062,19.1062,19.1214,19.1214,19.05,18.4079,18.3517,18.738,18.737,18.8788,19.1347,19.149,19.1642,19.1633,19.2061,19.3079,19.4363,19.4506,19.5177,19.6134,19.6349,19.6108,19.5722,19.5511,19.5391,19.549,19.6335,19.6823,19.6975,19.8123,19.8708,19.8849,19.8979,19.899,19.8697,19.8556,19.7993,19.7094,19.8264,19.8264,19.7538,19.8838,19.8863,19.7611,19.8526,19.8441,19.7029,19.6065,19.5913,19.6514,19.3013,19.1062,19.1715,19.004,18.9405,19.0524,19.0648,19.1741,19.4214,19.4307,19.3261,19.0979,19.0696,19.1119,19.2404,19.1835,19.1841,19.2792,19.2529,19.2532,19.3346,19.3905,19.4088,19.3972,19.5449,19.7159,19.8706,20.2125,20.4903,20.6498,20.8043,20.9095,20.9605,21.1084,21.2959,21.5458,21.4915,21.4504,21.6888,21.8598,21.9238,21.8975,21.9616,21.9616,21.9896,21.9896,22.001,22.0159,22.0422,22.108,22.2149,22.2544,22.3202,22.4087,22.4464,22.4595,22.5007,22.5814,22.6603,22.698,22.7524,22.7506,18.2661,18.2661,18.2928,18.308,18.308,18.4383,18.4231,18.308,0.0,0.0,0.0,18.4097,18.4383,18.5096,18.6362,18.6914,18.7066,18.9511,19.0805,19.1242,19.2498,19.3164,19.3372,19.4313,19.4836,19.4717,19.5079,19.5391,19.538,19.5228,19.5133,19.5285,19.5437,19.5577,19.5707,19.6834,19.6834,19.5567,19.431,19.4733,19.6975,19.613,19.6715,19.899,19.9271,19.8761,19.7286,19.7451,19.6195,19.3468,19.2455,19.1871,19.2005,19.0538,18.9363,18.8882,18.9491,18.9531,18.8557,18.8521,18.8796,18.9232,18.8573,18.8335,18.9154,18.8695,18.8842,18.9503,19.0516,19.0851,19.0412,19.1309,19.1287,18.9538,19.0571,19.0831,18.9925,19.1767,19.3987,19.5419,19.7407,19.9542,20.2289,20.3867,20.5051,20.6334,20.755,20.8997,20.9391,20.8323,20.8191,21.0936,21.2251,21.2646,21.36,21.4767,21.5556,21.5556,21.6477,21.7266,21.7414,21.8204,21.901,21.9273,22.0422,22.108,22.1474,22.172,22.1983,22.307,22.3579,22.4122,22.5139,22.4762,22.3991,18.209,18.209,18.209,18.209,0.0,18.2956,18.053,17.624,17.78,17.8951,17.9673,17.9664,18.0101,18.0967,18.1805,18.2509,18.3357,18.4944,18.6372,18.7932,18.8788,18.993,19.1509,19.2012,19.278,19.3434,19.3311,19.3867,19.4739,19.404,19.4146,19.5063,19.484,19.4722,19.4722,19.5556,19.5567,19.4722,19.4029,19.4018,19.4733,19.4722,19.5144,19.587,19.6715,0.0,0.0,0.0,0.0,0.0,0.0,0.0,0.0,0.0,0.0,18.5835,18.4665,18.3493,18.2365,18.2585,18.3608,18.5566,18.5146,18.4246,18.2844,18.4869,18.5623,18.4439,18.6338,18.7771,18.7972,18.833,18.8271,18.7938,18.882,18.9151,18.8756,19.032,19.1868,19.2642,19.4498,19.6749,19.9001,20.0447,20.1615,20.2388,20.3604,20.4525,20.4409,20.2683,20.2404,20.515,20.7123,20.9112,20.9917,21.0706,21.1084,21.1084,21.1611,21.2022,21.2153,21.3337,21.4521,21.5327,21.6625,21.8186,21.9238,21.965,22.0194,22.1474,22.1869,22.2,22.1755,22.136,22.0983,18.0663,18.0672,18.0958,18.11,18.11,18.1386,17.7818,17.1958,17.3208,17.4492,17.5651,17.5651,17.6516,17.7684,17.7684,17.8398,17.9647,17.9932,18.1359,18.3775,18.4498,18.6077,18.8521,18.9092,19.0082,19.129,19.1021,19.1828,19.3566,19.2496,19.2916,19.4391,19.4111,19.4018,19.4299,0.0,0.0,0.0,19.3888,19.3606,19.2891,19.3888,19.3888,19.2902,19.3877,0.0,19.431,19.4029,19.3043,19.1191,19.0358,0.0,0.0,0.0,0.0,0.0,0.0,0.0,0.0,0.0,0.0,0.0,18.0229,17.89,17.6362,18.0178,18.1729,17.9268,18.2182,18.4601,18.5172,18.5406,18.5777,18.6282,18.6967,18.715,18.6783,18.8201,18.9501,19.0027,19.2131,19.4235,19.5844,19.7012,19.7654,19.7917,19.9001,19.9527,19.9264,19.7554,19.7306,19.979,20.3078,20.5561,20.6103,20.635,20.6629,20.6629,20.6761,20.6892,20.6892,20.8043,20.9621,21.0328,21.2153,21.4355,21.6494,21.73,21.7695,21.937,21.9484,21.9107,21.7414,21.7431,21.8221,17.0951,17.1085,17.2387,17.2957,17.3109,17.4358,17.4492,17.3494,17.3628,17.3922,17.4073,17.4064,17.4207,17.435,17.4358,17.4492,17.4778,17.6079,17.6935,17.7506,18.0226,18.1805,18.2233,18.4917,18.6353,18.6611,18.8894,19.0124,19.0285,19.0661,19.108,19.1263,19.0869,19.1364,19.2621,19.1364,19.066,19.0649,19.066,19.1916,19.444,19.3325,19.3314,19.431,19.3325,19.2761,19.2751,19.1353,18.9392,18.6586,18.6202,18.5468,18.4142,18.3365,18.1552,0.0,17.8605,0.0,0.0,0.0,0.0,0.0,0.0,0.0,0.0,17.5604,17.6853,17.5321,18.0773,18.3339,18.1234,18.4448,18.5532,18.2524,18.333,18.3259,18.1213,18.3188,18.5819,18.8362,18.8888,19.0203,19.2687,19.2278,19.2131,19.3476,19.3987,19.3608,19.2278,19.2687,19.3724,19.5403,19.7275,19.9132,20.0432,20.15,20.2141,20.2289,20.3094,20.362,20.242,20.4361,20.5824,20.5314,20.7796,21.0394,21.092,21.2153,21.3469,21.4767,21.4881,21.3961,21.1988,21.2777,21.4881,17.1782,17.1782,17.2512,17.0666,16.7677,16.8223,16.8651,16.8651,16.8659,16.8651,16.8659,16.8651,16.8659,16.8794,17.0363,17.1219,17.1362,17.2797,17.3939,17.4929,17.6365,17.7506,17.8371,17.9647,18.1359,18.3053,18.3958,18.5449,18.7318,18.7222,18.7527,18.8366,18.8962,18.806,18.6013,18.6133,18.7139,18.8829,18.8829,18.9956,19.2057,19.1494,19.1505,19.2057,19.1505,19.079,18.9815,18.91,18.6999,18.3176,18.3609,18.2613,17.9365,17.6458,17.4556,0.0,0.0,0.0,0.0,0.0,0.0,0.0,0.0,0.0,0.0,0.0,16.8645,17.2299,17.7629,17.9608,17.6491,17.8217,17.9498,17.9417,17.8223,17.8188,18.03,17.9741,18.0704,18.4284,18.4825,18.614,18.9677,18.9662,18.9794,19.1225,19.0846,18.9794,18.8595,18.9384,19.0714,19.2131,19.2293,19.3229,19.6324,19.7376,19.7786,19.7786,19.8985,19.9805,19.9148,20.0695,20.1878,20.1352,20.2651,20.4213,20.5019,20.5824,20.7024,20.8438,20.7649,20.5939,20.5282,20.6892,20.8997,17.1068,17.0926,16.9793,16.6796,16.2825,16.2817,16.2968,16.3396,16.3665,16.3951,16.3951,16.4252,16.3967,16.3396,16.5529,16.6519,16.6955,16.8962,17.0666,17.2075,17.2932,17.3788,17.4947,17.5375,17.6784,17.9201,17.919,18.0641,18.3302,18.2901,18.3364,18.4412,18.495,18.3273,17.9817,18.1295,18.3408,18.6154,18.6538,18.7524,18.897,18.9403,18.9544,18.9533,18.8829,18.7833,18.6707,18.6003,18.3901,18.0491,18.0331,17.852,17.4588,16.9581,0.0,0.0,0.0,0.0,0.0,0.0,0.0,0.0,0.0,15.6658,15.3069,0.0,16.1417,0.0,17.2226,17.4409,17.2893,17.2587,0.0,0.0,17.2808,17.2702,17.6741,17.5734,17.6087,17.9972,18.0587,18.2457,18.6389,18.6798,18.7046,18.7791,18.7543,18.69,18.5979,18.7163,18.8756,18.9647,18.9151,18.9399,19.2131,19.2773,19.2773,19.3168,19.4134,19.507,19.507,19.6223,19.6997,19.6734,19.7144,19.8049,19.9132,19.9921,20.0826,20.1089,19.9248,19.7523,19.9001,20.0726,20.2715,16.3086,16.2666,15.8409,15.7125,15.7966,15.7966,15.883,16.0265,16.166,16.223,16.2365,16.3816,16.2825,16.0122,15.8972,0.0,16.0693,16.3682,16.5814,16.7408,17.0397,17.1664,17.1958,17.3217,17.4064,17.4358,17.5759,17.6624,17.6909,17.7915,17.8243,17.808,17.6739,17.6196,17.6627,17.8357,18.004,18.1356,18.3124,18.4545,18.5762,18.715,18.7995,18.7843,18.5137,18.3589,18.3448,18.0783,17.8962,17.852,17.4569,17.1603,16.9641,0.0,0.0,0.0,0.0,0.0,0.0,0.0,0.0,0.0,0.0,0.0,0.0,0.0,0.0,0.0,16.3069,0.0,17.1741,17.0591,0.0,0.0,0.0,16.6852,16.6008,16.995,17.352,17.5672,0.0,0.0,18.2062,18.2457,18.1888,18.0676,18.278,18.4372,18.424,18.6505,18.8377,18.8493,18.8362,18.7982,18.7806,18.7543,18.7952,18.9121,18.8888,18.956,18.956,19.0568,19.0714,19.0072,19.1519,19.3345,19.333,19.5449,19.5875,19.0992,19.0699,19.1736,19.333,19.5581,19.7964,15.6523,15.1957,15.011,14.9682,15.0245,15.0245,15.1679,15.409,15.4653,15.4946,15.4938,15.5659,15.4676,15.2558,15.0966,0.0,0.0,0.0,16.0693,16.4102,16.625,16.8231,16.9952,16.9667,17.0086,17.0926,17.0657,17.1539,17.3234,17.3783,17.1385,16.6464,0.0,0.0,16.9778,17.2258,17.5084,17.8542,17.9393,18.0853,18.2872,18.3568,18.373,18.3468,18.1487,17.9797,17.8953,17.685,17.4316,17.1641,16.8815,16.5709,0.0,0.0,0.0,0.0,0.0,0.0,0.0,0.0,0.0,0.0,0.0,14.2298,13.9839,0.0,0.0,0.0,15.2689,15.4601,15.8331,16.2275,0.0,0.0,0.0,0.0,0.0,0.0,0.0,16.5418,16.9568,17.3734,17.743,17.7942,17.7679,17.7125,18.107,18.3451,18.1596,0.0,18.6096,18.6915,18.6374,18.6491,18.8449,18.7411,18.7017,18.9253,19.032,19.0714,18.9925,19.0831,19.1225,19.0188,19.0568,19.1094,19.0188,18.9531,18.8332,18.6359,18.6885,18.8332,18.9809,19.1007,19.2571,14.7399,0.0,0.0,0.0,0.0,14.2255,14.3817,14.6243,14.6663,14.6949,14.6941,14.7384,0.0,0.0,0.0,0.0,0.0,0.0,15.5555,16.0106,16.2675,16.5235,16.7669,16.6678,16.6687,16.7661,16.6678,16.6972,16.8668,16.6536,16.2631,15.7283,0.0,0.0,0.0,0.0,17.0411,17.5029,17.5866,17.7382,17.9981,17.9664,17.9529,17.9543,17.771,17.5821,17.4185,17.2204,16.9397,16.5736,16.2506,0.0,0.0,0.0,0.0,0.0,0.0,0.0,0.0,0.0,0.0,0.0,0.0,0.0,0.0,0.0,0.0,0.0,0.0,0.0,14.7784,15.3626,15.5824,0.0,0.0,0.0,0.0,0.0,0.0,0.0,0.0,0.0,16.9858,17.1369,17.2523,0.0,0.0,18.1216,17.8703,18.0939,18.3057,18.3612,18.2531,0.0,18.5702,18.4781,18.4518,18.7002,18.8595,18.9136,18.766,18.8186,18.858,18.7513,18.7806,18.7543,18.6096,18.386,18.2122,18.1742,18.2399,18.3612,18.4942,18.5994,18.7309,0.0,0.0,0.0,0.0,0.0,0.0,0.0,0.0,13.826,13.8959,0.0,14.055,0.0,0.0,0.0,0.0,0.0,14.5266,0.0,0.0,15.9813,16.3086,16.4379,16.4395,16.4538,16.453,16.4244,16.3523,16.1802,15.4653,0.0,0.0,0.0,0.0,0.0,0.0,16.5878,17.0397,17.2474,17.4406,17.6761,17.5685,17.5703,17.6704,17.3879,17.1461,16.9547,16.6581,16.4196,16.2515,15.5175,0.0,0.0,0.0,0.0,0.0,0.0,0.0,0.0,0.0,0.0,0.0,0.0,0.0,0.0,0.0,0.0,0.0,0.0,0.0,0.0,14.5444,0.0,0.0,0.0,0.0,0.0,0.0,0.0,0.0,0.0,0.0,15.8397,16.1877,16.5803,16.8709,0.0,0.0,0.0,0.0,17.9229,17.8088,17.6627,17.5824,17.5956,17.7022,17.8323,17.9872,0.0,0.0,18.0267,18.0004,18.0267,18.0004,18.1493,18.1785,18.0135,17.8572,17.7285,17.5956,17.5824,17.6219,17.7693,18.0075,18.2706,0.0,0.0,0.0,0.0,0.0,0.0,0.0,0.0,0.0,13.0976,0.0,13.1554,0.0,0.0,0.0,0.0,0.0,0.0,0.0,0.0,15.0695,15.3677,15.5231,15.6388,15.569,0.0,15.2678,15.0245,0.0,0.0,0.0,0.0,0.0,0.0,0.0,0.0,16.3105,16.7852,17.0704,17.28,17.43,17.3974,17.3857,17.4023,17.3022,17.0594,16.6813,16.2464,15.9795,0.0,0.0,0.0,0.0,0.0,0.0,0.0,0.0,0.0,0.0,0.0,0.0,0.0,0.0,0.0,0.0,0.0,0.0,0.0,0.0,0.0,0.0,0.0,14.1134,0.0,0.0,0.0,0.0,0.0,0.0,0.0,0.0,0.0,15.0421,15.6194,16.165,16.4303,16.8854,17.2405,17.3747,0.0,0.0,0.0,0.0,0.0,0.0,0.0,17.6627,17.7928,17.7942,17.7797,17.8205,17.8966,17.8952,17.7111,0.0,0.0,17.3706,17.2273,17.1761,17.1221,17.1208,17.1602,17.309,17.4142,17.5471,0.0,0.0,0.0,0.0,0.0,0.0,0.0,0.0,0.0,12.3266,12.3706,0.0,0.0,0.0,0.0,0.0,0.0,0.0,0.0,0.0,0.0,0.0,14.7099,14.8262,0.0,0.0,0.0,0.0,0.0,0.0,0.0,0.0,0.0,0.0,0.0,0.0,15.8797,16.4252,16.7971,17.0647,17.2277,17.1946,17.1832,17.2021,17.1595,16.9156,16.4812,0.0,0.0,0.0,0.0,0.0,0.0,0.0,0.0,0.0,0.0,0.0,0.0,0.0,0.0,0.0,0.0,0.0,0.0,0.0,0.0,0.0,0.0,0.0,0.0,0.0,13.4225,0.0,0.0,0.0,0.0,0.0,0.0,0.0,0.0,0.0,0.0,0.0,15.5965,15.9793,16.396,16.7539,16.9906,17.0328,17.0985,0.0,0.0,0.0,0.0,0.0,0.0,0.0,0.0,0.0,0.0,0.0,0.0,0.0,0.0,17.2827,16.7013,16.5567,16.5304,16.5304,0.0,0.0,0.0,0.0,0.0,0.0,0.0,0.0,0.0,0.0,0.0,0.0,0.0,0.0,0.0,0.0,0.0,0.0,11.9176,0.0,0.0,0.0,0.0,0.0,0.0,0.0,0.0,0.0,0.0,0.0,0.0,0.0,0.0,0.0,0.0,0.0,0.0,0.0,0.0,0.0,0.0,15.325,15.9686,16.4554,16.8231,17.0712,16.9757,16.9757,17.0694,16.9281,16.6851,16.3368,0.0,0.0,0.0,0.0,0.0,0.0,0.0,0.0,0.0,0.0,0.0,0.0,0.0,0.0,0.0,0.0,0.0,0.0,0.0,0.0,0.0,0.0,0.0,0.0,0.0,0.0,12.7893,13.0532,13.2293,0.0,0.0,0.0,0.0,0.0,0.0,0.0,0.0,0.0,0.0,15.9699,16.2699,16.4226,16.4357,16.4646,16.462,16.2253,16.1346,16.4239,16.4489,16.4896,0.0,0.0,0.0,0.0,0.0,0.0,0.0,0.0,0.0,0.0,0.0,0.0,0.0,0.0,0.0,0.0,0.0,0.0,0.0,0.0,0.0,0.0,0.0,0.0,0.0,0.0,0.0,0.0,0.0,0.0,0.0,0.0,0.0,0.0,0.0,0.0,0.0,0.0,0.0,0.0,0.0,0.0,0.0,0.0,0.0,0.0,0.0,0.0,0.0,0.0,0.0,0.0,0.0,0.0,15.2872,15.8116,16.3832,16.7778,16.9623,16.9314,16.9314,16.9649,16.8089,16.5122,0.0,0.0,0.0,0.0,0.0,0.0,0.0,0.0,0.0,0.0,0.0,0.0,0.0,0.0,0.0,0.0,0.0,0.0,0.0,0.0,0.0,0.0,0.0,0.0,0.0,0.0,0.0,0.0,13.1086,13.1931,13.0402,0.0,0.0,0.0,0.0,0.0,0.0,0.0,0.0,0.0,0.0,15.9152,16.1133,16.1832,16.221,16.2869,16.1358,16.0413,16.1346,16.1464,16.1621,16.2016,0.0,0.0,0.0,0.0,0.0,0.0,0.0,0.0,0.0,0.0,0.0,0.0,0.0,0.0,0.0,0.0,0.0,0.0,0.0,0.0,0.0,0.0,0.0,0.0,0.0,0.0,0.0,0.0,0.0,0.0,0.0,0.0,0.0,0.0,0.0,0.0,0.0,0.0,0.0,0.0,0.0,0.0,0.0,0.0,0.0,0.0,0.0,0.0,0.0,0.0,0.0,0.0,0.0,15.0808,15.5682,16.2397,16.6678,16.8097,16.8802,16.8794,16.8248,16.7257,16.368,0.0,0.0,0.0,0.0,0.0,0.0,0.0,0.0,0.0,0.0,0.0,0.0,0.0,0.0,0.0,0.0,0.0,0.0,0.0,0.0,0.0,0.0,0.0,0.0,0.0,0.0,0.0,0.0,12.7805,12.8192,12.7262,0.0,0.0,0.0,0.0,0.0,0.0,0.0,0.0,0.0,0.0,15.4921,15.6849,15.8413,0.0,0.0,15.9141,15.8071,15.9123,15.886,15.8215,15.7031,15.69,0.0,0.0,0.0,0.0,0.0,0.0,0.0,0.0,0.0,0.0,0.0,0.0,0.0,0.0,0.0,0.0,0.0,0.0,0.0,0.0,0.0,0.0,0.0,0.0,0.0,0.0,0.0,0.0,0.0,0.0,0.0,0.0,0.0,0.0,0.0,0.0,0.0,0.0,0.0,0.0,0.0,0.0,0.0,0.0,0.0,0.0,0.0,0.0,0.0,0.0,0.0,0.0,0.0,15.2693,16.0399,16.5109,16.6838,16.8374,16.8382,16.6838,16.6552,16.2406,0.0,0.0,0.0,0.0,0.0,0.0,0.0,0.0,0.0,0.0,0.0,0.0,0.0,0.0,0.0,0.0,0.0,0.0,0.0,0.0,0.0,0.0,0.0,0.0,0.0,0.0,0.0,0.0,0.0,0.0,0.0,0.0,0.0,0.0,0.0,0.0,0.0,0.0,0.0,0.0,0.0,15.0461,15.2215,15.4716,15.6951,0.0,0.0,15.4257,15.7056,15.6373,15.4676,15.1926,0.0,0.0,0.0,0.0,0.0,0.0,0.0,0.0,0.0,0.0,0.0,0.0,0.0,0.0,0.0,0.0,0.0,0.0,0.0,0.0,0.0,0.0,0.0,0.0,0.0,0.0,0.0,0.0,0.0,0.0,0.0,0.0,0.0,0.0,0.0,0.0,0.0,0.0,0.0,0.0,0.0,0.0,0.0,0.0,0.0,0.0,0.0,0.0,0.0,0.0,0.0,0.0,0.0,0.0,15.0951,15.8663,16.4102,16.6703,16.8248,16.8382,16.6829,16.453,0.0,0.0,0.0,0.0,0.0,0.0,0.0,0.0,0.0,0.0,0.0,0.0,0.0,0.0,0.0,0.0,0.0,0.0,0.0,0.0,0.0,0.0,0.0,0.0,0.0,0.0,0.0,11.6976,0.0,0.0,0.0,0.0,0.0,0.0,0.0,0.0,0.0,0.0,0.0,0.0,0.0,0.0,14.8803,15.233,15.3524,15.4058,0.0,0.0,14.9403,15.1388,15.2189,15.2057,0.0,0.0,0.0,0.0,0.0,0.0,0.0,0.0,0.0,0.0,0.0,0.0,0.0,0.0,0.0,0.0,0.0,0.0,0.0,0.0,0.0,0.0,0.0,0.0,0.0,0.0,0.0,0.0,0.0,0.0,0.0,0.0,0.0,0.0,0.0,0.0,0.0,0.0,0.0,0.0,0.0,0.0,0.0,0.0,0.0,0.0,0.0,0.0,0.0,0.0,0.0,0.0,0.0,0.0,14.3282,14.9246,15.5682,16.097,16.4681,16.6234,16.5965,16.3841,16.1969,15.689,0.0,0.0,0.0,0.0,0.0,0.0,0.0,0.0,0.0,0.0,0.0,0.0,0.0,0.0,0.0,0.0,0.0,0.0,0.0,0.0,0.0,0.0,0.0,0.0,0.0,0.0,0.0,0.0,0.0,0.0,0.0,0.0,0.0,0.0,0.0,0.0,0.0,0.0,0.0,0.0,0.0,0.0,14.802,14.9481,0.0,0.0,0.0,14.7705,14.9272,0.0,0.0,0.0,0.0,0.0,0.0,0.0,0.0,0.0,0.0,0.0,0.0,0.0,0.0,0.0,0.0,0.0,0.0,0.0,0.0,0.0,0.0,0.0,0.0,0.0,0.0,0.0,0.0,0.0,0.0,0.0,0.0,0.0,0.0,0.0,0.0,0.0,0.0,0.0,0.0,0.0,0.0,0.0,0.0,0.0,0.0,0.0,0.0,0.0,0.0,0.0,0.0,0.0,0.0,0.0,0.0,0.0,14.7278,15.2431,15.7275,16.1366,16.3237,16.2675,15.9702,15.9123,15.4545,0.0,0.0,0.0,0.0,0.0,0.0,0.0,0.0,0.0,0.0,0.0,0.0,0.0,0.0,0.0,0.0,0.0,0.0,0.0,0.0,0.0,0.0,0.0,0.0,0.0,0.0,0.0,0.0,0.0,0.0,0.0,0.0,0.0,0.0,0.0,0.0,0.0,0.0,0.0,0.0,0.0,14.1853,14.2083,14.4565,14.6403,0.0,0.0,14.6904,14.8076,14.7156,0.0,0.0,0.0,0.0,0.0,0.0,0.0,0.0,0.0,0.0,0.0,0.0,0.0,0.0,0.0,0.0,0.0,0.0,0.0,0.0,0.0,0.0,0.0,0.0,0.0,0.0,0.0,0.0,0.0,0.0,0.0,0.0,0.0,0.0,0.0,0.0,0.0,0.0,0.0,0.0,0.0,0.0,0.0,0.0,0.0,0.0,0.0,0.0,0.0,0.0,0.0,0.0,0.0,0.0,0.0,0.0,14.4281,15.1439,15.6141,15.8386,16.1097,16.1097,15.7958,15.5555,15.0747,0.0,0.0,0.0,0.0,0.0,0.0,0.0,0.0,0.0,0.0,0.0,0.0,0.0,0.0,0.0,0.0,0.0,0.0,0.0,0.0,0.0,0.0,0.0,0.0,0.0,0.0,0.0,0.0,0.0,0.0,0.0,0.0,0.0,0.0,0.0,0.0,0.0,0.0,0.0,0.0,0.0,13.7033,14.1583,14.3811,0.0,0.0,0.0,0.0,14.0964,14.1501,0.0,0.0,0.0,0.0,0.0,0.0,0.0,0.0,0.0,0.0,0.0,0.0,0.0,0.0,0.0,0.0,0.0,0.0,0.0,0.0,0.0,0.0,0.0,0.0,0.0,0.0,0.0,0.0,0.0,0.0,0.0,0.0,0.0,0.0,0.0,0.0,0.0,0.0,0.0,0.0,0.0,0.0,0.0,0.0,0.0,0.0,0.0,0.0,0.0,0.0,0.0,0.0,0.0,0.0,0.0,0.0,14.4131,14.8405,15.2408,15.6126,15.726,15.6388,15.3955,15.0966,14.6269,0.0,0.0,0.0,0.0,0.0,0.0,0.0,0.0,0.0,0.0,0.0,0.0,0.0,0.0,0.0,0.0,0.0,0.0,0.0,0.0,0.0,0.0,0.0,0.0,0.0,0.0,0.0,0.0,0.0,0.0,0.0,0.0,0.0,0.0,0.0,0.0,0.0,0.0,0.0,0.0,12.9476,13.2985,13.7151,0.0,0.0,0.0,0.0,0.0,0.0,13.7435,13.6777,0.0,0.0,0.0,0.0,0.0,0.0,0.0,0.0,0.0,0.0,0.0,0.0,0.0,0.0,0.0,0.0,0.0,0.0,0.0,0.0,0.0,0.0,0.0,0.0,0.0,0.0,0.0,0.0,0.0,0.0,0.0,0.0,0.0,0.0,0.0,0.0,0.0,0.0,0.0,0.0,0.0,0.0,0.0,0.0,0.0,0.0,0.0,0.0,0.0,0.0,0.0,0.0,0.0,0.0,0.0,14.3967,14.483,14.7969,15.343,15.2558,15.1116,14.9517,14.6678,14.2105,13.5773,0.0,0.0,0.0,0.0,0.0,0.0,0.0,0.0,0.0,0.0,0.0,0.0,0.0,0.0,0.0,0.0,0.0,0.0,0.0,0.0,0.0,0.0,0.0,0.0,0.0,0.0,0.0,0.0,0.0,0.0,0.0,0.0,0.0,0.0,0.0,0.0,0.0,0.0,0.0,12.526,12.8406,0.0,0.0,0.0,0.0,0.0,0.0,0.0,0.0,13.2306,0.0,0.0,0.0,0.0,0.0,0.0,0.0,0.0,0.0,0.0,0.0,0.0,0.0,0.0,0.0,0.0,0.0,0.0,0.0,0.0,0.0,0.0,0.0,0.0,0.0,0.0,0.0,0.0,0.0,0.0,0.0,0.0,0.0,0.0,0.0,0.0,0.0,0.0,0.0,0.0,0.0,0.0,0.0,0.0,0.0,0.0,0.0,0.0,0.0,0.0,0.0,0.0,0.0,0.0,0.0,0.0,14.1569,14.4709,14.6971,14.8127,14.7969,14.6385,14.4552,14.0038,13.224,0.0,0.0,0.0,0.0,0.0,0.0,0.0,0.0,0.0,0.0,0.0,0.0,0.0,0.0,0.0,0.0,0.0,0.0,0.0,0.0,0.0,0.0,0.0,0.0,0.0,0.0,0.0,0.0,0.0,0.0,0.0,0.0,0.0,0.0,0.0,0.0,0.0,0.0,11.4249,11.8241,0.0,0.0,0.0,0.0,0.0,0.0,0.0,0.0,12.9008,0.0,0.0,0.0,0.0,0.0,0.0,0.0,0.0,0.0,0.0,0.0,0.0,0.0,0.0,0.0,0.0,0.0,0.0,0.0,0.0,0.0,0.0,0.0,0.0,0.0,0.0,0.0,0.0,0.0,0.0,0.0,0.0,0.0,0.0,0.0,0.0,0.0,0.0,0.0,0.0,0.0,0.0,0.0,0.0,0.0,0.0,0.0,0.0,0.0,0.0,0.0,0.0,0.0,0.0,0.0,0.0,0.0,0.0,14.2405,14.5394,14.5558,14.513,14.4267,14.0421,13.5793,0.0,0.0,0.0,0.0,0.0,0.0,0.0,0.0,0.0,0.0,0.0,0.0,0.0,0.0,0.0,0.0,0.0,0.0,0.0,0.0,0.0,0.0,0.0,0.0,0.0,0.0,0.0,0.0,0.0,0.0,0.0,0.0,0.0,0.0,0.0,0.0,0.0,0.0,0.0,0.0,0.0,0.0,0.0,0.0,0.0,0.0,0.0,0.0,0.0,0.0,0.0,0.0,0.0,0.0,0.0,0.0,0.0,0.0,0.0,0.0,0.0,0.0,0.0,0.0,0.0,0.0,0.0,0.0,0.0,0.0,0.0,0.0,0.0,0.0,0.0,0.0,0.0,0.0,0.0,0.0,0.0,0.0,0.0,0.0,0.0,0.0,0.0,0.0,0.0,0.0,0.0,0.0,0.0,0.0,0.0,0.0,0.0,0.0,0.0,0.0,0.0,0.0,0.0,0.0,0.0,0.0,0.0,0.0,14.0115,14.396,14.2568,14.1712,14.1719,13.6276,13.1968,0.0,0.0,0.0,0.0,0.0,0.0,0.0,0.0,0.0,0.0,0.0,0.0,0.0,0.0,0.0,0.0,0.0,0.0,0.0,0.0,0.0,0.0,0.0,0.0,0.0,0.0,0.0,0.0,0.0,0.0,0.0,0.0,0.0,0.0,0.0,0.0,0.0,0.0,0.0,0.0,0.0,0.0,0.0,0.0,0.0,0.0,0.0,0.0,12.1502,0.0,0.0,0.0,0.0,0.0,0.0,0.0,0.0,0.0,0.0,0.0,0.0,0.0,0.0,0.0,0.0,0.0,0.0,0.0,0.0,0.0,0.0,0.0,0.0,0.0,0.0,0.0,0.0,0.0,0.0,0.0,0.0,0.0,0.0,0.0,0.0,0.0,0.0,0.0,0.0,0.0,0.0,0.0,0.0,0.0,0.0,0.0,0.0,0.0,0.0,0.0,0.0,0.0,0.0,0.0,0.0,0.0,0.0,0.0,13.7417,13.9252,13.7845,13.7003,13.6867,13.3727,13.0347,0.0,0.0,0.0,0.0,0.0,0.0,0.0,0.0,0.0,0.0,0.0,0.0,0.0,0.0,0.0,0.0,0.0,0.0,0.0,0.0,0.0,0.0,0.0,0.0,0.0,0.0,0.0,0.0,0.0,0.0,0.0,0.0,0.0,0.0,0.0,0.0,0.0,0.0,0.0,0.0,0.0,0.0,0.0,0.0,0.0,0.0,0.0,0.0,0.0,0.0,0.0,0.0,0.0,0.0,0.0,0.0,0.0,0.0,0.0,0.0,0.0,0.0,0.0,0.0,0.0,0.0,0.0,0.0,0.0,0.0,0.0,0.0,0.0,0.0,0.0,0.0,0.0,0.0,0.0,0.0,0.0,0.0,0.0,0.0,0.0,0.0,0.0,0.0,0.0,0.0,0.0,0.0,0.0,0.0,0.0,0.0,0.0,0.0,0.0,0.0,0.0,0.0,0.0,0.0,0.0,0.0,0.0,0.0,13.3428,13.5834,13.614,13.5005,13.2293,13.001,12.7314,0.0,0.0,0.0,0.0,0.0,0.0,0.0,0.0,0.0,0.0,0.0,0.0,0.0,0.0,0.0,0.0,0.0,0.0,0.0,0.0,0.0,0.0,0.0,0.0,0.0,0.0,0.0,0.0,0.0,0.0,0.0,0.0,0.0,0.0,0.0,0.0,0.0,0.0,0.0,0.0,0.0,0.0,0.0,0.0,0.0,0.0,0.0,0.0,0.0,0.0,0.0,0.0,0.0,0.0,0.0,0.0,0.0,0.0,0.0,0.0,0.0,0.0,0.0,0.0,0.0,0.0,0.0,0.0,0.0,0.0,0.0,0.0,0.0,0.0,0.0,0.0,0.0,0.0,0.0,0.0,0.0,0.0,0.0,0.0,0.0,0.0,0.0,0.0,0.0,0.0,0.0,0.0,0.0,0.0,0.0,0.0,0.0,0.0,0.0,0.0,0.0,0.0,0.0,0.0,0.0,0.0,0.0,0.0,0.0,13.2552,13.3422,13.2151,12.8855,12.6709,12.406,0.0,0.0,0.0,0.0,0.0,0.0,0.0,0.0,0.0,0.0,0.0,0.0,0.0,0.0,0.0,0.0,0.0,0.0,0.0,0.0,0.0,0.0,0.0,0.0,0.0,0.0,0.0,0.0,0.0,0.0,0.0,0.0,0.0,0.0,0.0,0.0,0.0,0.0,0.0,0.0,0.0,0.0,0.0,0.0,0.0,0.0,0.0,0.0,0.0,0.0,0.0,0.0,0.0,0.0,0.0,0.0,0.0,0.0,0.0,0.0,0.0,0.0,0.0,0.0,0.0,0.0,0.0,0.0,0.0,0.0,0.0,0.0,0.0,0.0,0.0,0.0,0.0,0.0,0.0,0.0,0.0,0.0,0.0,0.0,0.0,0.0,0.0,0.0,0.0,0.0,0.0,0.0,0.0,0.0,0.0,0.0,0.0,0.0,0.0,0.0,0.0,0.0,0.0,0.0,0.0,0.0,0.0,0.0,0.0,12.9575,12.8136,12.7279,12.6981,12.3991,12.084,0.0,0.0,0.0,0.0,0.0,0.0,0.0,0.0,0.0,0.0,0.0,0.0,0.0,0.0,0.0,0.0,0.0,0.0,0.0,0.0,0.0,0.0,0.0,0.0,0.0,0.0,0.0,0.0,0.0,0.0,0.0,0.0,0.0,0.0,0.0,0.0,0.0,0.0,0.0,0.0,0.0,0.0,0.0,0.0,0.0,0.0,0.0,0.0,0.0,0.0,0.0,0.0,0.0,0.0,0.0,0.0,0.0,0.0,0.0,0.0,0.0,0.0,0.0,0.0,0.0,0.0,0.0,0.0,0.0,0.0,0.0,0.0,0.0,0.0,0.0,0.0,0.0,0.0,0.0,0.0,0.0,0.0,0.0,0.0,0.0,0.0,0.0,0.0,0.0,0.0,0.0,0.0,0.0,0.0,0.0,0.0,0.0,0.0,0.0,0.0,0.0,0.0,0.0,0.0,0.0,0.0,0.0,0.0,0.0,12.2006,12.2155,12.2862,12.3849,12.1714,11.9437,11.7002,0.0,0.0,0.0,0.0,0.0,0.0,0.0,0.0,0.0,0.0,0.0,0.0,0.0,0.0,0.0,0.0,0.0,0.0,0.0,0.0,0.0,0.0,0.0,0.0,0.0,0.0,0.0,0.0,0.0,0.0,0.0,0.0,0.0,0.0,0.0,0.0,0.0,0.0,0.0,0.0,0.0,0.0,0.0,0.0,0.0,0.0,0.0,0.0,0.0,0.0,0.0,0.0,0.0,0.0,0.0,0.0,0.0,0.0,0.0,0.0,0.0,0.0,0.0,0.0,0.0,0.0,0.0,0.0,0.0,0.0,0.0,0.0,0.0,0.0,0.0,0.0,0.0,0.0,0.0,0.0,0.0,0.0,0.0,0.0,0.0,0.0,0.0,0.0,0.0,0.0,0.0,0.0,0.0,0.0,0.0,0.0,0.0,0.0,0.0,0.0,0.0,0.0,0.0,0.0,0.0,0.0,0.0,0.0,11.744,11.8439,11.9574,12.0561,11.958,11.7721,0.0,0.0,0.0,0.0,0.0,0.0,0.0,0.0,0.0,0.0,0.0,0.0,0.0,0.0,0.0,0.0,0.0,0.0,0.0,0.0,0.0,0.0,0.0,0.0,0.0,0.0,0.0,0.0,0.0,0.0,0.0,0.0,0.0,0.0,0.0,0.0,0.0,0.0,0.0,0.0,0.0,0.0,0.0,0.0,0.0,0.0,0.0,0.0,0.0,0.0,0.0,0.0,0.0,0.0,0.0,0.0,0.0,0.0,0.0,0.0,0.0,0.0,0.0,0.0,0.0,0.0,0.0,0.0,0.0,0.0,0.0,0.0,0.0,0.0,0.0,0.0,0.0,0.0,0.0,0.0,0.0,0.0,0.0,0.0,0.0,0.0,0.0,0.0,0.0,0.0,0.0,0.0,0.0,0.0,0.0,0.0,0.0,0.0,0.0,0.0,0.0,0.0,0.0,0.0,0.0,0.0,0.0,0.0,11.43,11.7148,11.7297,11.7434,11.744,11.7434,11.5276,0.0,0.0,0.0,0.0,0.0,0.0,0.0,0.0,0.0,0.0,0.0,0.0,0.0,0.0,0.0,0.0,0.0,0.0,0.0,0.0,0.0,0.0,0.0,0.0,0.0,0.0,0.0,0.0,0.0,0.0,0.0,0.0,0.0,0.0,0.0,0.0,0.0,0.0,0.0,0.0,0.0,0.0,0.0,0.0,0.0,0.0,0.0,0.0,0.0,0.0,0.0,0.0,0.0,0.0,0.0,0.0,0.0,0.0,0.0,0.0,0.0,0.0,0.0,0.0,0.0,0.0,0.0,0.0,0.0,0.0,0.0,0.0,0.0,0.0,0.0,0.0,0.0,0.0,0.0,0.0,0.0,0.0,0.0,0.0,0.0,0.0,0.0,0.0,0.0,0.0,0.0,0.0,0.0,0.0,0.0,0.0,0.0,0.0,0.0,0.0,0.0,0.0,0.0,0.0,0.0,0.0,0.0,0.0,0.0,11.2582,0.0,11.5727,0.0,11.4745,11.2579,0.0,0.0,0.0,0.0,0.0,0.0,0.0,0.0,0.0,0.0,0.0,0.0,0.0,0.0,0.0,0.0,0.0,0.0,0.0,0.0,0.0,0.0,0.0,0.0,0.0,0.0,0.0,0.0,0.0,0.0,0.0,0.0,0.0,0.0,0.0,0.0,0.0,0.0,0.0,0.0,0.0,0.0,0.0,0.0,0.0,0.0,0.0,0.0,0.0,0.0,0.0,0.0,0.0,0.0,0.0,0.0,0.0,0.0,0.0,0.0,0.0,0.0,0.0,0.0,0.0,0.0,0.0,0.0,0.0,0.0,0.0,0.0,0.0,0.0,0.0,0.0,0.0,0.0,0.0,0.0,0.0,0.0,0.0,0.0,0.0,0.0,0.0,0.0,0.0,0.0,0.0,0.0,0.0,0.0,0.0,0.0,0.0,0.0,0.0,0.0,0.0,0.0,0.0,0.0,0.0,0.0,0.0,0.0,0.0,10.9449,11.0607,11.261,11.5316,11.3171,11.1554,0.0,0.0,0.0,0.0,0.0,0.0,0.0,0.0,0.0,0.0,0.0,0.0,0.0,0.0,0.0,0.0,0.0,0.0,0.0,0.0,0.0,0.0,0.0,0.0,0.0,0.0,0.0,0.0,0.0,0.0,0.0,0.0,0.0,0.0,0.0,0.0,0.0,0.0,0.0,0.0,0.0,0.0,0.0,0.0,0.0,0.0,0.0,0.0,0.0,0.0,0.0,0.0,0.0,0.0,0.0,0.0,0.0,0.0,0.0,0.0,0.0,0.0,0.0,0.0,0.0,0.0,0.0,0.0,0.0,0.0,0.0,0.0,0.0,0.0,0.0,0.0,0.0,0.0,0.0,0.0,0.0,0.0,0.0,0.0,0.0,0.0,0.0,0.0,0.0,0.0,0.0,0.0,0.0,0.0,0.0,0.0,0.0,0.0,0.0,0.0,0.0,0.0,0.0,0.0,0.0,0.0,0.0,0.0,0.0,0.0,10.8048,10.8054,10.8329,11.228,11.1724,0.0,0.0,0.0,0.0,0.0,0.0,0.0,0.0,0.0,0.0,0.0,0.0,0.0,0.0,0.0,0.0,0.0,0.0,0.0,0.0,0.0,0.0,0.0,0.0,0.0,0.0,0.0,0.0,0.0,0.0,0.0,0.0,0.0,0.0,0.0,0.0,0.0,0.0,0.0,0.0,0.0,0.0,0.0,0.0,0.0,0.0,0.0,0.0,0.0,0.0,0.0,0.0,0.0,0.0,0.0,0.0,0.0,0.0,0.0,0.0,0.0,0.0,0.0,0.0,0.0,0.0,0.0,0.0,0.0,0.0,0.0,0.0,0.0,0.0,0.0,0.0,0.0,0.0,0.0,0.0,0.0,0.0,0.0,0.0,0.0,0.0,0.0,0.0,0.0,0.0,0.0,0.0,0.0,0.0,0.0,0.0,0.0,0.0,0.0,0.0,0.0,0.0,0.0,0.0,0.0,0.0,0.0,0.0,0.0,0.0,10.7472,0.0,10.8032,10.786,10.7498,10.6846,0.0,0.0,0.0,0.0,0.0,0.0,0.0,0.0,0.0,0.0,0.0,0.0,0.0,0.0,0.0,0.0,0.0,0.0,0.0,0.0,0.0,0.0,0.0,0.0,0.0,0.0,0.0,0.0,0.0,0.0,0.0,0.0,0.0,0.0,0.0,0.0,0.0,0.0,0.0,0.0,0.0,0.0,0.0,0.0,0.0,0.0,0.0,0.0,0.0,0.0,0.0,0.0,0.0,0.0,0.0,0.0,0.0,0.0,0.0,0.0,0.0,0.0,0.0,0.0,0.0,0.0,0.0,0.0,0.0,0.0,0.0,0.0,0.0,0.0,0.0,0.0,0.0,0.0,0.0,0.0,0.0,0.0,0.0,0.0,0.0,0.0,0.0,0.0,0.0,0.0,0.0,0.0,0.0,0.0,0.0,0.0,0.0,0.0,0.0,0.0,0.0,0.0,0.0,0.0,0.0,0.0,0.0,0.0,0.0,0.0,0.0,10.6182,10.4915,10.4728,0.0,0.0,0.0,0.0,0.0,0.0,0.0,0.0,0.0,0.0,0.0,0.0,0.0,0.0,0.0,0.0,0.0,0.0,0.0,0.0,0.0,0.0,0.0,0.0,0.0,0.0,0.0,0.0,0.0,0.0,0.0,0.0,0.0,0.0,0.0,0.0,0.0,0.0,0.0,0.0,0.0,0.0,0.0,0.0,0.0,0.0,0.0,0.0,0.0,0.0,0.0,0.0,0.0,0.0,0.0,0.0,0.0,0.0,0.0,0.0,0.0,0.0,0.0,0.0,0.0,0.0,0.0,0.0,0.0,0.0,0.0,0.0,0.0,0.0,0.0,0.0,0.0,0.0,0.0,0.0,0.0,0.0,0.0,0.0,0.0,0.0,0.0,0.0,0.0,0.0,0.0,0.0,0.0,0.0,0.0,0.0,0.0,0.0,0.0,0.0,0.0,0.0,0.0,0.0,0.0,0.0,0.0,0.0,0.0,0.0,0.0,10.343,10.343,10.343,0.0,10.3138,0.0,0.0,0.0,0.0,0.0,0.0,0.0,0.0,0.0,0.0,0.0,0.0,0.0,0.0,0.0,0.0,0.0,0.0,0.0,0.0,0.0,0.0,0.0,0.0,0.0,0.0,0.0,0.0,0.0,0.0,0.0,0.0,0.0,0.0,0.0,0.0,0.0,0.0,0.0,0.0,0.0,0.0,0.0,0.0,0.0,0.0,0.0,0.0,0.0,0.0,0.0,0.0,0.0,0.0,0.0,0.0,0.0,0.0,0.0,0.0,0.0,0.0,0.0,0.0,0.0,0.0,0.0,0.0,0.0,0.0,0.0,0.0,0.0,0.0,0.0,0.0,0.0,0.0,0.0,0.0,0.0,0.0,0.0,0.0,0.0,0.0,0.0,0.0,0.0,0.0,0.0,0.0,0.0,0.0,0.0,0.0,0.0,0.0,0.0,0.0,0.0,0.0,0.0,0.0,0.0,0.0,0.0,0.0,0.0,0.0,0.0,0.0,10.343,10.3352,10.3001,0.0,0.0,0.0,0.0,0.0,0.0,0.0,0.0,0.0,0.0,0.0,0.0,0.0,0.0,0.0,0.0,0.0,0.0,0.0,0.0,0.0,0.0,0.0,0.0,0.0,0.0,0.0,0.0,0.0,0.0,0.0,0.0,0.0,0.0,0.0,0.0,0.0,0.0,0.0,0.0,0.0,0.0,0.0,0.0,0.0,0.0,0.0,0.0,0.0,0.0,0.0,0.0,0.0,0.0,0.0,0.0,0.0,0.0,0.0,0.0,0.0,0.0,0.0,0.0,0.0,0.0,0.0,0.0,0.0,0.0,0.0,0.0,0.0,0.0,0.0,0.0,0.0,0.0,0.0,0.0,0.0,0.0,0.0,0.0,0.0,0.0,0.0,0.0,0.0,0.0,0.0,0.0,0.0,0.0,0.0,0.0,0.0,0.0,0.0,0.0,0.0,0.0,0.0,0.0,0.0,0.0,0.0,0.0,0.0,0.0,10.343,10.343,10.343,10.3347,10.3007,0.0,0.0,0.0,0.0,0.0,0.0,0.0,0.0,0.0,0.0,0.0,0.0,0.0,0.0,0.0,0.0,0.0,0.0,0.0,0.0,0.0,0.0,0.0,0.0,0.0,0.0,0.0,0.0,0.0,0.0,0.0,0.0,0.0,0.0,0.0,0.0,0.0,0.0,0.0,0.0,0.0,0.0,0.0,0.0,0.0,0.0,0.0,0.0,0.0,0.0,0.0,0.0,0.0,0.0,0.0,0.0,0.0,0.0,0.0,0.0,0.0,0.0,0.0,0.0,0.0,0.0,0.0,0.0,0.0,0.0,0.0,0.0,0.0,0.0,0.0,0.0,0.0,0.0,0.0,0.0,0.0,0.0,0.0,0.0,0.0,0.0,0.0,0.0,0.0,0.0,0.0,0.0,0.0,0.0,0.0,0.0,0.0,0.0,0.0,0.0,0.0,0.0,0.0,0.0,0.0,0.0,0.0,0.0,0.0,0.0,0.0,0.0,0.0,0.0,10.2479,0.0,0.0,0.0,0.0,0.0,0.0,0.0,0.0,0.0,0.0,0.0,0.0,0.0,0.0,0.0,0.0,0.0,0.0,0.0,0.0,0.0,0.0,0.0,0.0,0.0,0.0,0.0,0.0,0.0,0.0,0.0,0.0,0.0,0.0,0.0,0.0,0.0,0.0,0.0,0.0,0.0,0.0,0.0,0.0,0.0,0.0,0.0,0.0,0.0,0.0,0.0,0.0,0.0,0.0,0.0,0.0,0.0,0.0,0.0,0.0,0.0,0.0,0.0,0.0,0.0,0.0,0.0,0.0,0.0,0.0,0.0,0.0,0.0,0.0,0.0,0.0,0.0,0.0,0.0,0.0,0.0,0.0,0.0,0.0,0.0,0.0,0.0,0.0,0.0,0.0,0.0,0.0,0.0,0.0,0.0,0.0,0.0,0.0,0.0,0.0,0.0,0.0,0.0,0.0,0.0,0.0,0.0,0.0,0.0,0.0,0.0,0.0,0.0,0.0,0.0,0.0,0.0,0.0,0.0,0.0,0.0,0.0,0.0,0.0,0.0,0.0,0.0,0.0,0.0,0.0,0.0,0.0,0.0,0.0,0.0,0.0,0.0,0.0,0.0,0.0,0.0,0.0,0.0,0.0,0.0,0.0,0.0,0.0,0.0,0.0,0.0,0.0,0.0,0.0,0.0,0.0,0.0,0.0,0.0,0.0,0.0,0.0,0.0,0.0,0.0,0.0,0.0,0.0,0.0,0.0,0.0,0.0,0.0,0.0,0.0,0.0,0.0,0.0,0.0,0.0,0.0,0.0,0.0,0.0,0.0,0.0,0.0,0.0,0.0,0.0,0.0,0.0,0.0,0.0,0.0,0.0,0.0,0.0,0.0,0.0,0.0,0.0,0.0,0.0,0.0,0.0,0.0,0.0,0.0,0.0,0.0,0.0,0.0,0.0,0.0,0.0,0.0,0.0,0.0,0.0,0.0,0.0,0.0,0.0,0.0,0.0,0.0,0.0,0.0,0.0,0.0,0.0,0.0,0.0,0.0,0.0,0.0,0.0,0.0,0.0,0.0,0.0,0.0,0.0,0.0,0.0,0.0,0.0,0.0,0.0,0.0,0.0,0.0,0.0,0.0,0.0,0.0,0.0,0.0,0.0,0.0,0.0,0.0,0.0,0.0,0.0,0.0,0.0,0.0,0.0,0.0,0.0,0.0,0.0,0.0,0.0,0.0,0.0,0.0,0.0,0.0,0.0,0.0,0.0,0.0,0.0,0.0,0.0,0.0,0.0,0.0,0.0,0.0,0.0,0.0,0.0,0.0,0.0,0.0,0.0,0.0,0.0,0.0,0.0,0.0,0.0,0.0,0.0,0.0,0.0,0.0,0.0,0.0,0.0,0.0,0.0,0.0,0.0,0.0,0.0,0.0,0.0,0.0,0.0,0.0,0.0,0.0,0.0,0.0,0.0,0.0,0.0,0.0,0.0,0.0,0.0,0.0,0.0,0.0,0.0,0.0,0.0,0.0,0.0,0.0,0.0,0.0,0.0,0.0,0.0,0.0,0.0,0.0,0.0,0.0,0.0,0.0,0.0,0.0,0.0,0.0,0.0,0.0,0.0,0.0,0.0,0.0,0.0,0.0,0.0,0.0,0.0,0.0,0.0,0.0,0.0,0.0,0.0,0.0,0.0,0.0,0.0,0.0,0.0,0.0,0.0,0.0,0.0,0.0,0.0,0.0,0.0,0.0,0.0,0.0,0.0,0.0,0.0,0.0,0.0,0.0,0.0,0.0,0.0,0.0,0.0,0.0,0.0,0.0,0.0,0.0,0.0,0.0,0.0,0.0,0.0,0.0,0.0,0.0,0.0,0.0,0.0,0.0,0.0,0.0,0.0,0.0,0.0,0.0,0.0,0.0,0.0,0.0,0.0,0.0,0.0,0.0,0.0,0.0,0.0,0.0,0.0,0.0,0.0,0.0,0.0,0.0,0.0,0.0,0.0,0.0,0.0,0.0,0.0,0.0,0.0,0.0,0.0,0.0,0.0,0.0,0.0,0.0,0.0,0.0,0.0,0.0,0.0,0.0,0.0,0.0,0.0,0.0,0.0,0.0,0.0,0.0,0.0,0.0,0.0,0.0,0.0,0.0,0.0,0.0,0.0,0.0,0.0,0.0,0.0,0.0,0.0,0.0,0.0,0.0,0.0,0.0,0.0,0.0,0.0,0.0,0.0,0.0,0.0,0.0,0.0,0.0,0.0,0.0,0.0,0.0,0.0,0.0,0.0,0.0,0.0,0.0,0.0,0.0,0.0,0.0,0.0,0.0,0.0,0.0,0.0,0.0,0.0,0.0,0.0,0.0,0.0,0.0,0.0,0.0,0.0,0.0,0.0,0.0,0.0,0.0,0.0,0.0,0.0,0.0,0.0,0.0,0.0,0.0,0.0,0.0,0.0,0.0,0.0,0.0,0.0,0.0,0.0,0.0,0.0,0.0,0.0,0.0,0.0,0.0,0.0,0.0,0.0,0.0,0.0,0.0,0.0,0.0,0.0,0.0,0.0,0.0,0.0,0.0,0.0,0.0,0.0,0.0,0.0,0.0,0.0,0.0,0.0,0.0,0.0,0.0,0.0,0.0,0.0,0.0,0.0,0.0,0.0,0.0,0.0,0.0,0.0,0.0,0.0,0.0,0.0,0.0,0.0,0.0,0.0,0.0,0.0,0.0,0.0,0.0,0.0,0.0,0.0,0.0,0.0,0.0,0.0,0.0,0.0,0.0,0.0,0.0,0.0,0.0,0.0,0.0,0.0,0.0,0.0,0.0,0.0,0.0,0.0,0.0,0.0,0.0,0.0,0.0,0.0,0.0,0.0,0.0,0.0,0.0,0.0,0.0,0.0,0.0,0.0,0.0,0.0,0.0,0.0,0.0,0.0,0.0,0.0,0.0,0.0,0.0,0.0,0.0,0.0,0.0,0.0,0.0,0.0,0.0,0.0,0.0,0.0,0.0,0.0,0.0,0.0,0.0,0.0,0.0,0.0,0.0,0.0,0.0,0.0,0.0,0.0,0.0,0.0,0.0,0.0,0.0,0.0,0.0,0.0,0.0,0.0,0.0,0.0,0.0,0.0,0.0,0.0,0.0,0.0,0.0,0.0,0.0,0.0,0.0,0.0,0.0,0.0,0.0,0.0,0.0,0.0,0.0,0.0,0.0,0.0,0.0,0.0,0.0,0.0,0.0,0.0,0.0,0.0,0.0,0.0,0.0,0.0,0.0,0.0,0.0,0.0,0.0,0.0,0.0,0.0,0.0,0.0,0.0,0.0,0.0,0.0,0.0,0.0,0.0,0.0,0.0,0.0,0.0,0.0,0.0,0.0,0.0,0.0,0.0,0.0,0.0,0.0,0.0,0.0,0.0,0.0,0.0,0.0,0.0,0.0,0.0,0.0,0.0,0.0,0.0,0.0,0.0,0.0,0.0,0.0,0.0,0.0,0.0,0.0,0.0,0.0,0.0,0.0,0.0,0.0,0.0,0.0,0.0,0.0,0.0,0.0,0.0,0.0,0.0,0.0,0.0,0.0,0.0,0.0,0.0,0.0,0.0,0.0,0.0,0.0,0.0,0.0,0.0,0.0,0.0,0.0,0.0,0.0,0.0,0.0,0.0,0.0,0.0,0.0,0.0,0.0,0.0,0.0,0.0,0.0,0.0,0.0,0.0,0.0,0.0,0.0,0.0,0.0,0.0,0.0,0.0,0.0,0.0,0.0,0.0,0.0,0.0,0.0,0.0,0.0,0.0,0.0,0.0,0.0,0.0,0.0,0.0,0.0,0.0,0.0,0.0,0.0,0.0,0.0,0.0,0.0,0.0,0.0,0.0,0.0,0.0,0.0,0.0,0.0,0.0,0.0,0.0,0.0,0.0,0.0,0.0,0.0,0.0,0.0,0.0,0.0,0.0,0.0,0.0,0.0,0.0,0.0,0.0,0.0,0.0,0.0,0.0,0.0,0.0,0.0,0.0,0.0,0.0,0.0,0.0,0.0,0.0,0.0,0.0,0.0,0.0,0.0,0.0,0.0,0.0,0.0,0.0,0.0,0.0,0.0,0.0,0.0,0.0,0.0,0.0,0.0,0.0,0.0,0.0,0.0,0.0,0.0,0.0,0.0,0.0,0.0,0.0,0.0,0.0,0.0,0.0,0.0,0.0,0.0,0.0,0.0,0.0,0.0,0.0,0.0,0.0,0.0,0.0,0.0,0.0,0.0,0.0,0.0,0.0,0.0,0.0,0.0,0.0,0.0,0.0,0.0,0.0,0.0,0.0,0.0,0.0,0.0,0.0,0.0,0.0,0.0,0.0,0.0,0.0,0.0,0.0,0.0,0.0,0.0]}],[{"header":{"parameterUnit":"kt","parameterCategory":2,"dx":1,"dy":1,"la1":29.587661999999998,"la2":31.0,"lo1":-88.76705300000003,"lo2":-86.6583820000003,"nx":115,"ny":88,"refTime":"2022-09-26T18:00:00:Z","depth":0,"parameterNumber":2,"parameterNumberName":"V-component_of_WINDS"},"data":[9.0225,9.0676,9.1332,9.1927,9.2615,9.3247,9.3557,9.3791,9.4246,9.4303,9.4385,9.5491,9.6117,9.5971,9.4613,9.4865,9.6223,9.6313,9.6369,9.654,9.7166,9.7337,9.7426,9.7426,9.7426,9.7426,9.7426,9.7426,9.7426,9.7426,9.7426,9.7426,9.7426,9.7426,9.7426,9.745,9.7678,9.8052,9.8451,9.8849,9.9679,9.985,9.9998,10.0419,10.075,10.0886,10.1114,10.1114,10.1114,10.2853,10.6424,10.9728,11.301,11.6076,11.8134,11.9297,11.9863,12.0562,12.1294,12.1926,12.2491,12.2624,12.2823,12.3294,12.4965,12.5739,12.8195,13.0794,13.229,13.3406,13.4875,13.5611,13.5892,13.4284,13.2775,13.26,13.2564,13.2846,13.3091,13.3302,13.3443,13.4004,13.5123,13.5923,13.5847,13.7301,13.9886,14.1615,14.3375,14.4062,14.4782,14.4645,14.4576,14.4953,14.4953,14.4953,14.4953,14.4953,14.4953,14.4953,14.4953,14.4953,14.4953,14.4953,14.5181,14.5332,14.5712,14.6209,14.6623,14.7003,14.7265,14.7493,14.7797,14.8101,14.8597,9.0028,9.0142,9.0707,9.1302,9.1958,9.2584,9.3184,9.3645,9.3791,9.4075,9.4499,9.4727,9.4841,9.5296,9.5491,9.6028,9.6313,9.6199,9.6768,9.7052,9.7223,9.7312,9.7369,9.7426,9.7426,9.7426,9.7426,9.7426,9.7426,9.7426,9.7426,9.7426,9.7426,9.7426,9.7426,9.7393,9.745,9.7678,9.7962,9.8394,9.8508,9.8621,9.9338,9.9964,10.0419,10.067,10.0943,10.1114,10.1148,10.3203,10.6018,10.9392,11.2679,11.5945,11.7835,11.8831,11.9397,12.003,12.0695,12.1462,12.2196,12.2628,12.2624,12.385,12.628,12.8133,13.0474,13.2479,13.3947,13.5451,13.7272,13.8432,13.871,13.8189,13.6624,13.5508,13.5508,13.5577,13.5752,13.5892,13.5892,13.5822,13.7111,13.871,13.9468,14.0402,14.2028,14.3684,14.4782,14.4884,14.4953,14.4953,14.4953,14.4953,14.4953,14.4953,14.4953,14.4953,14.4953,14.4953,14.4953,14.4953,14.4953,14.4953,14.4953,14.5105,14.5408,14.5678,14.5981,14.6361,14.6623,14.6962,14.7265,14.7534,14.8218,9.0002,9.0028,9.0536,9.1131,9.1787,9.2439,9.3101,9.3645,9.367,9.3873,9.41,9.4189,9.436,9.4841,9.4784,9.4954,9.541,9.5776,9.6142,9.6483,9.654,9.6995,9.7312,9.7426,9.7369,9.7393,9.7393,9.7426,9.7426,9.7426,9.7426,9.7426,9.7426,9.7426,9.7426,9.7426,9.7426,9.7426,9.7621,9.7792,9.7825,9.828,9.8906,9.9565,10.0101,10.0579,10.0886,10.1114,10.1967,10.4188,10.4493,10.7674,11.1842,11.5812,11.7902,11.8565,11.9031,11.9664,12.0196,12.1199,12.2611,12.3423,12.3828,12.5736,12.8025,12.8504,13.0865,13.5661,13.7143,13.726,13.9047,14.0949,14.1368,14.0821,13.9334,13.8536,13.8536,13.8744,13.9056,13.9091,13.8987,13.9022,14.0026,14.1654,14.1482,14.2343,14.3306,14.4816,14.4884,14.4953,14.4953,14.4953,14.4953,14.4953,14.4953,14.4953,14.4953,14.4953,14.4953,14.4953,14.4953,14.4953,14.4953,14.4953,14.4953,14.4953,14.5029,14.5256,14.5526,14.5905,14.6244,14.643,14.6623,14.6892,14.712,9.0002,9.0059,9.0453,9.0904,9.1529,9.2211,9.2842,9.3443,9.3588,9.3702,9.367,9.3727,9.4044,9.4588,9.4417,9.4613,9.4922,9.5345,9.5207,9.563,9.5939,9.6337,9.6735,9.6938,9.7109,9.7133,9.7337,9.7426,9.7426,9.7426,9.7426,9.7426,9.7426,9.7426,9.7426,9.7426,9.7426,9.7426,9.754,9.7507,9.754,9.7995,9.8451,9.9077,9.9736,10.0238,10.0999,10.1522,10.3577,10.5036,10.3533,10.5612,10.9594,11.4514,11.7239,11.8299,11.8864,11.9264,11.9797,12.0731,12.2717,12.3968,12.4885,12.7468,12.9303,12.9337,13.1922,13.7373,14.0345,14.0188,14.0762,14.259,14.376,14.271,14.1654,14.1654,14.1654,14.2102,14.2619,14.255,14.2378,14.2825,14.3616,14.389,14.3478,14.3787,14.4645,14.4953,14.4953,14.4953,14.4953,14.4953,14.4953,14.4953,14.4953,14.4953,14.4953,14.4953,14.4953,14.4953,14.4953,14.4953,14.4953,14.4953,14.4953,14.4953,14.5029,14.5029,14.5181,14.556,14.5864,14.6016,14.6133,14.6057,14.6057,9.0002,9.0002,9.0059,9.0396,9.0904,9.1617,9.2242,9.2842,9.3474,9.367,9.367,9.367,9.3987,9.4417,9.4449,9.467,9.4865,9.4947,9.5061,9.5452,9.5541,9.5654,9.5996,9.6166,9.6508,9.6768,9.6995,9.728,9.7337,9.7426,9.7426,9.7426,9.7426,9.7426,9.7426,9.7426,9.7426,9.7426,9.7426,9.7426,9.7426,9.7507,9.7735,9.8474,9.9077,9.9827,10.0971,10.2729,10.5138,10.6221,10.7032,10.8584,11.0904,11.3647,11.6111,11.7438,11.8465,11.8898,11.9464,12.0096,12.2515,12.3832,12.4272,12.7737,13.1591,13.3169,13.484,13.9353,14.0816,14.0866,14.1456,14.3085,14.4099,14.365,14.3294,14.341,14.3444,14.3616,14.3993,14.3925,14.3787,14.3925,14.4679,14.461,14.4096,14.4473,14.4953,14.4953,14.4953,14.4953,14.4953,14.4953,14.4953,14.4953,14.4953,14.4953,14.4953,14.4953,14.4953,14.4953,14.4953,14.4953,14.4953,14.4953,14.4953,14.4953,14.4953,14.4953,14.5105,14.5332,14.5484,14.556,14.5484,14.5332,14.5408,9.0002,9.0002,9.0002,9.0116,9.0484,9.1332,9.1901,9.2268,9.3272,9.367,9.367,9.367,9.3847,9.41,9.41,9.4214,9.4435,9.4492,9.4695,9.4833,9.4979,9.5118,9.537,9.5768,9.6028,9.6426,9.6711,9.7019,9.7337,9.7426,9.7426,9.7426,9.7426,9.7426,9.7426,9.7426,9.7426,9.7426,9.7426,9.7426,9.7426,9.7426,9.7792,9.8247,9.8564,9.9395,10.0428,10.0995,10.4479,10.795,10.6424,10.919,11.4981,11.4148,11.5446,11.7504,11.8266,11.8631,11.8931,11.9564,12.1907,12.3995,12.5117,12.8528,13.2295,13.5695,13.7937,13.9818,14.0705,14.1536,14.2405,14.3164,14.3772,14.4338,14.4683,14.4953,14.4953,14.4953,14.4953,14.4953,14.4953,14.4953,14.4953,14.4953,14.4953,14.4953,14.4953,14.4953,14.4953,14.4953,14.4953,14.4953,14.4953,14.4953,14.4953,14.4953,14.4953,14.4953,14.4953,14.4953,14.4953,14.4953,14.4953,14.4953,14.4953,14.4953,14.4953,14.4953,14.4953,14.5029,14.5181,14.5256,14.5181,14.4953,14.5181,9.0002,9.0002,9.0173,9.0169,9.037,9.1074,9.17,9.2185,9.3158,9.367,9.367,9.367,9.3702,9.367,9.367,9.3702,9.367,9.3759,9.4044,9.4246,9.4385,9.4638,9.4865,9.5118,9.5459,9.5857,9.6256,9.6711,9.7052,9.7426,9.7426,9.7426,9.7426,9.7426,9.7426,9.7426,9.7426,9.7426,9.7426,9.7426,9.7426,9.7426,9.7621,9.7962,9.828,9.8735,10.0126,10.1133,10.4469,10.8816,10.8199,10.9829,11.7206,11.6277,11.4981,11.7239,11.8034,11.8431,11.8465,11.9064,12.1,12.3779,12.5795,12.9144,13.2289,13.5319,13.782,13.9365,14.0482,14.108,14.1797,14.2633,14.3392,14.4,14.4683,14.4877,14.4953,14.4953,14.4953,14.4953,14.4953,14.4953,14.4953,14.4953,14.4953,14.4953,14.4953,14.4953,14.4953,14.4953,14.4953,14.4953,14.4953,14.4953,14.4953,14.4953,14.4953,14.4953,14.4953,14.4953,14.4953,14.4953,14.4953,14.4953,14.4953,14.4953,14.4953,14.4953,14.4953,14.5029,14.5029,14.5029,14.4953,14.4953,14.5105,9.0002,9.0028,9.0536,9.0733,9.0733,9.0904,9.1586,9.2697,9.3417,9.3702,9.367,9.367,9.367,9.367,9.367,9.367,9.367,9.367,9.3759,9.3816,9.393,9.3873,9.4069,9.441,9.4784,9.5182,9.5694,9.6199,9.6508,9.6938,9.728,9.7337,9.7426,9.7426,9.7426,9.7426,9.7426,9.7426,9.7426,9.7426,9.7426,9.7459,9.7713,9.8181,9.8326,9.856,9.9915,10.1494,10.4899,10.8363,11.1305,11.3058,11.4982,11.6808,11.5945,11.5978,11.7306,11.8001,11.8498,11.8964,12.0897,12.2758,12.594,12.8372,13.1478,13.5305,13.7916,13.9558,14.0169,14.0625,14.1156,14.1991,14.2827,14.3586,14.4345,14.4725,14.4877,14.4953,14.4953,14.4953,14.4953,14.4953,14.4953,14.4953,14.4953,14.4953,14.4953,14.4953,14.4953,14.4953,14.4953,14.4953,14.4953,14.4953,14.4953,14.4953,14.4953,14.4953,14.4953,14.4953,14.4953,14.4953,14.4953,14.4953,14.4953,14.4953,14.4953,14.4953,14.4953,14.4953,14.4953,14.4953,14.4953,14.4953,14.4953,9.0002,9.0002,9.0199,9.0422,9.0847,9.1245,9.2185,9.3272,9.3588,9.367,9.367,9.367,9.367,9.367,9.367,9.367,9.367,9.367,9.367,9.367,9.367,9.367,9.3702,9.393,9.4303,9.4702,9.5182,9.5776,9.6313,9.6654,9.6938,9.7223,9.7426,9.7468,9.7566,9.7623,9.7558,9.7426,9.7426,9.7426,9.7426,9.7821,9.8313,9.9092,9.9167,9.8797,10.0291,10.1427,10.2668,10.6713,10.9667,11.1606,11.513,11.7107,11.7207,11.7207,11.7935,11.81,11.8365,11.8764,11.9428,12.115,12.7291,12.9843,13.0741,13.5396,13.8208,13.9595,13.9941,14.0169,14.0473,14.1156,14.1991,14.2827,14.3662,14.4531,14.4725,14.4953,14.4953,14.4953,14.4953,14.4953,14.4953,14.4953,14.4953,14.4953,14.4953,14.4953,14.4953,14.4953,14.4953,14.4953,14.4953,14.4953,14.4953,14.4953,14.4953,14.4953,14.4953,14.4953,14.4953,14.4953,14.4953,14.4953,14.4953,14.4953,14.4953,14.4953,14.4953,14.4953,14.4953,14.4953,14.4953,14.4953,14.4953,9.0002,9.0002,9.0199,9.0422,9.0847,9.1472,9.2356,9.3272,9.3588,9.367,9.367,9.367,9.367,9.367,9.367,9.367,9.367,9.367,9.367,9.367,9.367,9.367,9.367,9.3759,9.3961,9.4303,9.4645,9.5239,9.589,9.5996,9.6451,9.6881,9.7028,9.7543,9.8288,9.8715,9.805,9.7591,9.7459,9.7459,9.7525,9.8477,9.9657,10.1161,10.0998,10.0979,10.166,10.0959,10.2898,10.6728,10.7851,11.0969,11.5558,11.6737,11.7168,11.77,11.7933,11.8032,11.8365,11.8431,11.8695,12.16,12.5917,12.9527,13.0919,13.5563,13.7962,13.9291,13.9713,13.9941,14.0093,14.0777,14.1536,14.2371,14.3206,14.4076,14.4683,14.4835,14.4953,14.4953,14.4953,14.4953,14.4953,14.4953,14.4953,14.4953,14.4953,14.4953,14.4953,14.4953,14.4953,14.4953,14.4953,14.4953,14.4953,14.4953,14.4953,14.4953,14.4953,14.4953,14.4953,14.4953,14.4953,14.4953,14.4953,14.4953,14.4953,14.4953,14.4953,14.4953,14.4953,14.4953,14.4953,14.4953,14.4953,8.9945,9.0059,9.0536,9.0702,9.0847,9.1472,9.2097,9.2842,9.3443,9.367,9.367,9.367,9.367,9.367,9.367,9.367,9.367,9.367,9.367,9.367,9.367,9.367,9.367,9.367,9.3759,9.3873,9.4214,9.4588,9.4873,9.5264,9.5768,9.6223,9.6475,9.7482,10.041,10.1138,10.0089,9.7985,9.7821,9.7656,9.805,9.973,10.0972,10.2504,10.3415,10.361,10.3586,10.2808,10.4037,10.7029,10.786,11.0727,11.542,11.6136,11.6534,11.7134,11.7267,11.7633,11.8199,11.8265,11.9585,12.212,12.5786,12.9281,13.2115,13.5099,13.7783,13.8987,13.9443,13.9713,14.0245,14.0734,14.146,14.2219,14.3088,14.3848,14.4455,14.4835,14.4953,14.4953,14.4953,14.4953,14.4953,14.4953,14.4953,14.4953,14.4953,14.4953,14.4953,14.4953,14.4953,14.4953,14.4953,14.4953,14.4953,14.4953,14.4953,14.4953,14.4953,14.4953,14.4953,14.4953,14.4953,14.4953,14.4953,14.4953,14.4953,14.4953,14.4953,14.4953,14.4953,14.4953,14.4953,14.4953,14.4953,8.9603,9.0002,9.0173,9.0453,9.0847,9.1472,9.2097,9.2754,9.3386,9.3702,9.367,9.367,9.367,9.367,9.367,9.367,9.367,9.367,9.367,9.367,9.367,9.367,9.367,9.367,9.367,9.3734,9.3961,9.4303,9.4588,9.4784,9.5207,9.5402,9.5628,9.7319,9.9801,10.1969,10.2538,10.0815,10.0083,9.9592,9.7919,10.0213,10.208,10.4421,10.5523,10.6009,10.6489,10.5608,10.638,10.7868,10.9354,11.1422,11.3817,11.5535,11.59,11.6401,11.6901,11.7235,11.7467,11.7863,11.9048,12.2009,12.6062,12.9614,13.2348,13.4834,13.7154,13.8379,13.8911,13.9367,14.0017,14.0245,14.0852,14.1764,14.2557,14.3392,14.4,14.4607,14.4759,14.4953,14.4953,14.4953,14.4953,14.4953,14.4953,14.4953,14.4953,14.4953,14.4953,14.4953,14.4953,14.4953,14.4953,14.4953,14.4953,14.4953,14.4953,14.4953,14.4953,14.4953,14.4953,14.4953,14.4953,14.4953,14.4953,14.4953,14.4953,14.4953,14.4953,14.4953,14.4953,14.4953,14.4953,14.4953,14.4953,8.9432,9.0002,9.0002,9.0229,9.0506,9.1162,9.1756,9.2356,9.3044,9.3443,9.367,9.367,9.367,9.367,9.367,9.367,9.367,9.3702,9.367,9.367,9.3702,9.367,9.367,9.367,9.3702,9.3702,9.3702,9.3987,9.4303,9.4271,9.4524,9.4581,9.4499,9.6837,9.9193,10.1356,10.2399,10.1817,10.1528,10.0664,9.9541,10.1657,10.3934,10.6106,10.6946,10.9458,10.9394,10.8043,10.8526,10.9297,10.9651,11.1644,11.4026,11.4509,11.5037,11.5735,11.6035,11.6602,11.7068,11.7498,11.7988,12.1103,12.5377,13.0072,13.3323,13.5039,13.6742,13.762,13.8336,13.8944,13.9519,13.9822,14.0245,14.108,14.1916,14.2784,14.3468,14.4076,14.4455,14.4877,14.4953,14.4953,14.4953,14.4953,14.4953,14.4953,14.4953,14.4953,14.4953,14.4953,14.4953,14.4953,14.4953,14.4953,14.4953,14.4953,14.4953,14.4953,14.4953,14.4953,14.4953,14.4953,14.4953,14.4953,14.4953,14.4953,14.4953,14.4953,14.4953,14.4953,14.4953,14.4953,14.4953,14.4953,14.4953,8.9376,8.9945,8.9945,8.9975,9.0028,9.0536,9.1131,9.173,9.2439,9.307,9.3531,9.3645,9.367,9.367,9.367,9.367,9.3702,9.3892,9.3955,9.3892,9.386,9.4081,9.3986,9.4081,9.4144,9.3765,9.4491,9.427,9.3854,9.3873,9.3759,9.3828,9.4569,9.7833,10.0398,10.1772,10.2791,10.4524,10.3291,10.2048,10.2251,10.4048,10.5855,10.7208,11.0517,11.2791,11.0325,11.0229,11.055,11.0518,11.0711,11.2123,11.3626,11.4075,11.4339,11.4938,11.5271,11.587,11.6469,11.6701,11.6799,11.8162,12.1833,12.7471,13.2448,13.494,13.6145,13.6524,13.7544,13.8336,13.8987,13.9443,14.005,14.0777,14.1384,14.2101,14.2709,14.3392,14.4227,14.4725,14.4953,14.4953,14.4953,14.4953,14.4953,14.4953,14.4953,14.4953,14.4953,14.4953,14.4953,14.4953,14.4953,14.4953,14.4953,14.4953,14.4953,14.4953,14.4953,14.4953,14.4953,14.4953,14.4953,14.4953,14.4953,14.4953,14.4953,14.4953,14.4953,14.4953,14.4953,14.4953,14.4953,14.4953,14.4953,8.8662,8.9232,8.9262,8.9546,9.0059,9.0563,9.0904,9.1188,9.2185,9.2842,9.307,9.3443,9.367,9.367,9.367,9.3702,9.386,9.5757,9.5316,9.497,9.519,9.5222,9.4681,9.5568,9.5474,9.3734,9.5379,9.5568,9.4555,9.386,9.3955,9.3765,9.5411,9.8513,10.1479,10.3289,10.5293,10.8063,10.6528,10.475,10.3911,10.6202,10.7414,10.901,11.1344,11.3621,11.3015,11.2725,11.2725,11.2661,11.2566,11.2757,11.3685,11.3908,11.4041,11.4272,11.4672,11.5138,11.547,11.5836,11.5868,11.7137,12.0228,12.502,13.0416,13.3758,13.5397,13.6145,13.686,13.762,13.8455,13.8944,13.9595,14.0245,14.0852,14.1384,14.1916,14.2936,14.3772,14.4227,14.4607,14.4725,14.4953,14.4953,14.4953,14.4953,14.4953,14.4953,14.4953,14.4953,14.4953,14.4835,14.4835,14.4835,14.4911,14.4877,14.4953,14.4953,14.4953,14.4953,14.4953,14.4953,14.4953,14.4953,14.4953,14.4953,14.4953,14.4953,14.4953,14.4953,14.4953,14.4953,14.4953,14.4953,14.4953,8.8007,8.8633,8.889,8.9232,8.966,9.0256,9.0536,9.093,9.1901,9.247,9.2842,9.3386,9.367,9.367,9.367,9.367,9.4213,9.6292,9.6103,9.4681,9.5883,9.6071,9.4907,9.6071,9.7077,9.604,9.6606,9.6888,9.7171,9.6323,9.5348,9.5663,9.6983,9.9207,10.1607,10.4659,10.7455,10.9237,10.9325,10.772,10.6464,10.7035,10.8209,10.8367,11.1223,11.2591,11.2815,11.3008,11.3074,11.3505,11.3474,11.3607,11.3873,11.3841,11.3841,11.394,11.4105,11.4304,11.4571,11.497,11.6073,11.76,12.0647,12.3906,12.8301,13.2231,13.4714,13.5581,13.5961,13.6828,13.7891,13.8531,13.9139,13.9746,14.0354,14.0852,14.1569,14.2514,14.3198,14.373,14.4227,14.4607,14.4877,14.4953,14.4953,14.4953,14.4953,14.4953,14.4953,14.4953,14.4911,14.4759,14.4683,14.4607,14.4531,14.4497,14.4421,14.4801,14.4801,14.4877,14.4953,14.4953,14.4953,14.4953,14.4953,14.4953,14.4953,14.4953,14.4953,14.4953,14.4953,14.4953,14.4953,14.4953,14.4953,8.7381,8.8007,8.8633,8.8947,8.9118,8.9774,9.0282,9.0733,9.1389,9.1984,9.2356,9.3158,9.35,9.3557,9.3588,9.367,9.4681,9.6606,9.7108,9.5437,9.7139,9.7139,9.5033,9.6669,9.7139,9.7359,9.7923,9.9613,10.0643,9.9113,9.8111,9.8331,9.8957,9.9894,10.2821,10.5488,10.7213,10.9251,11.012,10.9508,10.8155,10.8004,10.829,10.8824,11.0495,11.1974,11.2041,11.2107,11.2241,11.2805,11.2773,11.3106,11.3572,11.3673,11.3673,11.3474,11.3239,11.3039,11.3639,11.4203,11.5502,11.815,12.0936,12.4808,12.7927,13.1047,13.2944,13.4308,13.5353,13.6145,13.6904,13.7967,13.8878,13.9519,13.9974,14.0506,14.0962,14.1721,14.2514,14.3012,14.3468,14.3966,14.4683,14.4801,14.4953,14.4953,14.4953,14.4953,14.4953,14.4953,14.4877,14.4607,14.4455,14.4,14.3848,14.3662,14.389,14.4607,14.4683,14.4725,14.4877,14.4953,14.4953,14.4953,14.4953,14.4953,14.4953,14.4953,14.4953,14.4953,14.4953,14.4953,14.4953,14.4953,14.4953,8.6669,8.7324,8.798,8.8549,8.9061,8.9717,9.0059,9.0225,9.0764,9.11,9.1302,9.2356,9.2899,9.3044,9.3417,9.3771,9.4176,9.8706,9.8738,9.7485,9.9207,9.9301,9.7485,9.7422,9.7861,9.8425,9.9675,10.223,10.3534,10.2013,10.1017,10.1204,10.3069,10.4401,10.4958,10.7059,10.8504,10.9614,10.9777,10.9752,10.9499,10.971,11.0009,11.0293,11.1134,11.1708,11.1575,11.1575,11.1806,11.1908,11.2041,11.2076,11.2174,11.2209,11.2209,11.2143,11.2107,11.2041,11.2472,11.3036,11.4643,11.7329,11.8701,12.2392,12.6074,12.8985,13.0319,13.2484,13.3791,13.467,13.5765,13.6828,13.7967,13.8911,13.9595,14.0093,14.0397,14.0962,14.1721,14.2219,14.2599,14.3206,14.3924,14.4193,14.4649,14.4725,14.4911,14.4911,14.4725,14.4725,14.4725,14.4421,14.3924,14.3392,14.3012,14.2827,14.3206,14.3924,14.4152,14.4379,14.4683,14.4953,14.4877,14.4877,14.4877,14.4953,14.4953,14.4953,14.4953,14.4953,14.4953,14.4953,14.4953,14.4953,14.4953,8.6299,8.6669,8.7324,8.798,8.8606,8.9232,8.9717,9.0059,9.0506,9.0759,9.1074,9.1756,9.2413,9.2984,9.3969,9.4808,9.5663,9.862,9.8738,9.8612,10.0113,10.0206,9.7767,9.9113,9.9363,10.0237,10.2137,10.4339,10.5236,10.403,10.3658,10.3906,10.4711,10.5545,10.6131,10.8289,10.9363,10.9578,10.9675,10.9644,10.965,10.9885,11.0084,11.0151,11.0479,11.0709,11.0709,11.0709,11.0909,11.1113,11.118,11.1411,11.1442,11.1309,11.0878,11.1211,11.1246,11.1313,11.1841,11.2201,11.3795,11.6479,11.8677,12.1772,12.5552,12.8504,13.0645,13.1884,13.2652,13.3607,13.4778,13.5721,13.7088,13.8412,13.9096,13.9519,13.9941,14.0354,14.1038,14.1688,14.1991,14.2447,14.3164,14.3738,14.4269,14.4607,14.4835,14.4683,14.4379,14.4421,14.4497,14.3966,14.313,14.2599,14.2177,14.1991,14.2219,14.3012,14.3468,14.3924,14.4303,14.4725,14.4801,14.4683,14.4877,14.4953,14.4953,14.4953,14.4953,14.4953,14.4953,14.4953,14.4953,14.4953,14.4953,8.6157,8.6157,8.6812,8.7381,8.798,8.8719,8.9376,8.9888,9.0366,9.0619,9.0676,9.1302,9.187,9.2564,9.4289,9.5514,9.6322,9.8011,9.8529,9.8841,9.9459,10.0487,9.8769,9.9707,10.0705,10.2106,10.3286,10.5113,10.6039,10.5823,10.5514,10.61,10.644,10.647,10.7213,10.8289,10.9608,10.9608,10.9608,10.9608,10.9608,10.9711,10.9711,10.9711,10.9777,10.9875,10.9742,10.9711,10.988,11.0381,11.0448,11.0812,11.0909,11.0274,11.011,11.0346,11.0448,11.0648,11.1078,11.1473,11.3376,11.6247,11.8887,12.2103,12.5522,12.8977,13.05,13.1209,13.1772,13.2652,13.4107,13.4822,13.6177,13.7652,13.8607,13.9172,13.9713,14.0093,14.0397,14.1004,14.1308,14.1688,14.2295,14.2979,14.3358,14.3662,14.3814,14.3738,14.3586,14.3738,14.378,14.3206,14.2447,14.1916,14.1417,14.1417,14.1384,14.2177,14.2709,14.3164,14.3696,14.4345,14.4573,14.4379,14.4379,14.4759,14.4877,14.4953,14.4953,14.4953,14.4953,14.4953,14.4953,14.4953,14.4953,8.6157,8.6157,8.6812,8.7153,8.7438,8.8492,8.9004,8.9232,8.9801,9.0085,9.0169,9.0676,9.1017,9.1342,9.2213,9.3771,9.5854,9.803,9.9477,9.9413,9.925,9.9523,10.0084,9.9617,9.9865,10.1546,10.2634,10.5051,10.6963,10.7059,10.6997,10.8596,10.8903,10.8566,10.8811,10.9516,10.9608,10.9608,10.9608,10.9608,10.9608,10.9608,10.9608,10.9608,10.9608,10.9608,10.9608,10.9675,10.9675,10.9747,10.9777,10.9875,10.9875,10.9675,10.9711,10.9808,10.988,11.0013,11.0243,11.07,11.1962,11.4838,11.7947,12.1024,12.3856,12.7175,12.9429,13.0177,13.0663,13.1164,13.1817,13.3411,13.5158,13.6633,13.8,13.9063,13.9713,13.9941,13.9941,14.0245,14.0658,14.1004,14.1612,14.2143,14.2447,14.2751,14.2717,14.2717,14.2717,14.2717,14.2717,14.2295,14.1916,14.146,14.1004,14.0928,14.0777,14.1265,14.1645,14.2143,14.2675,14.3206,14.362,14.3654,14.3958,14.4379,14.4683,14.4683,14.4801,14.4953,14.4953,14.4877,14.4877,14.4953,14.4953,8.5787,8.6128,8.6442,8.6755,8.7153,8.7722,8.8177,8.8606,8.9205,8.9489,8.9573,9.0112,9.0536,9.0851,9.2141,9.2821,9.4178,9.6234,9.8226,9.9543,9.9539,9.9782,10.0495,9.9998,10.0557,10.2939,10.3469,10.4773,10.7059,10.7644,10.8166,10.9547,10.9547,10.9608,10.9608,10.9608,10.9608,10.9608,10.9608,10.9608,10.9608,10.9608,10.9608,10.9608,10.9608,10.9608,10.9608,10.9608,10.9608,10.9675,10.9644,10.9777,11.0013,10.9844,10.9844,10.9977,10.988,10.9675,10.9675,10.9972,11.0664,11.1954,11.6881,11.9358,12.1618,12.6376,12.9005,12.9493,13.0101,13.1043,13.1848,13.2924,13.3867,13.5265,13.6741,13.7967,13.8987,13.9367,13.9367,13.9519,14.0017,14.0473,14.0852,14.1417,14.1764,14.1916,14.1916,14.211,14.211,14.2034,14.1916,14.1612,14.1308,14.108,14.0701,14.0473,14.0321,14.0549,14.0962,14.146,14.173,14.2143,14.2557,14.2936,14.3316,14.3772,14.4152,14.4303,14.4379,14.4531,14.4573,14.4759,14.4835,14.4953,14.4953,8.5361,8.5901,8.593,8.6271,8.6869,8.704,8.7411,8.7893,8.8549,8.8863,8.892,8.9376,8.977,9.0229,9.1346,9.239,9.2474,9.3795,9.5705,9.8379,9.9175,9.9543,10.0034,10.0127,10.1788,10.3975,10.5034,10.5817,10.6501,10.8013,10.8934,10.9425,10.9608,10.9608,10.9608,10.9608,10.9608,10.9608,10.9608,10.9608,10.9608,10.9608,10.9608,10.9608,10.9608,10.9608,10.9608,10.9608,10.9608,10.9608,10.9675,10.9844,11.0146,10.9982,11.0115,11.0315,11.008,10.9911,10.9875,10.9808,10.9706,11.0575,11.5335,11.9042,11.9061,12.5137,12.8399,12.9129,12.9812,13.0905,13.1817,13.1665,13.2652,13.4126,13.5385,13.6416,13.7392,13.7956,13.8152,13.8379,13.9063,13.9713,13.9713,14.0506,14.0962,14.1114,14.1308,14.1536,14.1536,14.146,14.108,14.0549,14.0473,14.0549,14.0321,14.0169,14.0093,14.0245,14.0549,14.0928,14.0928,14.1232,14.1569,14.2025,14.2557,14.2979,14.3358,14.351,14.3586,14.389,14.4118,14.4303,14.4455,14.4877,14.4953,8.4736,8.5275,8.5275,8.5645,8.6214,8.6783,8.6953,8.7267,8.7722,8.8036,8.8093,8.8177,8.8435,8.8378,8.9146,9.0186,9.2412,9.2442,9.3904,9.5313,9.6062,9.7526,9.8951,9.978,10.1682,10.399,10.4583,10.6164,10.7812,10.6806,10.7486,10.9087,10.9608,10.9608,10.9608,10.9608,10.9608,10.9608,10.9608,10.9608,10.9608,10.9608,10.9608,10.9608,10.9608,10.9608,10.9608,10.9608,10.9608,10.9608,10.9608,10.9742,10.9875,11.0315,11.055,11.0683,11.0683,11.0514,11.0448,10.9977,10.9644,11.041,11.454,11.7618,11.9392,12.3362,12.7233,12.8415,12.8825,12.9842,13.0981,13.2,13.2455,13.2911,13.4139,13.4563,13.467,13.5613,13.6557,13.6633,13.8,13.8716,13.9063,13.9519,14.0093,14.0126,14.0278,14.0473,14.0625,14.0701,14.0397,13.9941,14.0017,14.0093,14.0017,13.9941,13.9941,13.9941,14.0354,14.0397,14.0397,14.0473,14.0701,14.1114,14.1721,14.2219,14.2599,14.2675,14.2641,14.2869,14.3206,14.3544,14.3924,14.4269,14.4649,8.4138,8.4679,8.4679,8.485,8.5134,8.5362,8.5504,8.5646,8.6129,8.6385,8.6555,8.7067,8.7495,8.7552,8.7893,8.8861,8.9924,9.0014,9.1912,9.4325,9.4175,9.5978,9.8942,10.0628,10.1863,10.3364,10.3748,10.5789,10.8176,10.7845,10.8109,10.9358,10.9608,10.9608,10.9608,10.9608,10.9608,10.9608,10.9608,10.9608,10.9608,10.9608,10.9608,10.9608,10.9608,10.9608,10.9608,10.9608,10.9608,10.9608,10.9675,11.0008,11.0709,11.0781,11.1047,11.1943,11.1513,11.1047,11.0683,11.0351,11.0013,11.0513,11.3293,11.6314,11.8948,12.2244,12.5711,12.7748,12.8415,12.8977,12.9767,13.0557,13.124,13.1772,13.2348,13.2545,13.2317,13.4139,13.505,13.5461,13.6524,13.7891,13.7392,13.8043,13.865,13.9139,13.9215,13.9486,13.9713,13.9941,13.9941,13.9941,14.0017,14.0017,13.9941,13.9941,13.9941,13.9941,14.0169,14.0093,14.0093,14.0093,14.0245,14.0473,14.0928,14.1384,14.1645,14.1873,14.1882,14.2034,14.2143,14.2557,14.3054,14.351,14.4,8.2833,8.3797,8.3854,8.4024,8.4309,8.4394,8.4366,8.4423,8.4821,8.502,8.5162,8.5988,8.63,8.6414,8.6841,8.7297,8.7585,8.7613,8.9969,9.2766,9.1677,9.3685,9.7265,9.9043,10.0821,10.3304,10.349,10.4917,10.7962,10.8028,10.8488,10.9342,10.9245,10.9378,10.9608,10.9608,10.9608,10.9608,10.9608,10.9608,10.9608,10.9608,10.9608,10.9608,10.9608,10.9608,10.9608,10.9608,10.9608,10.9608,10.9608,11.0208,11.0909,11.0781,11.1016,11.1779,11.161,11.1113,11.0683,11.0519,11.0248,11.0023,11.385,11.6732,11.8839,12.2428,12.5405,12.7234,12.8096,12.8445,12.8749,12.9159,12.9873,13.0633,13.045,13.0222,13.0602,13.2348,13.3728,13.3456,13.5278,13.6188,13.634,13.6796,13.7631,13.8,13.8303,13.8607,13.8878,13.9182,13.9443,13.9595,13.9789,13.9865,13.9941,13.9941,13.9941,13.9941,13.9941,13.9941,13.9941,13.9941,13.9941,13.9941,14.0549,14.0701,14.0886,14.1038,14.1232,14.1351,14.1536,14.1797,14.2295,14.2675,14.3088,8.0473,8.2404,8.2489,8.2974,8.3911,8.4053,8.3911,8.4138,8.4309,8.4252,8.4309,8.4565,8.4594,8.4537,8.4907,8.5448,8.6044,8.6214,8.7341,8.8004,8.804,8.8947,9.2048,9.3571,9.7904,10.369,10.3269,10.4352,10.7387,10.7207,10.7847,10.8446,10.8579,10.8845,10.9275,10.9542,10.9475,10.9409,10.9511,10.9542,10.9542,10.9578,10.9608,10.9608,10.9608,10.9608,10.9608,10.9475,10.9475,10.9608,10.9475,10.9572,10.9844,11.0346,11.0617,11.0949,11.0816,11.075,11.0652,11.0586,11.0284,11.0084,11.4654,11.947,11.9858,12.3402,12.6567,12.8187,12.8066,12.802,12.8369,12.8248,12.8582,12.96,12.8962,12.8248,12.802,12.9994,13.1178,13.1786,13.3487,13.5114,13.4898,13.6113,13.6644,13.6828,13.7099,13.7511,13.7891,13.8455,13.8759,13.9063,13.9443,13.9519,13.9595,13.9638,13.9941,13.9941,13.9941,13.9941,13.9941,13.9941,13.9941,13.9941,14.0093,14.0093,14.0093,14.0245,14.0473,14.0473,14.0701,14.119,14.146,14.1688,14.1991,7.8322,7.9066,7.9149,7.9454,7.987,8.0646,8.0704,8.0592,8.1876,8.2325,8.2385,8.3231,8.374,8.3854,8.4224,8.4594,8.4992,8.502,8.5248,8.5706,8.6511,8.8297,9.0106,9.0756,9.4381,9.935,10.1295,10.3511,10.6499,10.5281,10.5519,10.7533,10.7877,10.801,10.821,10.8277,10.8307,10.8343,10.8676,10.8942,10.9009,10.9409,10.9608,10.9608,10.9608,10.9608,10.9542,10.8773,10.8307,10.8307,10.8307,10.8743,10.9608,11.0213,11.0816,11.118,11.1246,11.1047,11.0683,11.0519,11.0315,11.0095,11.2267,11.5452,11.9449,12.1558,12.5281,12.7867,12.84,12.84,12.8521,12.799,12.802,12.9083,12.8202,12.7792,12.8248,12.9083,12.9463,12.9691,13.1164,13.2272,13.2772,13.3759,13.4702,13.5993,13.6005,13.6005,13.7251,13.7663,13.7815,13.8119,13.865,13.9063,13.9215,13.9519,13.9865,13.9789,13.9713,13.9562,13.9713,13.9713,13.9865,13.9865,13.9941,13.9941,13.9941,13.9941,13.9865,13.9443,13.9476,13.9746,13.9865,14.0245,14.1004,7.6355,7.6845,7.6872,7.6954,7.7282,7.8019,7.8158,7.7937,7.9313,8.0142,8.0369,8.1428,8.2323,8.2802,8.3199,8.3655,8.3996,8.3626,8.3683,8.4279,8.5637,8.6984,8.8178,8.9105,9.0891,9.3647,9.7544,10.1261,10.3708,10.3542,10.3796,10.5778,10.6689,10.6821,10.6305,10.7117,10.7508,10.7574,10.7944,10.8174,10.821,10.8706,10.8942,10.8942,10.8942,10.8809,10.8543,10.7677,10.7011,10.6745,10.6745,10.7344,10.841,10.9281,10.988,11.0377,11.0607,11.0479,11.0049,11.0284,11.0315,11.0131,11.1405,11.4606,11.8634,12.0973,12.3966,12.7882,12.8445,12.8445,12.8521,12.7944,12.7822,12.8248,12.7868,12.7792,12.8445,12.8552,12.8142,12.8172,12.9387,13.0267,13.0571,13.1285,13.2455,13.3715,13.3867,13.4107,13.5505,13.6113,13.6644,13.6796,13.7739,13.8347,13.8575,13.8802,13.8878,13.8802,13.8726,13.865,13.9215,13.9443,13.9638,13.9789,13.9865,13.9941,13.9941,13.9865,13.9789,13.9519,13.9367,13.8987,13.8423,13.8954,13.9865,7.4572,7.5921,7.6191,7.6274,7.6681,7.6899,7.709,7.6926,7.7254,7.7993,7.8678,7.9033,7.9972,8.1078,8.1415,8.2149,8.2746,8.212,8.2232,8.3227,8.3538,8.3993,8.4935,8.7393,8.821,8.7841,9.2721,9.7213,10.043,10.1878,10.2765,10.304,10.4802,10.5036,10.3821,10.6095,10.7308,10.7374,10.7374,10.7508,10.7508,10.7641,10.7707,10.7641,10.7441,10.7041,10.6375,10.6279,10.585,10.5258,10.5192,10.5554,10.6412,10.7211,10.7641,10.7841,10.8246,10.8543,10.8646,10.965,10.9982,10.9889,11.3093,11.5722,11.8371,12.126,12.4502,12.7626,12.802,12.7792,12.8369,12.7944,12.7595,12.7549,12.7595,12.7822,12.8324,12.802,12.7792,12.8369,12.8597,12.8673,12.8901,12.9539,13.0284,13.0784,13.1133,13.1817,13.2956,13.4215,13.4866,13.5246,13.634,13.7436,13.7815,13.8043,13.7891,13.7707,13.7707,13.7815,13.8228,13.8043,13.8162,13.8726,13.8802,13.9258,13.9182,13.9865,13.9746,13.9519,13.9671,13.941,13.8726,13.8238,13.903,7.2664,7.3092,7.3146,7.3304,7.3598,7.4328,7.446,7.4315,7.5812,7.6545,7.6707,7.7418,7.802,7.8596,7.9391,8.0027,8.0334,8.0683,8.1239,8.2033,8.2118,8.263,8.371,8.4759,8.6129,8.8206,9.029,9.3006,9.6166,9.6085,9.7489,10.0102,10.1104,10.2374,10.3904,10.4831,10.548,10.5983,10.6442,10.6678,10.6775,10.7241,10.7508,10.7211,10.545,10.4319,10.4119,10.4119,10.3957,10.3757,10.3728,10.4023,10.488,10.6042,10.6708,10.6745,10.7374,10.781,10.7877,10.821,10.8379,10.8398,11.0453,11.3522,11.7417,11.9743,12.3189,12.6568,12.7671,12.7595,12.7822,12.7671,12.7519,12.7549,12.7549,12.764,12.7868,12.764,12.764,12.7868,12.7944,12.8142,12.8552,12.8476,12.8886,12.998,12.9584,13.0146,13.1392,13.2652,13.3487,13.4107,13.5461,13.6221,13.6524,13.6221,13.5885,13.634,13.6524,13.6676,13.686,13.634,13.6308,13.7056,13.7587,13.8152,13.8759,13.9519,13.9519,13.9139,13.9139,13.8954,13.8347,13.7815,13.8043,7.17,7.17,7.17,7.17,7.1781,7.2559,7.2688,7.2515,7.3976,7.4622,7.4834,7.554,7.6219,7.6818,7.6953,7.7089,7.7444,7.8885,7.9929,8.0519,8.0932,8.1635,8.2658,8.2687,8.4268,8.6637,8.7011,8.894,9.2147,9.2433,9.361,9.5854,9.7031,9.8078,9.9427,10.05,10.1822,10.2953,10.353,10.4294,10.5029,10.5613,10.4961,10.3251,10.1297,10.0634,10.1209,10.1266,10.15,10.1798,10.2122,10.235,10.2683,10.3948,10.4785,10.5147,10.5909,10.6309,10.6309,10.6575,10.6745,10.7078,10.7944,11.0744,11.543,11.7562,12.0414,12.5139,12.6577,12.6168,12.597,12.6046,12.6303,12.6607,12.6851,12.7109,12.7443,12.7549,12.7549,12.7549,12.7549,12.764,12.802,12.7898,12.805,12.919,12.9053,12.9204,13.0222,13.1088,13.1772,13.2469,13.3563,13.455,13.4778,13.4367,13.4215,13.4746,13.5234,13.5385,13.5917,13.5625,13.5885,13.6752,13.7099,13.7555,13.7891,13.8575,13.8575,13.8379,13.8271,13.7967,13.7316,13.8076,13.7924,7.17,7.17,7.17,7.17,7.17,7.1754,7.1779,7.1831,7.186,7.2425,7.3337,7.3472,7.441,7.5731,7.4437,7.3926,7.4703,7.6757,7.8142,7.8944,7.9789,8.0646,8.1408,8.1465,8.2146,8.3536,8.3792,8.5467,8.8766,9.1024,9.1524,9.0265,9.2944,9.3369,9.2562,9.477,9.6891,9.9315,9.9473,10.0431,10.2514,10.2526,10.0179,9.6483,9.5538,9.6408,9.7866,9.806,9.8592,9.9641,10.0222,10.0345,9.9897,10.0859,10.1865,10.2796,10.3615,10.4073,10.411,10.4518,10.5155,10.585,10.6109,10.8489,11.3453,11.4793,11.7886,12.3896,12.4216,12.3785,12.2799,12.3236,12.3844,12.4498,12.5379,12.6244,12.7139,12.7139,12.7443,12.7519,12.7549,12.7595,12.7595,12.7549,12.7898,12.84,12.8597,12.8643,12.8977,12.9615,13.0253,13.0633,13.1164,13.1589,13.2348,13.2652,13.2652,13.3032,13.3715,13.3867,13.467,13.5321,13.5961,13.6416,13.6188,13.634,13.7099,13.7403,13.7511,13.7663,13.7663,13.7663,13.7468,13.8336,13.8108,7.17,7.17,7.17,7.17,7.17,7.17,7.17,7.17,7.17,7.1862,7.2157,7.2184,7.2504,7.2959,7.3364,7.3366,7.3394,7.4725,7.6171,7.7474,7.7797,7.8923,8.07,8.121,8.1635,8.2004,8.246,8.345,8.4928,8.6562,8.7682,8.856,8.978,9.1024,9.22,9.3472,9.5642,9.8164,9.7318,9.7827,9.9493,9.7117,9.4753,9.3493,9.2889,9.3711,9.5801,9.5941,9.681,9.8705,9.7422,9.7283,9.8705,9.7646,9.8002,10.0337,10.1379,10.1808,10.1808,10.1979,10.235,10.3025,10.3653,10.5581,10.9394,11.2469,11.5807,11.9158,11.9609,12.001,12.037,12.0854,12.111,12.1414,12.2647,12.3815,12.4755,12.597,12.6623,12.7443,12.7291,12.7549,12.7519,12.7519,12.7595,12.7868,12.7868,12.802,12.8597,12.9387,13.0177,13.086,13.162,13.1893,13.1589,13.1589,13.1969,13.2196,13.212,13.2196,13.2165,13.1817,13.2076,13.4246,13.3867,13.4095,13.5309,13.6221,13.66,13.7208,13.7436,13.736,13.724,13.7012,13.686,7.1443,7.1416,7.1649,7.17,7.17,7.17,7.17,7.17,7.17,7.17,7.17,7.152,7.1493,7.1806,7.2426,7.259,7.2408,7.3553,7.462,7.5506,7.6095,7.7395,7.9288,7.9847,8.0429,8.1041,8.1437,8.1863,8.2318,8.3171,8.4331,8.5596,8.6292,8.7377,8.8823,8.9564,9.1242,9.3926,9.3287,9.3442,9.408,9.1032,8.9179,8.9119,8.882,9.0071,9.3156,9.2563,9.3524,9.6351,9.5689,9.5421,9.6222,9.6182,9.6764,9.8201,9.8821,9.9181,9.9514,9.9781,10.0191,10.0962,10.1428,10.3071,10.6283,10.9554,11.142,11.2198,11.3836,11.5551,11.691,11.7949,11.8908,11.9867,12.0474,12.149,12.2582,12.3283,12.4118,12.5257,12.5742,12.6152,12.6805,12.7261,12.7671,12.7914,12.802,12.8248,12.8597,12.919,12.9691,13.0146,13.0936,13.124,13.086,13.0709,13.0936,13.1316,13.1316,13.124,13.1361,13.1012,13.1195,13.1848,13.2455,13.3215,13.3974,13.4506,13.4854,13.5082,13.5537,13.6069,13.6297,13.6221,13.5537,7.0898,7.095,7.1312,7.1624,7.1545,7.1572,7.1572,7.1545,7.1572,7.1545,7.1468,7.1079,7.1131,7.1572,7.165,7.1598,7.1654,7.2697,7.3312,7.358,7.4517,7.5967,7.7592,7.7919,7.8767,8.0088,8.0418,8.0586,8.07,8.121,8.1747,8.2346,8.2943,8.3368,8.3397,8.4023,8.55,8.7791,8.8008,8.7894,8.7222,8.5244,8.4224,8.4252,8.4252,8.6347,9.0488,8.8762,8.9439,9.309,9.3913,9.3831,9.315,9.5398,9.6685,9.6236,9.6263,9.6557,9.7222,9.7861,9.8433,9.9231,9.9231,10.0565,10.355,10.5687,10.5734,10.4738,10.7891,11.1045,11.2387,11.4158,11.6141,11.8161,11.8529,11.9012,12.0303,12.0199,12.0474,12.204,12.3009,12.4072,12.5379,12.635,12.7261,12.7884,12.8142,12.8369,12.8673,12.8825,12.8901,12.8855,12.9266,12.9752,12.9752,12.9828,12.9797,12.9949,13.0481,13.0754,13.1012,13.1544,13.2303,13.162,13.2183,13.2303,13.2531,13.2607,13.2759,13.3367,13.3715,13.4139,13.5385,13.5689,13.493,7.0353,7.0353,7.0483,7.0509,7.0509,7.0509,7.0535,7.0509,7.0483,7.0509,7.0509,7.0431,7.0431,7.0535,7.0924,7.0898,7.0613,7.1242,7.201,7.2835,7.3127,7.4193,7.5832,7.7293,7.8083,7.863,7.9839,8.05,8.0473,8.0586,8.1039,8.1635,8.1806,8.1863,8.189,8.2516,8.4317,8.688,8.45,8.3238,8.361,8.3165,8.3086,8.3512,8.3114,8.3994,8.6201,8.5894,8.6663,8.8817,8.9068,8.9876,9.1301,9.1991,9.3031,9.4547,9.4759,9.4799,9.5025,9.5158,9.5504,9.6183,9.633,9.72,9.8885,9.9666,9.9821,10.028,10.2688,10.5795,10.8502,10.9714,11.1124,11.3914,11.5139,11.6354,11.7341,11.8405,11.944,12.0247,12.0626,12.1461,12.2951,12.4072,12.5135,12.6442,12.7307,12.802,12.8521,12.8673,12.8369,12.802,12.7944,12.8126,12.805,12.8126,12.843,12.8901,12.9235,12.9539,13.0101,13.0436,13.0587,13.0709,13.1088,13.1392,13.1544,13.1969,13.2379,13.2379,13.2576,13.2956,13.3487,13.3563,13.3107,6.9704,6.9755,7.0068,7.0172,7.0172,7.0172,7.0172,7.0094,6.8794,6.8638,6.934,6.9392,6.9678,7.0145,7.0457,7.0405,7.0172,7.0457,7.1113,7.1853,7.188,7.2781,7.441,7.5432,7.6214,7.6805,7.8187,7.8867,7.8947,7.9715,8.03,8.0638,8.0896,8.1039,8.1039,8.138,8.2411,8.3968,8.2094,8.1066,8.1151,8.1408,8.1578,8.169,8.1608,8.2448,8.4442,8.3464,8.3804,8.5847,8.6866,8.7536,8.791,9.0361,9.1974,9.2263,9.2852,9.3427,9.3734,9.3734,9.4173,9.5185,9.5398,9.5491,9.5571,9.5506,9.5929,9.6766,9.8833,10.1159,10.3587,10.6074,10.8226,11.0338,11.2581,11.4076,11.4607,11.5747,11.6755,11.7618,11.8681,11.9895,12.1129,12.2097,12.3038,12.3797,12.465,12.5759,12.7307,12.6957,12.6501,12.6881,12.7261,12.7443,12.7519,12.7549,12.7747,12.802,12.8172,12.8354,12.8734,12.8886,12.9068,12.9341,12.9691,13.0146,13.0633,13.1088,13.1316,13.1468,13.162,13.1893,13.2044,13.2303,13.2228,6.8717,6.8795,6.9366,6.96,6.96,6.9626,6.9626,6.9366,6.7028,6.6795,6.8172,6.8197,6.8742,6.9704,6.9756,6.9782,6.9808,6.9964,7.0275,7.0742,7.0794,7.1612,7.2966,7.3259,7.3901,7.4916,7.6306,7.7028,7.719,7.8764,7.9584,7.9614,8.0015,8.0189,8.0246,8.0329,8.0302,8.0216,8.0159,7.9932,7.9725,8.0072,8.0072,7.9842,8.0273,8.142,8.3246,8.1441,8.1248,8.3064,8.5315,8.5662,8.389,8.8789,9.1164,8.9781,9.0835,9.1804,9.2282,9.2375,9.2904,9.407,9.4573,9.4293,9.3082,9.2623,9.2796,9.3972,9.5809,9.7485,9.9294,10.3382,10.6551,10.821,11.0616,11.2127,11.2025,11.2807,11.3794,11.4759,11.6734,11.8301,11.9184,12.0152,12.0759,12.1092,12.187,12.2875,12.4317,12.4042,12.3844,12.5181,12.6168,12.6577,12.6426,12.6835,12.6835,12.6957,12.6957,12.7063,12.7109,12.7261,12.764,12.8218,12.8445,12.8825,12.9417,12.9676,12.9752,12.9949,13.0374,13.083,13.1088,13.1361,13.1392,6.6483,6.6483,6.6637,6.6664,6.6664,6.7081,6.7055,6.6664,0.0,0.0,0.0,6.6978,6.7081,6.7341,6.7859,6.8118,6.8144,6.8976,6.9418,6.9547,7.0093,7.0485,7.08,7.2198,7.2967,7.3286,7.574,7.7028,7.7055,7.8259,7.8901,7.8931,7.8962,7.9018,7.9102,7.9557,7.9557,7.9045,7.8506,7.8677,7.9614,7.9273,7.9447,8.0302,8.0416,8.0462,8.0461,8.0057,7.9517,7.8965,8.1012,8.2001,8.1687,8.4304,8.6547,8.7952,8.8802,8.9073,8.8647,8.8724,8.8853,8.8995,9.0735,9.1921,9.2321,9.0129,8.982,9.2299,9.3339,9.574,10.0247,10.2123,10.4401,10.8158,10.9715,11.0176,10.9619,11.0682,11.1999,11.286,11.3973,11.5133,11.6755,11.7666,11.8349,11.9164,11.9791,12.0626,12.0854,12.0275,12.0199,12.1822,12.2582,12.281,12.3283,12.3996,12.4451,12.4451,12.4983,12.5438,12.5485,12.594,12.6366,12.6518,12.7261,12.764,12.7868,12.805,12.8202,12.8749,12.9083,12.9356,13.0025,12.9767,12.928,6.6275,6.6275,6.6275,6.6275,0.0,6.6562,6.568,6.4146,6.4742,6.5133,6.5368,6.5393,6.5524,6.5811,6.6172,6.6456,6.6793,6.7314,6.7834,6.8431,6.8742,6.9158,6.9704,7.054,7.109,7.1511,7.3994,7.5087,7.4936,7.7138,7.8102,7.7853,7.8411,7.8704,7.8704,7.9072,7.9045,7.8704,7.8393,7.8419,7.8677,7.8704,7.8874,7.9105,7.9447,0.0,0.0,0.0,0.0,0.0,0.0,0.0,0.0,0.0,0.0,8.2921,8.3671,8.441,8.5038,8.4203,8.4523,8.6439,8.7691,8.887,9.0014,8.9326,8.916,8.9864,9.082,9.2726,9.5712,9.8659,10.136,10.3874,10.7271,10.9138,10.891,10.9847,11.081,11.1292,11.2329,11.3593,11.4857,11.5692,11.6403,11.6886,11.7514,11.8045,11.7941,11.6982,11.6858,11.8481,11.962,12.0731,12.1158,12.1613,12.187,12.187,12.2173,12.2372,12.2448,12.3131,12.3815,12.4241,12.5029,12.597,12.6577,12.6775,12.7049,12.7868,12.8096,12.8172,12.799,12.7762,12.7504,6.5756,6.5731,6.5835,6.5887,6.5887,6.5991,6.4693,6.2588,6.315,6.3618,6.3986,6.3986,6.4274,6.4617,6.4617,6.4876,6.5441,6.5545,6.6065,6.6974,6.7209,6.7755,6.8587,6.8795,6.9184,6.986,7.1895,7.2767,7.2462,7.5675,7.7088,7.6665,7.778,7.8419,7.8533,0.0,0.0,0.0,7.8336,7.8222,7.7964,7.8336,7.8336,7.7938,7.8362,0.0,7.8506,7.8393,7.7994,7.7307,7.894,0.0,0.0,0.0,0.0,0.0,0.0,0.0,0.0,0.0,0.0,0.0,8.3147,8.3126,8.4238,8.6817,8.8145,8.7647,8.8948,9.0223,9.1129,9.5394,9.8617,9.9929,10.4372,10.7439,10.7771,10.8658,10.9443,10.9747,11.0962,11.2177,11.3035,11.3745,11.4152,11.4304,11.4857,11.5161,11.5009,11.4022,11.3843,11.5312,11.721,11.8681,11.8956,11.9136,11.926,11.926,11.9336,11.9412,11.9412,12.0152,12.1063,12.1357,12.2448,12.3797,12.4953,12.5379,12.5607,12.6653,12.6759,12.6501,12.5485,12.5455,12.591,6.2247,6.2323,6.2744,6.2951,6.298,6.3542,6.3618,6.3254,6.3329,6.341,6.3438,6.3462,6.3514,6.3566,6.3542,6.3618,6.3722,6.4142,6.4454,6.4662,6.5625,6.6172,6.6327,6.739,6.7885,6.8065,7.0214,7.1262,7.1263,7.4114,7.554,7.5491,7.6481,7.7286,7.7824,7.7286,7.7001,7.7027,7.7001,7.7539,7.859,7.8108,7.8135,7.8506,7.8108,7.7881,7.7907,7.7312,7.6489,7.5327,7.5467,7.5258,7.4486,7.4783,7.5201,0.0,7.6331,0.0,0.0,0.0,0.0,0.0,0.0,0.0,0.0,7.827,8.4266,8.6726,8.8719,9.0382,9.1877,9.4266,9.7129,10.0168,10.185,10.3222,10.436,10.5797,10.7316,10.8682,10.8986,10.9745,11.1213,11.1011,11.0962,11.1668,11.1999,11.1744,11.1011,11.1213,11.1847,11.2887,11.3897,11.4933,11.5719,11.6299,11.6706,11.6755,11.7182,11.7486,11.6831,11.8025,11.8832,11.8501,11.9971,12.1547,12.1851,12.2448,12.3207,12.3996,12.4101,12.3569,12.243,12.2886,12.4101,6.2629,6.2629,6.2843,6.2144,6.103,6.1306,6.1462,6.1462,6.1439,6.1462,6.1439,6.1462,6.1439,6.1514,6.2086,6.2398,6.245,6.2947,6.3362,6.375,6.4246,6.4662,6.4949,6.5441,6.6065,6.6739,6.8237,6.902,6.9221,7.1634,7.2955,7.3311,7.4702,7.5326,7.5125,7.5232,7.558,7.6262,7.6262,7.6717,7.7596,7.7369,7.7343,7.7596,7.7343,7.7084,7.666,7.6402,7.5523,7.4037,7.4183,7.381,7.2525,7.2416,7.2248,0.0,0.0,0.0,0.0,0.0,0.0,0.0,0.0,0.0,0.0,0.0,7.8528,8.4269,8.6156,8.7298,8.7785,9.0103,9.2602,9.5053,9.7271,9.9535,10.1976,10.2958,10.433,10.6329,10.6608,10.7367,10.9441,10.9467,10.9543,11.0404,11.015,10.9543,10.8885,10.9341,11.0074,11.0962,11.0985,11.149,11.3419,11.4027,11.4228,11.4228,11.4884,11.5285,11.4906,11.5871,11.6554,11.6251,11.7038,11.7977,11.8405,11.8832,11.9488,12.0379,11.9924,11.8936,11.8557,11.9412,12.0626,6.2369,6.2317,6.1878,6.0786,5.9264,5.9286,5.9316,5.9471,5.962,5.9724,5.9724,5.9783,5.9679,5.9471,6.0273,6.0659,6.0793,6.1497,6.2144,6.271,6.3022,6.3334,6.3702,6.3858,6.4426,6.5334,6.6245,6.6698,6.6943,6.8896,7.0243,7.0904,7.2039,7.2569,7.2622,7.3018,7.3869,7.5181,7.5041,7.5438,7.6319,7.6464,7.652,7.6546,7.6262,7.589,7.5434,7.515,7.4272,7.2981,7.2973,7.2184,7.0566,6.9972,0.0,0.0,0.0,0.0,0.0,0.0,0.0,0.0,0.0,6.9672,7.1326,0.0,7.2793,0.0,8.1975,8.3393,8.3394,8.5403,0.0,0.0,9.2277,9.5023,9.9011,9.9869,10.1088,10.3776,10.4229,10.5242,10.7544,10.7746,10.7923,10.8455,10.8278,10.7873,10.7341,10.8025,10.891,10.9493,10.9138,10.9315,11.0962,11.1368,11.1368,11.1596,11.2048,11.2553,11.2553,11.3289,11.3772,11.362,11.3821,11.4379,11.4933,11.5388,11.5947,11.6099,11.5036,11.4076,11.4857,11.5816,11.6927,5.9434,5.9256,5.7632,5.7165,5.7519,5.7519,5.7809,5.8307,5.8914,5.9122,5.9196,5.9649,5.9264,5.8255,5.7861,0.0,5.8463,5.9575,6.0377,6.088,6.1993,6.2507,6.2588,6.3126,6.3462,6.3542,6.4134,6.4422,6.4526,6.6188,6.7475,6.8331,6.801,6.8989,7.1194,7.096,7.1658,7.3273,7.2943,7.348,7.4935,7.5554,7.5895,7.5864,7.4859,7.4233,7.4176,7.307,7.2306,7.2184,7.0613,6.9441,6.862,0.0,0.0,0.0,0.0,0.0,0.0,0.0,0.0,0.0,0.0,0.0,0.0,0.0,0.0,0.0,7.5392,0.0,8.0512,8.1168,0.0,0.0,0.0,8.86,9.4851,9.6214,9.7923,10.1201,0.0,0.0,10.5014,10.5242,10.5013,10.4379,10.5594,10.6481,10.6405,10.7645,10.8657,10.8758,10.8682,10.8429,10.843,10.8278,10.848,10.9189,10.8986,10.9339,10.9339,11.0024,11.0074,10.9669,11.0504,11.1593,11.1619,11.2807,11.2982,11.02,11.01,11.0734,11.1619,11.2883,11.4223,5.7042,5.5378,5.4682,5.4526,5.4754,5.4754,5.5254,5.6179,5.6408,5.6491,5.6513,5.6751,5.6345,5.5503,5.4994,0.0,0.0,0.0,5.8463,5.9753,6.051,6.1283,6.1884,6.178,6.1959,6.2317,6.2167,6.2409,6.3079,6.3789,6.3706,6.299,0.0,0.0,6.6637,6.78,6.8912,7.0077,6.9987,7.0841,7.2756,7.3062,7.3475,7.4126,7.3354,7.2671,7.233,7.1452,7.0428,6.9347,6.8233,6.7003,0.0,0.0,0.0,0.0,0.0,0.0,0.0,0.0,0.0,0.0,0.0,5.765,5.8438,0.0,0.0,0.0,6.961,7.2709,7.653,7.8491,0.0,0.0,0.0,0.0,0.0,0.0,0.0,9.3738,9.7192,10.0305,10.2407,10.2735,10.2583,10.2328,10.4607,10.5949,10.4911,0.0,10.7443,10.7847,10.7569,10.7671,10.8835,10.8202,10.7974,10.9265,10.9847,11.0074,10.9619,11.0176,11.0404,10.9771,11.0024,11.0328,10.9771,10.9391,10.8734,10.7595,10.7898,10.8734,10.9517,11.0174,11.1111,5.3694,0.0,0.0,0.0,0.0,5.1842,5.2434,5.3318,5.3494,5.3598,5.3618,5.3734,0.0,0.0,0.0,0.0,0.0,0.0,5.6593,5.8299,5.9234,6.0192,6.1052,6.0666,6.0643,6.1075,6.0666,6.0747,6.1416,6.0614,5.9796,5.8928,0.0,0.0,0.0,0.0,6.6269,6.7379,6.7316,6.8452,7.0982,7.0545,7.0888,7.2085,7.1349,7.0757,7.0348,6.9575,6.8414,6.6935,6.5605,0.0,0.0,0.0,0.0,0.0,0.0,0.0,0.0,0.0,0.0,0.0,0.0,0.0,0.0,0.0,0.0,0.0,0.0,0.0,7.1481,7.4747,7.6475,0.0,0.0,0.0,0.0,0.0,0.0,0.0,0.0,0.0,9.7297,9.8629,9.9669,0.0,0.0,10.4658,10.3239,10.4531,10.5721,10.5975,10.5417,0.0,10.7215,10.6683,10.6532,10.8,10.8885,10.9163,10.8379,10.8683,10.8911,10.8329,10.843,10.8278,10.7443,10.6152,10.5214,10.4962,10.5342,10.5975,10.6709,10.7316,10.8075,0.0,0.0,0.0,0.0,0.0,0.0,0.0,0.0,5.0386,5.0684,0.0,5.1199,0.0,0.0,0.0,0.0,0.0,5.2895,0.0,0.0,5.8216,5.9434,5.988,5.9835,5.9887,5.9909,5.9805,5.9568,5.8966,5.6408,0.0,0.0,0.0,0.0,0.0,0.0,6.3675,6.5462,6.5129,6.6458,6.9628,6.821,6.8162,6.9772,6.8657,6.8162,6.8448,6.7277,6.6287,6.5583,6.267,0.0,0.0,0.0,0.0,0.0,0.0,0.0,0.0,0.0,0.0,0.0,0.0,0.0,0.0,0.0,0.0,0.0,0.0,0.0,0.0,6.8984,0.0,0.0,0.0,0.0,0.0,0.0,0.0,0.0,0.0,0.0,8.8877,9.2286,9.5817,9.7466,0.0,0.0,0.0,0.0,10.3543,10.2787,10.1976,10.1544,10.162,10.2203,10.2987,10.3948,0.0,0.0,10.4175,10.4024,10.4175,10.4024,10.4785,10.4887,10.41,10.3163,10.2355,10.162,10.1544,10.1772,10.2559,10.3901,10.5419,0.0,0.0,0.0,0.0,0.0,0.0,0.0,0.0,0.0,4.7752,0.0,4.7943,0.0,0.0,0.0,0.0,0.0,0.0,0.0,0.0,5.4849,5.5981,5.6595,5.6969,5.6667,0.0,5.5617,5.4754,0.0,0.0,0.0,0.0,0.0,0.0,0.0,0.0,6.1135,6.2314,6.2923,6.4258,6.6308,6.5886,6.6194,6.7455,6.7095,6.6635,6.6288,6.5305,6.4612,0.0,0.0,0.0,0.0,0.0,0.0,0.0,0.0,0.0,0.0,0.0,0.0,0.0,0.0,0.0,0.0,0.0,0.0,0.0,0.0,0.0,0.0,0.0,6.8836,0.0,0.0,0.0,0.0,0.0,0.0,0.0,0.0,0.0,8.4159,8.8455,9.2683,9.4771,9.7519,9.9569,10.0281,0.0,0.0,0.0,0.0,0.0,0.0,0.0,10.1976,10.2759,10.2735,10.2683,10.2887,10.3391,10.3416,10.2352,0.0,0.0,10.0353,9.9493,9.9166,9.8886,9.8909,9.9137,9.9902,10.0509,10.1244,0.0,0.0,0.0,0.0,0.0,0.0,0.0,0.0,0.0,4.496,4.5083,0.0,0.0,0.0,0.0,0.0,0.0,0.0,0.0,0.0,0.0,0.0,5.363,5.3986,0.0,0.0,0.0,0.0,0.0,0.0,0.0,0.0,0.0,0.0,0.0,0.0,5.878,5.9783,6.1111,6.2638,6.4358,6.3941,6.4246,6.5468,6.5306,6.488,6.4325,0.0,0.0,0.0,0.0,0.0,0.0,0.0,0.0,0.0,0.0,0.0,0.0,0.0,0.0,0.0,0.0,0.0,0.0,0.0,0.0,0.0,0.0,0.0,0.0,0.0,6.3932,0.0,0.0,0.0,0.0,0.0,0.0,0.0,0.0,0.0,0.0,0.0,8.855,9.1647,9.4454,9.6759,9.8126,9.8308,9.8687,0.0,0.0,0.0,0.0,0.0,0.0,0.0,0.0,0.0,0.0,0.0,0.0,0.0,0.0,9.975,9.6455,9.562,9.5468,9.5468,0.0,0.0,0.0,0.0,0.0,0.0,0.0,0.0,0.0,0.0,0.0,0.0,0.0,0.0,0.0,0.0,0.0,0.0,4.3321,0.0,0.0,0.0,0.0,0.0,0.0,0.0,0.0,0.0,0.0,0.0,0.0,0.0,0.0,0.0,0.0,0.0,0.0,0.0,0.0,0.0,0.0,5.6703,5.8121,5.9842,6.1725,6.3773,6.2416,6.2416,6.382,6.3265,6.2824,6.2584,0.0,0.0,0.0,0.0,0.0,0.0,0.0,0.0,0.0,0.0,0.0,0.0,0.0,0.0,0.0,0.0,0.0,0.0,0.0,0.0,0.0,0.0,0.0,0.0,0.0,0.0,6.307,6.7612,6.9488,0.0,0.0,0.0,0.0,0.0,0.0,0.0,0.0,0.0,0.0,9.1507,9.3905,9.4905,9.4981,9.5088,9.5133,9.3766,9.3212,9.4883,9.5057,9.5263,0.0,0.0,0.0,0.0,0.0,0.0,0.0,0.0,0.0,0.0,0.0,0.0,0.0,0.0,0.0,0.0,0.0,0.0,0.0,0.0,0.0,0.0,0.0,0.0,0.0,0.0,0.0,0.0,0.0,0.0,0.0,0.0,0.0,0.0,0.0,0.0,0.0,0.0,0.0,0.0,0.0,0.0,0.0,0.0,0.0,0.0,0.0,0.0,0.0,0.0,0.0,0.0,0.0,0.0,5.5972,5.755,5.9605,6.1196,6.2341,6.1861,6.1861,6.2272,6.1673,6.1378,0.0,0.0,0.0,0.0,0.0,0.0,0.0,0.0,0.0,0.0,0.0,0.0,0.0,0.0,0.0,0.0,0.0,0.0,0.0,0.0,0.0,0.0,0.0,0.0,0.0,0.0,0.0,0.0,6.3802,6.6205,6.5527,0.0,0.0,0.0,0.0,0.0,0.0,0.0,0.0,0.0,0.0,9.0934,9.2972,9.267,9.2622,9.3914,9.319,9.2702,9.3212,9.331,9.3342,9.3569,0.0,0.0,0.0,0.0,0.0,0.0,0.0,0.0,0.0,0.0,0.0,0.0,0.0,0.0,0.0,0.0,0.0,0.0,0.0,0.0,0.0,0.0,0.0,0.0,0.0,0.0,0.0,0.0,0.0,0.0,0.0,0.0,0.0,0.0,0.0,0.0,0.0,0.0,0.0,0.0,0.0,0.0,0.0,0.0,0.0,0.0,0.0,0.0,0.0,0.0,0.0,0.0,0.0,5.4983,5.6688,5.9108,6.0666,6.1208,6.1491,6.1514,6.1237,6.0851,6.0461,0.0,0.0,0.0,0.0,0.0,0.0,0.0,0.0,0.0,0.0,0.0,0.0,0.0,0.0,0.0,0.0,0.0,0.0,0.0,0.0,0.0,0.0,0.0,0.0,0.0,0.0,0.0,0.0,5.9745,6.2113,6.2975,0.0,0.0,0.0,0.0,0.0,0.0,0.0,0.0,0.0,0.0,8.7929,8.976,9.0083,0.0,0.0,9.1562,9.1291,9.1899,9.1747,9.1345,9.0662,9.0586,0.0,0.0,0.0,0.0,0.0,0.0,0.0,0.0,0.0,0.0,0.0,0.0,0.0,0.0,0.0,0.0,0.0,0.0,0.0,0.0,0.0,0.0,0.0,0.0,0.0,0.0,0.0,0.0,0.0,0.0,0.0,0.0,0.0,0.0,0.0,0.0,0.0,0.0,0.0,0.0,0.0,0.0,0.0,0.0,0.0,0.0,0.0,0.0,0.0,0.0,0.0,0.0,0.0,5.5576,5.8381,6.0095,6.0672,6.1335,6.1312,6.0672,6.0569,5.9965,0.0,0.0,0.0,0.0,0.0,0.0,0.0,0.0,0.0,0.0,0.0,0.0,0.0,0.0,0.0,0.0,0.0,0.0,0.0,0.0,0.0,0.0,0.0,0.0,0.0,0.0,0.0,0.0,0.0,0.0,0.0,0.0,0.0,0.0,0.0,0.0,0.0,0.0,0.0,0.0,0.0,8.5018,8.5927,8.7367,8.8658,0.0,0.0,8.9088,9.0619,9.0282,8.9274,8.7659,0.0,0.0,0.0,0.0,0.0,0.0,0.0,0.0,0.0,0.0,0.0,0.0,0.0,0.0,0.0,0.0,0.0,0.0,0.0,0.0,0.0,0.0,0.0,0.0,0.0,0.0,0.0,0.0,0.0,0.0,0.0,0.0,0.0,0.0,0.0,0.0,0.0,0.0,0.0,0.0,0.0,0.0,0.0,0.0,0.0,0.0,0.0,0.0,0.0,0.0,0.0,0.0,0.0,0.0,5.5035,5.7822,5.9753,6.0598,6.1237,6.1312,6.0695,5.9909,0.0,0.0,0.0,0.0,0.0,0.0,0.0,0.0,0.0,0.0,0.0,0.0,0.0,0.0,0.0,0.0,0.0,0.0,0.0,0.0,0.0,0.0,0.0,0.0,0.0,0.0,0.0,5.0503,0.0,0.0,0.0,0.0,0.0,0.0,0.0,0.0,0.0,0.0,0.0,0.0,0.0,0.0,8.2695,8.4791,8.5456,8.6056,0.0,0.0,8.6258,8.7376,8.7811,8.7735,0.0,0.0,0.0,0.0,0.0,0.0,0.0,0.0,0.0,0.0,0.0,0.0,0.0,0.0,0.0,0.0,0.0,0.0,0.0,0.0,0.0,0.0,0.0,0.0,0.0,0.0,0.0,0.0,0.0,0.0,0.0,0.0,0.0,0.0,0.0,0.0,0.0,0.0,0.0,0.0,0.0,0.0,0.0,0.0,0.0,0.0,0.0,0.0,0.0,0.0,0.0,0.0,0.0,0.0,5.2128,5.439,5.6688,5.8588,5.9939,6.0555,6.0406,5.9582,5.8952,5.7807,0.0,0.0,0.0,0.0,0.0,0.0,0.0,0.0,0.0,0.0,0.0,0.0,0.0,0.0,0.0,0.0,0.0,0.0,0.0,0.0,0.0,0.0,0.0,0.0,0.0,0.0,0.0,0.0,0.0,0.0,0.0,0.0,0.0,0.0,0.0,0.0,0.0,0.0,0.0,0.0,0.0,0.0,8.1917,8.2726,0.0,0.0,0.0,8.5251,8.6182,0.0,0.0,0.0,0.0,0.0,0.0,0.0,0.0,0.0,0.0,0.0,0.0,0.0,0.0,0.0,0.0,0.0,0.0,0.0,0.0,0.0,0.0,0.0,0.0,0.0,0.0,0.0,0.0,0.0,0.0,0.0,0.0,0.0,0.0,0.0,0.0,0.0,0.0,0.0,0.0,0.0,0.0,0.0,0.0,0.0,0.0,0.0,0.0,0.0,0.0,0.0,0.0,0.0,0.0,0.0,0.0,0.0,5.3582,5.541,5.7195,5.8832,5.9464,5.9234,5.8077,5.7891,5.6704,0.0,0.0,0.0,0.0,0.0,0.0,0.0,0.0,0.0,0.0,0.0,0.0,0.0,0.0,0.0,0.0,0.0,0.0,0.0,0.0,0.0,0.0,0.0,0.0,0.0,0.0,0.0,0.0,0.0,0.0,0.0,0.0,0.0,0.0,0.0,0.0,0.0,0.0,0.0,0.0,0.0,7.7371,7.853,8.0005,8.1387,0.0,0.0,8.4815,8.5519,8.4987,0.0,0.0,0.0,0.0,0.0,0.0,0.0,0.0,0.0,0.0,0.0,0.0,0.0,0.0,0.0,0.0,0.0,0.0,0.0,0.0,0.0,0.0,0.0,0.0,0.0,0.0,0.0,0.0,0.0,0.0,0.0,0.0,0.0,0.0,0.0,0.0,0.0,0.0,0.0,0.0,0.0,0.0,0.0,0.0,0.0,0.0,0.0,0.0,0.0,0.0,0.0,0.0,0.0,0.0,0.0,0.0,5.2492,5.5026,5.6759,5.7697,5.8684,5.8684,5.7541,5.6593,5.559,0.0,0.0,0.0,0.0,0.0,0.0,0.0,0.0,0.0,0.0,0.0,0.0,0.0,0.0,0.0,0.0,0.0,0.0,0.0,0.0,0.0,0.0,0.0,0.0,0.0,0.0,0.0,0.0,0.0,0.0,0.0,0.0,0.0,0.0,0.0,0.0,0.0,0.0,0.0,0.0,0.0,7.5422,7.8178,7.9485,0.0,0.0,0.0,0.0,8.1437,8.1721,0.0,0.0,0.0,0.0,0.0,0.0,0.0,0.0,0.0,0.0,0.0,0.0,0.0,0.0,0.0,0.0,0.0,0.0,0.0,0.0,0.0,0.0,0.0,0.0,0.0,0.0,0.0,0.0,0.0,0.0,0.0,0.0,0.0,0.0,0.0,0.0,0.0,0.0,0.0,0.0,0.0,0.0,0.0,0.0,0.0,0.0,0.0,0.0,0.0,0.0,0.0,0.0,0.0,0.0,0.0,0.0,5.2459,5.4038,5.5472,5.6801,5.7238,5.6969,5.6106,5.4994,5.369,0.0,0.0,0.0,0.0,0.0,0.0,0.0,0.0,0.0,0.0,0.0,0.0,0.0,0.0,0.0,0.0,0.0,0.0,0.0,0.0,0.0,0.0,0.0,0.0,0.0,0.0,0.0,0.0,0.0,0.0,0.0,0.0,0.0,0.0,0.0,0.0,0.0,0.0,0.0,0.0,7.1516,7.3644,7.6464,0.0,0.0,0.0,0.0,0.0,0.0,7.9348,7.8969,0.0,0.0,0.0,0.0,0.0,0.0,0.0,0.0,0.0,0.0,0.0,0.0,0.0,0.0,0.0,0.0,0.0,0.0,0.0,0.0,0.0,0.0,0.0,0.0,0.0,0.0,0.0,0.0,0.0,0.0,0.0,0.0,0.0,0.0,0.0,0.0,0.0,0.0,0.0,0.0,0.0,0.0,0.0,0.0,0.0,0.0,0.0,0.0,0.0,0.0,0.0,0.0,0.0,0.0,0.0,5.2466,5.2759,5.3902,5.5773,5.5503,5.5025,5.4535,5.3454,5.181,4.9669,0.0,0.0,0.0,0.0,0.0,0.0,0.0,0.0,0.0,0.0,0.0,0.0,0.0,0.0,0.0,0.0,0.0,0.0,0.0,0.0,0.0,0.0,0.0,0.0,0.0,0.0,0.0,0.0,0.0,0.0,0.0,0.0,0.0,0.0,0.0,0.0,0.0,0.0,0.0,7.0037,7.1566,0.0,0.0,0.0,0.0,0.0,0.0,0.0,0.0,7.6387,0.0,0.0,0.0,0.0,0.0,0.0,0.0,0.0,0.0,0.0,0.0,0.0,0.0,0.0,0.0,0.0,0.0,0.0,0.0,0.0,0.0,0.0,0.0,0.0,0.0,0.0,0.0,0.0,0.0,0.0,0.0,0.0,0.0,0.0,0.0,0.0,0.0,0.0,0.0,0.0,0.0,0.0,0.0,0.0,0.0,0.0,0.0,0.0,0.0,0.0,0.0,0.0,0.0,0.0,0.0,0.0,5.1505,5.2647,5.3538,5.3914,5.3902,5.337,5.2635,5.1273,4.9155,0.0,0.0,0.0,0.0,0.0,0.0,0.0,0.0,0.0,0.0,0.0,0.0,0.0,0.0,0.0,0.0,0.0,0.0,0.0,0.0,0.0,0.0,0.0,0.0,0.0,0.0,0.0,0.0,0.0,0.0,0.0,0.0,0.0,0.0,0.0,0.0,0.0,0.0,6.5443,6.7025,0.0,0.0,0.0,0.0,0.0,0.0,0.0,0.0,7.4506,0.0,0.0,0.0,0.0,0.0,0.0,0.0,0.0,0.0,0.0,0.0,0.0,0.0,0.0,0.0,0.0,0.0,0.0,0.0,0.0,0.0,0.0,0.0,0.0,0.0,0.0,0.0,0.0,0.0,0.0,0.0,0.0,0.0,0.0,0.0,0.0,0.0,0.0,0.0,0.0,0.0,0.0,0.0,0.0,0.0,0.0,0.0,0.0,0.0,0.0,0.0,0.0,0.0,0.0,0.0,0.0,0.0,0.0,5.1875,5.2986,5.2979,5.2823,5.2531,5.1109,4.9614,0.0,0.0,0.0,0.0,0.0,0.0,0.0,0.0,0.0,0.0,0.0,0.0,0.0,0.0,0.0,0.0,0.0,0.0,0.0,0.0,0.0,0.0,0.0,0.0,0.0,0.0,0.0,0.0,0.0,0.0,0.0,0.0,0.0,0.0,0.0,0.0,0.0,0.0,0.0,0.0,0.0,0.0,0.0,0.0,0.0,0.0,0.0,0.0,0.0,0.0,0.0,0.0,0.0,0.0,0.0,0.0,0.0,0.0,0.0,0.0,0.0,0.0,0.0,0.0,0.0,0.0,0.0,0.0,0.0,0.0,0.0,0.0,0.0,0.0,0.0,0.0,0.0,0.0,0.0,0.0,0.0,0.0,0.0,0.0,0.0,0.0,0.0,0.0,0.0,0.0,0.0,0.0,0.0,0.0,0.0,0.0,0.0,0.0,0.0,0.0,0.0,0.0,0.0,0.0,0.0,0.0,0.0,0.0,5.1062,5.2486,5.1869,5.1557,5.1538,4.9621,4.8135,0.0,0.0,0.0,0.0,0.0,0.0,0.0,0.0,0.0,0.0,0.0,0.0,0.0,0.0,0.0,0.0,0.0,0.0,0.0,0.0,0.0,0.0,0.0,0.0,0.0,0.0,0.0,0.0,0.0,0.0,0.0,0.0,0.0,0.0,0.0,0.0,0.0,0.0,0.0,0.0,0.0,0.0,0.0,0.0,0.0,0.0,0.0,0.0,7.0194,0.0,0.0,0.0,0.0,0.0,0.0,0.0,0.0,0.0,0.0,0.0,0.0,0.0,0.0,0.0,0.0,0.0,0.0,0.0,0.0,0.0,0.0,0.0,0.0,0.0,0.0,0.0,0.0,0.0,0.0,0.0,0.0,0.0,0.0,0.0,0.0,0.0,0.0,0.0,0.0,0.0,0.0,0.0,0.0,0.0,0.0,0.0,0.0,0.0,0.0,0.0,0.0,0.0,0.0,0.0,0.0,0.0,0.0,0.0,5.0037,5.0769,5.0193,4.9844,4.9773,4.8631,4.7704,0.0,0.0,0.0,0.0,0.0,0.0,0.0,0.0,0.0,0.0,0.0,0.0,0.0,0.0,0.0,0.0,0.0,0.0,0.0,0.0,0.0,0.0,0.0,0.0,0.0,0.0,0.0,0.0,0.0,0.0,0.0,0.0,0.0,0.0,0.0,0.0,0.0,0.0,0.0,0.0,0.0,0.0,0.0,0.0,0.0,0.0,0.0,0.0,0.0,0.0,0.0,0.0,0.0,0.0,0.0,0.0,0.0,0.0,0.0,0.0,0.0,0.0,0.0,0.0,0.0,0.0,0.0,0.0,0.0,0.0,0.0,0.0,0.0,0.0,0.0,0.0,0.0,0.0,0.0,0.0,0.0,0.0,0.0,0.0,0.0,0.0,0.0,0.0,0.0,0.0,0.0,0.0,0.0,0.0,0.0,0.0,0.0,0.0,0.0,0.0,0.0,0.0,0.0,0.0,0.0,0.0,0.0,0.0,4.8564,4.9502,4.9551,4.9117,4.813,4.73,4.6712,0.0,0.0,0.0,0.0,0.0,0.0,0.0,0.0,0.0,0.0,0.0,0.0,0.0,0.0,0.0,0.0,0.0,0.0,0.0,0.0,0.0,0.0,0.0,0.0,0.0,0.0,0.0,0.0,0.0,0.0,0.0,0.0,0.0,0.0,0.0,0.0,0.0,0.0,0.0,0.0,0.0,0.0,0.0,0.0,0.0,0.0,0.0,0.0,0.0,0.0,0.0,0.0,0.0,0.0,0.0,0.0,0.0,0.0,0.0,0.0,0.0,0.0,0.0,0.0,0.0,0.0,0.0,0.0,0.0,0.0,0.0,0.0,0.0,0.0,0.0,0.0,0.0,0.0,0.0,0.0,0.0,0.0,0.0,0.0,0.0,0.0,0.0,0.0,0.0,0.0,0.0,0.0,0.0,0.0,0.0,0.0,0.0,0.0,0.0,0.0,0.0,0.0,0.0,0.0,0.0,0.0,0.0,0.0,0.0,4.8307,4.8582,4.8078,4.6919,4.6157,4.5442,0.0,0.0,0.0,0.0,0.0,0.0,0.0,0.0,0.0,0.0,0.0,0.0,0.0,0.0,0.0,0.0,0.0,0.0,0.0,0.0,0.0,0.0,0.0,0.0,0.0,0.0,0.0,0.0,0.0,0.0,0.0,0.0,0.0,0.0,0.0,0.0,0.0,0.0,0.0,0.0,0.0,0.0,0.0,0.0,0.0,0.0,0.0,0.0,0.0,0.0,0.0,0.0,0.0,0.0,0.0,0.0,0.0,0.0,0.0,0.0,0.0,0.0,0.0,0.0,0.0,0.0,0.0,0.0,0.0,0.0,0.0,0.0,0.0,0.0,0.0,0.0,0.0,0.0,0.0,0.0,0.0,0.0,0.0,0.0,0.0,0.0,0.0,0.0,0.0,0.0,0.0,0.0,0.0,0.0,0.0,0.0,0.0,0.0,0.0,0.0,0.0,0.0,0.0,0.0,0.0,0.0,0.0,0.0,0.0,4.7162,4.6677,4.6365,4.6296,4.5187,4.4076,0.0,0.0,0.0,0.0,0.0,0.0,0.0,0.0,0.0,0.0,0.0,0.0,0.0,0.0,0.0,0.0,0.0,0.0,0.0,0.0,0.0,0.0,0.0,0.0,0.0,0.0,0.0,0.0,0.0,0.0,0.0,0.0,0.0,0.0,0.0,0.0,0.0,0.0,0.0,0.0,0.0,0.0,0.0,0.0,0.0,0.0,0.0,0.0,0.0,0.0,0.0,0.0,0.0,0.0,0.0,0.0,0.0,0.0,0.0,0.0,0.0,0.0,0.0,0.0,0.0,0.0,0.0,0.0,0.0,0.0,0.0,0.0,0.0,0.0,0.0,0.0,0.0,0.0,0.0,0.0,0.0,0.0,0.0,0.0,0.0,0.0,0.0,0.0,0.0,0.0,0.0,0.0,0.0,0.0,0.0,0.0,0.0,0.0,0.0,0.0,0.0,0.0,0.0,0.0,0.0,0.0,0.0,0.0,0.0,4.4425,4.4461,4.4737,4.5135,4.4338,4.3933,4.3945,0.0,0.0,0.0,0.0,0.0,0.0,0.0,0.0,0.0,0.0,0.0,0.0,0.0,0.0,0.0,0.0,0.0,0.0,0.0,0.0,0.0,0.0,0.0,0.0,0.0,0.0,0.0,0.0,0.0,0.0,0.0,0.0,0.0,0.0,0.0,0.0,0.0,0.0,0.0,0.0,0.0,0.0,0.0,0.0,0.0,0.0,0.0,0.0,0.0,0.0,0.0,0.0,0.0,0.0,0.0,0.0,0.0,0.0,0.0,0.0,0.0,0.0,0.0,0.0,0.0,0.0,0.0,0.0,0.0,0.0,0.0,0.0,0.0,0.0,0.0,0.0,0.0,0.0,0.0,0.0,0.0,0.0,0.0,0.0,0.0,0.0,0.0,0.0,0.0,0.0,0.0,0.0,0.0,0.0,0.0,0.0,0.0,0.0,0.0,0.0,0.0,0.0,0.0,0.0,0.0,0.0,0.0,0.0,4.2763,4.3126,4.3558,4.3955,4.3542,4.332,0.0,0.0,0.0,0.0,0.0,0.0,0.0,0.0,0.0,0.0,0.0,0.0,0.0,0.0,0.0,0.0,0.0,0.0,0.0,0.0,0.0,0.0,0.0,0.0,0.0,0.0,0.0,0.0,0.0,0.0,0.0,0.0,0.0,0.0,0.0,0.0,0.0,0.0,0.0,0.0,0.0,0.0,0.0,0.0,0.0,0.0,0.0,0.0,0.0,0.0,0.0,0.0,0.0,0.0,0.0,0.0,0.0,0.0,0.0,0.0,0.0,0.0,0.0,0.0,0.0,0.0,0.0,0.0,0.0,0.0,0.0,0.0,0.0,0.0,0.0,0.0,0.0,0.0,0.0,0.0,0.0,0.0,0.0,0.0,0.0,0.0,0.0,0.0,0.0,0.0,0.0,0.0,0.0,0.0,0.0,0.0,0.0,0.0,0.0,0.0,0.0,0.0,0.0,0.0,0.0,0.0,0.0,0.0,4.162,4.2675,4.2711,4.2779,4.2763,4.2779,4.2046,0.0,0.0,0.0,0.0,0.0,0.0,0.0,0.0,0.0,0.0,0.0,0.0,0.0,0.0,0.0,0.0,0.0,0.0,0.0,0.0,0.0,0.0,0.0,0.0,0.0,0.0,0.0,0.0,0.0,0.0,0.0,0.0,0.0,0.0,0.0,0.0,0.0,0.0,0.0,0.0,0.0,0.0,0.0,0.0,0.0,0.0,0.0,0.0,0.0,0.0,0.0,0.0,0.0,0.0,0.0,0.0,0.0,0.0,0.0,0.0,0.0,0.0,0.0,0.0,0.0,0.0,0.0,0.0,0.0,0.0,0.0,0.0,0.0,0.0,0.0,0.0,0.0,0.0,0.0,0.0,0.0,0.0,0.0,0.0,0.0,0.0,0.0,0.0,0.0,0.0,0.0,0.0,0.0,0.0,0.0,0.0,0.0,0.0,0.0,0.0,0.0,0.0,0.0,0.0,0.0,0.0,0.0,0.0,0.0,4.1011,0.0,4.2139,0.0,4.2172,4.1899,0.0,0.0,0.0,0.0,0.0,0.0,0.0,0.0,0.0,0.0,0.0,0.0,0.0,0.0,0.0,0.0,0.0,0.0,0.0,0.0,0.0,0.0,0.0,0.0,0.0,0.0,0.0,0.0,0.0,0.0,0.0,0.0,0.0,0.0,0.0,0.0,0.0,0.0,0.0,0.0,0.0,0.0,0.0,0.0,0.0,0.0,0.0,0.0,0.0,0.0,0.0,0.0,0.0,0.0,0.0,0.0,0.0,0.0,0.0,0.0,0.0,0.0,0.0,0.0,0.0,0.0,0.0,0.0,0.0,0.0,0.0,0.0,0.0,0.0,0.0,0.0,0.0,0.0,0.0,0.0,0.0,0.0,0.0,0.0,0.0,0.0,0.0,0.0,0.0,0.0,0.0,0.0,0.0,0.0,0.0,0.0,0.0,0.0,0.0,0.0,0.0,0.0,0.0,0.0,0.0,0.0,0.0,0.0,0.0,3.9853,4.0223,4.0935,4.1936,4.1611,4.1605,0.0,0.0,0.0,0.0,0.0,0.0,0.0,0.0,0.0,0.0,0.0,0.0,0.0,0.0,0.0,0.0,0.0,0.0,0.0,0.0,0.0,0.0,0.0,0.0,0.0,0.0,0.0,0.0,0.0,0.0,0.0,0.0,0.0,0.0,0.0,0.0,0.0,0.0,0.0,0.0,0.0,0.0,0.0,0.0,0.0,0.0,0.0,0.0,0.0,0.0,0.0,0.0,0.0,0.0,0.0,0.0,0.0,0.0,0.0,0.0,0.0,0.0,0.0,0.0,0.0,0.0,0.0,0.0,0.0,0.0,0.0,0.0,0.0,0.0,0.0,0.0,0.0,0.0,0.0,0.0,0.0,0.0,0.0,0.0,0.0,0.0,0.0,0.0,0.0,0.0,0.0,0.0,0.0,0.0,0.0,0.0,0.0,0.0,0.0,0.0,0.0,0.0,0.0,0.0,0.0,0.0,0.0,0.0,0.0,0.0,3.926,3.9245,3.9378,4.0953,4.1148,0.0,0.0,0.0,0.0,0.0,0.0,0.0,0.0,0.0,0.0,0.0,0.0,0.0,0.0,0.0,0.0,0.0,0.0,0.0,0.0,0.0,0.0,0.0,0.0,0.0,0.0,0.0,0.0,0.0,0.0,0.0,0.0,0.0,0.0,0.0,0.0,0.0,0.0,0.0,0.0,0.0,0.0,0.0,0.0,0.0,0.0,0.0,0.0,0.0,0.0,0.0,0.0,0.0,0.0,0.0,0.0,0.0,0.0,0.0,0.0,0.0,0.0,0.0,0.0,0.0,0.0,0.0,0.0,0.0,0.0,0.0,0.0,0.0,0.0,0.0,0.0,0.0,0.0,0.0,0.0,0.0,0.0,0.0,0.0,0.0,0.0,0.0,0.0,0.0,0.0,0.0,0.0,0.0,0.0,0.0,0.0,0.0,0.0,0.0,0.0,0.0,0.0,0.0,0.0,0.0,0.0,0.0,0.0,0.0,0.0,3.9067,0.0,3.9304,4.021,4.0744,4.0747,0.0,0.0,0.0,0.0,0.0,0.0,0.0,0.0,0.0,0.0,0.0,0.0,0.0,0.0,0.0,0.0,0.0,0.0,0.0,0.0,0.0,0.0,0.0,0.0,0.0,0.0,0.0,0.0,0.0,0.0,0.0,0.0,0.0,0.0,0.0,0.0,0.0,0.0,0.0,0.0,0.0,0.0,0.0,0.0,0.0,0.0,0.0,0.0,0.0,0.0,0.0,0.0,0.0,0.0,0.0,0.0,0.0,0.0,0.0,0.0,0.0,0.0,0.0,0.0,0.0,0.0,0.0,0.0,0.0,0.0,0.0,0.0,0.0,0.0,0.0,0.0,0.0,0.0,0.0,0.0,0.0,0.0,0.0,0.0,0.0,0.0,0.0,0.0,0.0,0.0,0.0,0.0,0.0,0.0,0.0,0.0,0.0,0.0,0.0,0.0,0.0,0.0,0.0,0.0,0.0,0.0,0.0,0.0,0.0,0.0,0.0,3.8614,3.8982,3.9482,0.0,0.0,0.0,0.0,0.0,0.0,0.0,0.0,0.0,0.0,0.0,0.0,0.0,0.0,0.0,0.0,0.0,0.0,0.0,0.0,0.0,0.0,0.0,0.0,0.0,0.0,0.0,0.0,0.0,0.0,0.0,0.0,0.0,0.0,0.0,0.0,0.0,0.0,0.0,0.0,0.0,0.0,0.0,0.0,0.0,0.0,0.0,0.0,0.0,0.0,0.0,0.0,0.0,0.0,0.0,0.0,0.0,0.0,0.0,0.0,0.0,0.0,0.0,0.0,0.0,0.0,0.0,0.0,0.0,0.0,0.0,0.0,0.0,0.0,0.0,0.0,0.0,0.0,0.0,0.0,0.0,0.0,0.0,0.0,0.0,0.0,0.0,0.0,0.0,0.0,0.0,0.0,0.0,0.0,0.0,0.0,0.0,0.0,0.0,0.0,0.0,0.0,0.0,0.0,0.0,0.0,0.0,0.0,0.0,0.0,0.0,3.7741,3.7741,3.7741,0.0,3.853,0.0,0.0,0.0,0.0,0.0,0.0,0.0,0.0,0.0,0.0,0.0,0.0,0.0,0.0,0.0,0.0,0.0,0.0,0.0,0.0,0.0,0.0,0.0,0.0,0.0,0.0,0.0,0.0,0.0,0.0,0.0,0.0,0.0,0.0,0.0,0.0,0.0,0.0,0.0,0.0,0.0,0.0,0.0,0.0,0.0,0.0,0.0,0.0,0.0,0.0,0.0,0.0,0.0,0.0,0.0,0.0,0.0,0.0,0.0,0.0,0.0,0.0,0.0,0.0,0.0,0.0,0.0,0.0,0.0,0.0,0.0,0.0,0.0,0.0,0.0,0.0,0.0,0.0,0.0,0.0,0.0,0.0,0.0,0.0,0.0,0.0,0.0,0.0,0.0,0.0,0.0,0.0,0.0,0.0,0.0,0.0,0.0,0.0,0.0,0.0,0.0,0.0,0.0,0.0,0.0,0.0,0.0,0.0,0.0,0.0,0.0,0.0,3.7741,3.7953,3.8463,0.0,0.0,0.0,0.0,0.0,0.0,0.0,0.0,0.0,0.0,0.0,0.0,0.0,0.0,0.0,0.0,0.0,0.0,0.0,0.0,0.0,0.0,0.0,0.0,0.0,0.0,0.0,0.0,0.0,0.0,0.0,0.0,0.0,0.0,0.0,0.0,0.0,0.0,0.0,0.0,0.0,0.0,0.0,0.0,0.0,0.0,0.0,0.0,0.0,0.0,0.0,0.0,0.0,0.0,0.0,0.0,0.0,0.0,0.0,0.0,0.0,0.0,0.0,0.0,0.0,0.0,0.0,0.0,0.0,0.0,0.0,0.0,0.0,0.0,0.0,0.0,0.0,0.0,0.0,0.0,0.0,0.0,0.0,0.0,0.0,0.0,0.0,0.0,0.0,0.0,0.0,0.0,0.0,0.0,0.0,0.0,0.0,0.0,0.0,0.0,0.0,0.0,0.0,0.0,0.0,0.0,0.0,0.0,0.0,0.0,3.7741,3.7741,3.7741,3.7967,3.8449,0.0,0.0,0.0,0.0,0.0,0.0,0.0,0.0,0.0,0.0,0.0,0.0,0.0,0.0,0.0,0.0,0.0,0.0,0.0,0.0,0.0,0.0,0.0,0.0,0.0,0.0,0.0,0.0,0.0,0.0,0.0,0.0,0.0,0.0,0.0,0.0,0.0,0.0,0.0,0.0,0.0,0.0,0.0,0.0,0.0,0.0,0.0,0.0,0.0,0.0,0.0,0.0,0.0,0.0,0.0,0.0,0.0,0.0,0.0,0.0,0.0,0.0,0.0,0.0,0.0,0.0,0.0,0.0,0.0,0.0,0.0,0.0,0.0,0.0,0.0,0.0,0.0,0.0,0.0,0.0,0.0,0.0,0.0,0.0,0.0,0.0,0.0,0.0,0.0,0.0,0.0,0.0,0.0,0.0,0.0,0.0,0.0,0.0,0.0,0.0,0.0,0.0,0.0,0.0,0.0,0.0,0.0,0.0,0.0,0.0,0.0,0.0,0.0,0.0,3.8124,0.0,0.0,0.0,0.0,0.0,0.0,0.0,0.0,0.0,0.0,0.0,0.0,0.0,0.0,0.0,0.0,0.0,0.0,0.0,0.0,0.0,0.0,0.0,0.0,0.0,0.0,0.0,0.0,0.0,0.0,0.0,0.0,0.0,0.0,0.0,0.0,0.0,0.0,0.0,0.0,0.0,0.0,0.0,0.0,0.0,0.0,0.0,0.0,0.0,0.0,0.0,0.0,0.0,0.0,0.0,0.0,0.0,0.0,0.0,0.0,0.0,0.0,0.0,0.0,0.0,0.0,0.0,0.0,0.0,0.0,0.0,0.0,0.0,0.0,0.0,0.0,0.0,0.0,0.0,0.0,0.0,0.0,0.0,0.0,0.0,0.0,0.0,0.0,0.0,0.0,0.0,0.0,0.0,0.0,0.0,0.0,0.0,0.0,0.0,0.0,0.0,0.0,0.0,0.0,0.0,0.0,0.0,0.0,0.0,0.0,0.0,0.0,0.0,0.0,0.0,0.0,0.0,0.0,0.0,0.0,0.0,0.0,0.0,0.0,0.0,0.0,0.0,0.0,0.0,0.0,0.0,0.0,0.0,0.0,0.0,0.0,0.0,0.0,0.0,0.0,0.0,0.0,0.0,0.0,0.0,0.0,0.0,0.0,0.0,0.0,0.0,0.0,0.0,0.0,0.0,0.0,0.0,0.0,0.0,0.0,0.0,0.0,0.0,0.0,0.0,0.0,0.0,0.0,0.0,0.0,0.0,0.0,0.0,0.0,0.0,0.0,0.0,0.0,0.0,0.0,0.0,0.0,0.0,0.0,0.0,0.0,0.0,0.0,0.0,0.0,0.0,0.0,0.0,0.0,0.0,0.0,0.0,0.0,0.0,0.0,0.0,0.0,0.0,0.0,0.0,0.0,0.0,0.0,0.0,0.0,0.0,0.0,0.0,0.0,0.0,0.0,0.0,0.0,0.0,0.0,0.0,0.0,0.0,0.0,0.0,0.0,0.0,0.0,0.0,0.0,0.0,0.0,0.0,0.0,0.0,0.0,0.0,0.0,0.0,0.0,0.0,0.0,0.0,0.0,0.0,0.0,0.0,0.0,0.0,0.0,0.0,0.0,0.0,0.0,0.0,0.0,0.0,0.0,0.0,0.0,0.0,0.0,0.0,0.0,0.0,0.0,0.0,0.0,0.0,0.0,0.0,0.0,0.0,0.0,0.0,0.0,0.0,0.0,0.0,0.0,0.0,0.0,0.0,0.0,0.0,0.0,0.0,0.0,0.0,0.0,0.0,0.0,0.0,0.0,0.0,0.0,0.0,0.0,0.0,0.0,0.0,0.0,0.0,0.0,0.0,0.0,0.0,0.0,0.0,0.0,0.0,0.0,0.0,0.0,0.0,0.0,0.0,0.0,0.0,0.0,0.0,0.0,0.0,0.0,0.0,0.0,0.0,0.0,0.0,0.0,0.0,0.0,0.0,0.0,0.0,0.0,0.0,0.0,0.0,0.0,0.0,0.0,0.0,0.0,0.0,0.0,0.0,0.0,0.0,0.0,0.0,0.0,0.0,0.0,0.0,0.0,0.0,0.0,0.0,0.0,0.0,0.0,0.0,0.0,0.0,0.0,0.0,0.0,0.0,0.0,0.0,0.0,0.0,0.0,0.0,0.0,0.0,0.0,0.0,0.0,0.0,0.0,0.0,0.0,0.0,0.0,0.0,0.0,0.0,0.0,0.0,0.0,0.0,0.0,0.0,0.0,0.0,0.0,0.0,0.0,0.0,0.0,0.0,0.0,0.0,0.0,0.0,0.0,0.0,0.0,0.0,0.0,0.0,0.0,0.0,0.0,0.0,0.0,0.0,0.0,0.0,0.0,0.0,0.0,0.0,0.0,0.0,0.0,0.0,0.0,0.0,0.0,0.0,0.0,0.0,0.0,0.0,0.0,0.0,0.0,0.0,0.0,0.0,0.0,0.0,0.0,0.0,0.0,0.0,0.0,0.0,0.0,0.0,0.0,0.0,0.0,0.0,0.0,0.0,0.0,0.0,0.0,0.0,0.0,0.0,0.0,0.0,0.0,0.0,0.0,0.0,0.0,0.0,0.0,0.0,0.0,0.0,0.0,0.0,0.0,0.0,0.0,0.0,0.0,0.0,0.0,0.0,0.0,0.0,0.0,0.0,0.0,0.0,0.0,0.0,0.0,0.0,0.0,0.0,0.0,0.0,0.0,0.0,0.0,0.0,0.0,0.0,0.0,0.0,0.0,0.0,0.0,0.0,0.0,0.0,0.0,0.0,0.0,0.0,0.0,0.0,0.0,0.0,0.0,0.0,0.0,0.0,0.0,0.0,0.0,0.0,0.0,0.0,0.0,0.0,0.0,0.0,0.0,0.0,0.0,0.0,0.0,0.0,0.0,0.0,0.0,0.0,0.0,0.0,0.0,0.0,0.0,0.0,0.0,0.0,0.0,0.0,0.0,0.0,0.0,0.0,0.0,0.0,0.0,0.0,0.0,0.0,0.0,0.0,0.0,0.0,0.0,0.0,0.0,0.0,0.0,0.0,0.0,0.0,0.0,0.0,0.0,0.0,0.0,0.0,0.0,0.0,0.0,0.0,0.0,0.0,0.0,0.0,0.0,0.0,0.0,0.0,0.0,0.0,0.0,0.0,0.0,0.0,0.0,0.0,0.0,0.0,0.0,0.0,0.0,0.0,0.0,0.0,0.0,0.0,0.0,0.0,0.0,0.0,0.0,0.0,0.0,0.0,0.0,0.0,0.0,0.0,0.0,0.0,0.0,0.0,0.0,0.0,0.0,0.0,0.0,0.0,0.0,0.0,0.0,0.0,0.0,0.0,0.0,0.0,0.0,0.0,0.0,0.0,0.0,0.0,0.0,0.0,0.0,0.0,0.0,0.0,0.0,0.0,0.0,0.0,0.0,0.0,0.0,0.0,0.0,0.0,0.0,0.0,0.0,0.0,0.0,0.0,0.0,0.0,0.0,0.0,0.0,0.0,0.0,0.0,0.0,0.0,0.0,0.0,0.0,0.0,0.0,0.0,0.0,0.0,0.0,0.0,0.0,0.0,0.0,0.0,0.0,0.0,0.0,0.0,0.0,0.0,0.0,0.0,0.0,0.0,0.0,0.0,0.0,0.0,0.0,0.0,0.0,0.0,0.0,0.0,0.0,0.0,0.0,0.0,0.0,0.0,0.0,0.0,0.0,0.0,0.0,0.0,0.0,0.0,0.0,0.0,0.0,0.0,0.0,0.0,0.0,0.0,0.0,0.0,0.0,0.0,0.0,0.0,0.0,0.0,0.0,0.0,0.0,0.0,0.0,0.0,0.0,0.0,0.0,0.0,0.0,0.0,0.0,0.0,0.0,0.0,0.0,0.0,0.0,0.0,0.0,0.0,0.0,0.0,0.0,0.0,0.0,0.0,0.0,0.0,0.0,0.0,0.0,0.0,0.0,0.0,0.0,0.0,0.0,0.0,0.0,0.0,0.0,0.0,0.0,0.0,0.0,0.0,0.0,0.0,0.0,0.0,0.0,0.0,0.0,0.0,0.0,0.0,0.0,0.0,0.0,0.0,0.0,0.0,0.0,0.0,0.0,0.0,0.0,0.0,0.0,0.0,0.0,0.0,0.0,0.0,0.0,0.0,0.0,0.0,0.0,0.0,0.0,0.0,0.0,0.0,0.0,0.0,0.0,0.0,0.0,0.0,0.0,0.0,0.0,0.0,0.0,0.0,0.0,0.0,0.0,0.0,0.0,0.0,0.0,0.0,0.0,0.0,0.0,0.0,0.0,0.0,0.0,0.0,0.0,0.0,0.0,0.0,0.0,0.0,0.0,0.0,0.0,0.0,0.0,0.0,0.0,0.0,0.0,0.0,0.0,0.0,0.0,0.0,0.0,0.0,0.0,0.0,0.0,0.0,0.0,0.0,0.0,0.0,0.0,0.0,0.0,0.0,0.0,0.0,0.0,0.0,0.0,0.0,0.0,0.0,0.0,0.0,0.0,0.0,0.0,0.0,0.0,0.0,0.0,0.0,0.0,0.0,0.0,0.0,0.0,0.0,0.0,0.0,0.0,0.0,0.0,0.0,0.0,0.0,0.0,0.0,0.0,0.0,0.0,0.0,0.0,0.0,0.0,0.0,0.0,0.0,0.0,0.0,0.0,0.0,0.0,0.0,0.0,0.0,0.0,0.0,0.0,0.0,0.0,0.0,0.0,0.0,0.0,0.0,0.0,0.0,0.0,0.0,0.0,0.0,0.0,0.0,0.0,0.0,0.0,0.0,0.0,0.0,0.0,0.0,0.0,0.0,0.0,0.0,0.0,0.0,0.0,0.0,0.0,0.0,0.0,0.0,0.0,0.0,0.0]}]]]